<?xml version="1.0" encoding="UTF-8" standalone="no" ?>
<gpx xmlns="http://www.topografix.com/GPX/1/1" xmlns:xsi="http://www.w3.org/2001/XMLSchema-instance" xsi:schemaLocation="http://www.topografix.com/GPX/1/1 http://www.topografix.com/GPX/1/1/gpx.xsd" version="1.1" creator="VisuGPX - https://www.visugpx.com">
  <metadata>
    <name>ST GEMME  </name>
    <desc><![CDATA[st gemme = les mimeurs ]]></desc>
  </metadata>
  <trk>
    <name><![CDATA[SAINTE GEMME]]></name>
    <trkseg>
      <trkpt lat="44.08964" lon="2.20058">
        <ele>356.79</ele>
        <time>2014-03-18T07:57:52Z</time>
      </trkpt>
      <trkpt lat="44.08961" lon="2.20057">
        <ele>358.71</ele>
        <time>2014-03-18T07:58:14Z</time>
      </trkpt>
      <trkpt lat="44.08959" lon="2.20055">
        <ele>360.63</ele>
        <time>2014-03-18T07:58:37Z</time>
      </trkpt>
      <trkpt lat="44.08958" lon="2.20054">
        <ele>361.11</ele>
        <time>2014-03-18T07:58:44Z</time>
      </trkpt>
      <trkpt lat="44.08951" lon="2.20054">
        <ele>361.59</ele>
        <time>2014-03-18T07:58:56Z</time>
      </trkpt>
      <trkpt lat="44.0895" lon="2.20052">
        <ele>362.55</ele>
        <time>2014-03-18T07:59:11Z</time>
      </trkpt>
      <trkpt lat="44.08951" lon="2.20052">
        <ele>362.07</ele>
        <time>2014-03-18T07:59:35Z</time>
      </trkpt>
      <trkpt lat="44.08953" lon="2.2005">
        <ele>358.71</ele>
        <time>2014-03-18T07:59:59Z</time>
      </trkpt>
      <trkpt lat="44.08944" lon="2.2005">
        <ele>358.71</ele>
        <time>2014-03-18T08:00:14Z</time>
      </trkpt>
      <trkpt lat="44.08935" lon="2.20049">
        <ele>358.23</ele>
        <time>2014-03-18T08:00:22Z</time>
      </trkpt>
      <trkpt lat="44.08922" lon="2.20058">
        <ele>357.27</ele>
        <time>2014-03-18T08:00:35Z</time>
      </trkpt>
      <trkpt lat="44.08913" lon="2.2007">
        <ele>355.83</ele>
        <time>2014-03-18T08:00:46Z</time>
      </trkpt>
      <trkpt lat="44.08895" lon="2.20089">
        <ele>356.79</ele>
        <time>2014-03-18T08:01:04Z</time>
      </trkpt>
      <trkpt lat="44.08878" lon="2.20107">
        <ele>356.79</ele>
        <time>2014-03-18T08:01:21Z</time>
      </trkpt>
      <trkpt lat="44.08867" lon="2.20119">
        <ele>355.34</ele>
        <time>2014-03-18T08:01:32Z</time>
      </trkpt>
      <trkpt lat="44.0886" lon="2.20128">
        <ele>355.34</ele>
        <time>2014-03-18T08:01:40Z</time>
      </trkpt>
      <trkpt lat="44.08845" lon="2.20148">
        <ele>358.23</ele>
        <time>2014-03-18T08:01:57Z</time>
      </trkpt>
      <trkpt lat="44.0883" lon="2.20173">
        <ele>356.31</ele>
        <time>2014-03-18T08:02:15Z</time>
      </trkpt>
      <trkpt lat="44.08816" lon="2.20196">
        <ele>357.75</ele>
        <time>2014-03-18T08:02:32Z</time>
      </trkpt>
      <trkpt lat="44.08803" lon="2.20209">
        <ele>357.75</ele>
        <time>2014-03-18T08:02:47Z</time>
      </trkpt>
      <trkpt lat="44.08802" lon="2.2021">
        <ele>356.79</ele>
        <time>2014-03-18T08:02:51Z</time>
      </trkpt>
      <trkpt lat="44.08788" lon="2.20211">
        <ele>354.86</ele>
        <time>2014-03-18T08:03:03Z</time>
      </trkpt>
      <trkpt lat="44.08776" lon="2.20202">
        <ele>352.94</ele>
        <time>2014-03-18T08:03:14Z</time>
      </trkpt>
      <trkpt lat="44.08763" lon="2.20189">
        <ele>353.9</ele>
        <time>2014-03-18T08:03:28Z</time>
      </trkpt>
      <trkpt lat="44.08749" lon="2.20173">
        <ele>351.5</ele>
        <time>2014-03-18T08:03:43Z</time>
      </trkpt>
      <trkpt lat="44.08734" lon="2.20158">
        <ele>351.5</ele>
        <time>2014-03-18T08:03:58Z</time>
      </trkpt>
      <trkpt lat="44.08729" lon="2.20151">
        <ele>351.02</ele>
        <time>2014-03-18T08:04:04Z</time>
      </trkpt>
      <trkpt lat="44.08727" lon="2.20144">
        <ele>350.54</ele>
        <time>2014-03-18T08:04:08Z</time>
      </trkpt>
      <trkpt lat="44.08726" lon="2.20139">
        <ele>349.58</ele>
        <time>2014-03-18T08:04:20Z</time>
      </trkpt>
      <trkpt lat="44.08726" lon="2.20139">
        <ele>350.54</ele>
        <time>2014-03-18T08:04:33Z</time>
      </trkpt>
      <trkpt lat="44.0873" lon="2.20134">
        <ele>351.5</ele>
        <time>2014-03-18T08:04:47Z</time>
      </trkpt>
      <trkpt lat="44.08734" lon="2.20131">
        <ele>349.58</ele>
        <time>2014-03-18T08:04:59Z</time>
      </trkpt>
      <trkpt lat="44.08735" lon="2.2013">
        <ele>349.58</ele>
        <time>2014-03-18T08:05:04Z</time>
      </trkpt>
      <trkpt lat="44.08738" lon="2.20127">
        <ele>349.1</ele>
        <time>2014-03-18T08:05:07Z</time>
      </trkpt>
      <trkpt lat="44.08742" lon="2.20124">
        <ele>349.58</ele>
        <time>2014-03-18T08:05:11Z</time>
      </trkpt>
      <trkpt lat="44.08751" lon="2.20109">
        <ele>349.58</ele>
        <time>2014-03-18T08:05:20Z</time>
      </trkpt>
      <trkpt lat="44.08753" lon="2.20105">
        <ele>350.06</ele>
        <time>2014-03-18T08:05:23Z</time>
      </trkpt>
      <trkpt lat="44.08754" lon="2.20098">
        <ele>350.54</ele>
        <time>2014-03-18T08:05:27Z</time>
      </trkpt>
      <trkpt lat="44.08757" lon="2.20074">
        <ele>348.13</ele>
        <time>2014-03-18T08:05:41Z</time>
      </trkpt>
      <trkpt lat="44.08754" lon="2.20058">
        <ele>346.69</ele>
        <time>2014-03-18T08:05:50Z</time>
      </trkpt>
      <trkpt lat="44.0875" lon="2.20041">
        <ele>345.73</ele>
        <time>2014-03-18T08:05:59Z</time>
      </trkpt>
      <trkpt lat="44.08746" lon="2.2003">
        <ele>344.77</ele>
        <time>2014-03-18T08:06:06Z</time>
      </trkpt>
      <trkpt lat="44.08735" lon="2.20002">
        <ele>348.62</ele>
        <time>2014-03-18T08:06:25Z</time>
      </trkpt>
      <trkpt lat="44.08731" lon="2.1999">
        <ele>349.58</ele>
        <time>2014-03-18T08:06:32Z</time>
      </trkpt>
      <trkpt lat="44.08726" lon="2.19973">
        <ele>349.58</ele>
        <time>2014-03-18T08:06:44Z</time>
      </trkpt>
      <trkpt lat="44.08724" lon="2.19961">
        <ele>347.65</ele>
        <time>2014-03-18T08:06:52Z</time>
      </trkpt>
      <trkpt lat="44.08718" lon="2.1995">
        <ele>350.06</ele>
        <time>2014-03-18T08:06:59Z</time>
      </trkpt>
      <trkpt lat="44.08711" lon="2.19932">
        <ele>350.54</ele>
        <time>2014-03-18T08:07:10Z</time>
      </trkpt>
      <trkpt lat="44.08704" lon="2.19919">
        <ele>350.06</ele>
        <time>2014-03-18T08:07:19Z</time>
      </trkpt>
      <trkpt lat="44.08699" lon="2.19903">
        <ele>352.94</ele>
        <time>2014-03-18T08:07:30Z</time>
      </trkpt>
      <trkpt lat="44.08689" lon="2.19873">
        <ele>350.06</ele>
        <time>2014-03-18T08:07:47Z</time>
      </trkpt>
      <trkpt lat="44.08687" lon="2.19868">
        <ele>349.58</ele>
        <time>2014-03-18T08:07:52Z</time>
      </trkpt>
      <trkpt lat="44.08676" lon="2.19854">
        <ele>350.54</ele>
        <time>2014-03-18T08:08:03Z</time>
      </trkpt>
      <trkpt lat="44.08663" lon="2.19837">
        <ele>349.1</ele>
        <time>2014-03-18T08:08:18Z</time>
      </trkpt>
      <trkpt lat="44.08651" lon="2.1982">
        <ele>348.13</ele>
        <time>2014-03-18T08:08:31Z</time>
      </trkpt>
      <trkpt lat="44.08642" lon="2.1981">
        <ele>348.13</ele>
        <time>2014-03-18T08:08:40Z</time>
      </trkpt>
      <trkpt lat="44.08638" lon="2.19802">
        <ele>346.69</ele>
        <time>2014-03-18T08:08:45Z</time>
      </trkpt>
      <trkpt lat="44.08623" lon="2.19782">
        <ele>346.69</ele>
        <time>2014-03-18T08:09:00Z</time>
      </trkpt>
      <trkpt lat="44.08614" lon="2.19767">
        <ele>344.77</ele>
        <time>2014-03-18T08:09:13Z</time>
      </trkpt>
      <trkpt lat="44.08608" lon="2.1976">
        <ele>343.33</ele>
        <time>2014-03-18T08:09:19Z</time>
      </trkpt>
      <trkpt lat="44.08598" lon="2.19739">
        <ele>339.48</ele>
        <time>2014-03-18T08:09:34Z</time>
      </trkpt>
      <trkpt lat="44.08597" lon="2.19736">
        <ele>339</ele>
        <time>2014-03-18T08:09:36Z</time>
      </trkpt>
      <trkpt lat="44.08592" lon="2.19726">
        <ele>338.04</ele>
        <time>2014-03-18T08:09:44Z</time>
      </trkpt>
      <trkpt lat="44.08582" lon="2.19712">
        <ele>337.08</ele>
        <time>2014-03-18T08:09:56Z</time>
      </trkpt>
      <trkpt lat="44.08588" lon="2.19694">
        <ele>336.12</ele>
        <time>2014-03-18T08:10:08Z</time>
      </trkpt>
      <trkpt lat="44.0859" lon="2.1969">
        <ele>335.64</ele>
        <time>2014-03-18T08:10:11Z</time>
      </trkpt>
      <trkpt lat="44.08603" lon="2.19669">
        <ele>330.35</ele>
        <time>2014-03-18T08:10:29Z</time>
      </trkpt>
      <trkpt lat="44.08614" lon="2.19662">
        <ele>325.54</ele>
        <time>2014-03-18T08:10:38Z</time>
      </trkpt>
      <trkpt lat="44.08618" lon="2.19658">
        <ele>324.1</ele>
        <time>2014-03-18T08:10:42Z</time>
      </trkpt>
      <trkpt lat="44.08624" lon="2.19653">
        <ele>323.14</ele>
        <time>2014-03-18T08:10:48Z</time>
      </trkpt>
      <trkpt lat="44.08636" lon="2.19648">
        <ele>319.78</ele>
        <time>2014-03-18T08:11:03Z</time>
      </trkpt>
      <trkpt lat="44.08639" lon="2.19641">
        <ele>319.3</ele>
        <time>2014-03-18T08:11:16Z</time>
      </trkpt>
      <trkpt lat="44.08642" lon="2.1964">
        <ele>318.81</ele>
        <time>2014-03-18T08:11:19Z</time>
      </trkpt>
      <trkpt lat="44.08647" lon="2.19636">
        <ele>317.85</ele>
        <time>2014-03-18T08:11:24Z</time>
      </trkpt>
      <trkpt lat="44.0865" lon="2.19633">
        <ele>317.85</ele>
        <time>2014-03-18T08:11:27Z</time>
      </trkpt>
      <trkpt lat="44.08656" lon="2.19622">
        <ele>318.81</ele>
        <time>2014-03-18T08:11:34Z</time>
      </trkpt>
      <trkpt lat="44.08655" lon="2.19614">
        <ele>322.18</ele>
        <time>2014-03-18T08:11:37Z</time>
      </trkpt>
      <trkpt lat="44.0865" lon="2.19605">
        <ele>324.58</ele>
        <time>2014-03-18T08:11:44Z</time>
      </trkpt>
      <trkpt lat="44.08646" lon="2.19601">
        <ele>326.02</ele>
        <time>2014-03-18T08:11:48Z</time>
      </trkpt>
      <trkpt lat="44.08631" lon="2.19582">
        <ele>326.99</ele>
        <time>2014-03-18T08:12:03Z</time>
      </trkpt>
      <trkpt lat="44.08631" lon="2.1958">
        <ele>326.99</ele>
        <time>2014-03-18T08:12:04Z</time>
      </trkpt>
      <trkpt lat="44.08628" lon="2.19569">
        <ele>325.06</ele>
        <time>2014-03-18T08:12:10Z</time>
      </trkpt>
      <trkpt lat="44.08628" lon="2.19542">
        <ele>326.99</ele>
        <time>2014-03-18T08:12:27Z</time>
      </trkpt>
      <trkpt lat="44.08629" lon="2.19531">
        <ele>326.99</ele>
        <time>2014-03-18T08:12:34Z</time>
      </trkpt>
      <trkpt lat="44.08628" lon="2.19521">
        <ele>327.47</ele>
        <time>2014-03-18T08:12:41Z</time>
      </trkpt>
      <trkpt lat="44.08628" lon="2.19516">
        <ele>327.95</ele>
        <time>2014-03-18T08:12:44Z</time>
      </trkpt>
      <trkpt lat="44.0862" lon="2.19499">
        <ele>329.39</ele>
        <time>2014-03-18T08:12:58Z</time>
      </trkpt>
      <trkpt lat="44.08617" lon="2.19494">
        <ele>331.79</ele>
        <time>2014-03-18T08:13:02Z</time>
      </trkpt>
      <trkpt lat="44.08611" lon="2.19471">
        <ele>334.2</ele>
        <time>2014-03-18T08:13:17Z</time>
      </trkpt>
      <trkpt lat="44.0861" lon="2.19457">
        <ele>334.2</ele>
        <time>2014-03-18T08:13:26Z</time>
      </trkpt>
      <trkpt lat="44.0861" lon="2.19453">
        <ele>334.2</ele>
        <time>2014-03-18T08:13:28Z</time>
      </trkpt>
      <trkpt lat="44.08608" lon="2.19433">
        <ele>335.16</ele>
        <time>2014-03-18T08:13:43Z</time>
      </trkpt>
      <trkpt lat="44.08606" lon="2.19406">
        <ele>338.04</ele>
        <time>2014-03-18T08:14:00Z</time>
      </trkpt>
      <trkpt lat="44.08607" lon="2.19384">
        <ele>336.6</ele>
        <time>2014-03-18T08:14:14Z</time>
      </trkpt>
      <trkpt lat="44.08608" lon="2.19357">
        <ele>337.08</ele>
        <time>2014-03-18T08:14:30Z</time>
      </trkpt>
      <trkpt lat="44.08608" lon="2.19348">
        <ele>338.04</ele>
        <time>2014-03-18T08:14:35Z</time>
      </trkpt>
      <trkpt lat="44.08611" lon="2.19339">
        <ele>339</ele>
        <time>2014-03-18T08:14:41Z</time>
      </trkpt>
      <trkpt lat="44.08616" lon="2.19311">
        <ele>341.41</ele>
        <time>2014-03-18T08:14:57Z</time>
      </trkpt>
      <trkpt lat="44.08618" lon="2.19295">
        <ele>340.44</ele>
        <time>2014-03-18T08:15:13Z</time>
      </trkpt>
      <trkpt lat="44.08618" lon="2.19293">
        <ele>340.44</ele>
        <time>2014-03-18T08:15:19Z</time>
      </trkpt>
      <trkpt lat="44.08617" lon="2.19264">
        <ele>342.37</ele>
        <time>2014-03-18T08:15:36Z</time>
      </trkpt>
      <trkpt lat="44.08614" lon="2.19235">
        <ele>343.81</ele>
        <time>2014-03-18T08:15:52Z</time>
      </trkpt>
      <trkpt lat="44.08613" lon="2.1923">
        <ele>343.33</ele>
        <time>2014-03-18T08:15:55Z</time>
      </trkpt>
      <trkpt lat="44.08611" lon="2.19227">
        <ele>343.33</ele>
        <time>2014-03-18T08:15:57Z</time>
      </trkpt>
      <trkpt lat="44.08608" lon="2.19219">
        <ele>342.85</ele>
        <time>2014-03-18T08:16:02Z</time>
      </trkpt>
      <trkpt lat="44.08602" lon="2.19208">
        <ele>339.96</ele>
        <time>2014-03-18T08:16:10Z</time>
      </trkpt>
      <trkpt lat="44.08582" lon="2.19197">
        <ele>341.89</ele>
        <time>2014-03-18T08:16:28Z</time>
      </trkpt>
      <trkpt lat="44.08574" lon="2.19201">
        <ele>342.37</ele>
        <time>2014-03-18T08:16:36Z</time>
      </trkpt>
      <trkpt lat="44.08554" lon="2.19214">
        <ele>341.89</ele>
        <time>2014-03-18T08:16:51Z</time>
      </trkpt>
      <trkpt lat="44.08529" lon="2.19217">
        <ele>341.41</ele>
        <time>2014-03-18T08:17:08Z</time>
      </trkpt>
      <trkpt lat="44.08509" lon="2.19209">
        <ele>339.48</ele>
        <time>2014-03-18T08:17:25Z</time>
      </trkpt>
      <trkpt lat="44.08507" lon="2.19207">
        <ele>338.04</ele>
        <time>2014-03-18T08:17:28Z</time>
      </trkpt>
      <trkpt lat="44.08503" lon="2.19205">
        <ele>338.52</ele>
        <time>2014-03-18T08:17:31Z</time>
      </trkpt>
      <trkpt lat="44.08492" lon="2.192">
        <ele>339</ele>
        <time>2014-03-18T08:17:43Z</time>
      </trkpt>
      <trkpt lat="44.08488" lon="2.19199">
        <ele>338.52</ele>
        <time>2014-03-18T08:17:46Z</time>
      </trkpt>
      <trkpt lat="44.08469" lon="2.19187">
        <ele>336.6</ele>
        <time>2014-03-18T08:18:04Z</time>
      </trkpt>
      <trkpt lat="44.08451" lon="2.19172">
        <ele>336.12</ele>
        <time>2014-03-18T08:18:21Z</time>
      </trkpt>
      <trkpt lat="44.0844" lon="2.19156">
        <ele>334.68</ele>
        <time>2014-03-18T08:18:34Z</time>
      </trkpt>
      <trkpt lat="44.08428" lon="2.19133">
        <ele>335.64</ele>
        <time>2014-03-18T08:18:51Z</time>
      </trkpt>
      <trkpt lat="44.08428" lon="2.19101">
        <ele>333.71</ele>
        <time>2014-03-18T08:19:09Z</time>
      </trkpt>
      <trkpt lat="44.08429" lon="2.19094">
        <ele>333.71</ele>
        <time>2014-03-18T08:19:13Z</time>
      </trkpt>
      <trkpt lat="44.08433" lon="2.19066">
        <ele>330.83</ele>
        <time>2014-03-18T08:19:29Z</time>
      </trkpt>
      <trkpt lat="44.08435" lon="2.19055">
        <ele>328.91</ele>
        <time>2014-03-18T08:19:36Z</time>
      </trkpt>
      <trkpt lat="44.08436" lon="2.19046">
        <ele>328.91</ele>
        <time>2014-03-18T08:19:41Z</time>
      </trkpt>
      <trkpt lat="44.08433" lon="2.1902">
        <ele>328.43</ele>
        <time>2014-03-18T08:19:57Z</time>
      </trkpt>
      <trkpt lat="44.08427" lon="2.18999">
        <ele>327.47</ele>
        <time>2014-03-18T08:20:11Z</time>
      </trkpt>
      <trkpt lat="44.08417" lon="2.18971">
        <ele>326.99</ele>
        <time>2014-03-18T08:20:30Z</time>
      </trkpt>
      <trkpt lat="44.08409" lon="2.18946">
        <ele>325.06</ele>
        <time>2014-03-18T08:20:46Z</time>
      </trkpt>
      <trkpt lat="44.08394" lon="2.18925">
        <ele>318.33</ele>
        <time>2014-03-18T08:21:05Z</time>
      </trkpt>
      <trkpt lat="44.08376" lon="2.18919">
        <ele>318.81</ele>
        <time>2014-03-18T08:21:20Z</time>
      </trkpt>
      <trkpt lat="44.08359" lon="2.18915">
        <ele>318.81</ele>
        <time>2014-03-18T08:21:32Z</time>
      </trkpt>
      <trkpt lat="44.08342" lon="2.1891">
        <ele>313.05</ele>
        <time>2014-03-18T08:21:47Z</time>
      </trkpt>
      <trkpt lat="44.08334" lon="2.18909">
        <ele>310.16</ele>
        <time>2014-03-18T08:21:54Z</time>
      </trkpt>
      <trkpt lat="44.08326" lon="2.18911">
        <ele>308.24</ele>
        <time>2014-03-18T08:22:02Z</time>
      </trkpt>
      <trkpt lat="44.08317" lon="2.18929">
        <ele>308.24</ele>
        <time>2014-03-18T08:22:16Z</time>
      </trkpt>
      <trkpt lat="44.08312" lon="2.18954">
        <ele>306.8</ele>
        <time>2014-03-18T08:22:31Z</time>
      </trkpt>
      <trkpt lat="44.08312" lon="2.18959">
        <ele>306.32</ele>
        <time>2014-03-18T08:22:34Z</time>
      </trkpt>
      <trkpt lat="44.08319" lon="2.18985">
        <ele>300.07</ele>
        <time>2014-03-18T08:22:49Z</time>
      </trkpt>
      <trkpt lat="44.08318" lon="2.18997">
        <ele>300.07</ele>
        <time>2014-03-18T08:22:56Z</time>
      </trkpt>
      <trkpt lat="44.08313" lon="2.19014">
        <ele>301.03</ele>
        <time>2014-03-18T08:23:05Z</time>
      </trkpt>
      <trkpt lat="44.08304" lon="2.19034">
        <ele>300.07</ele>
        <time>2014-03-18T08:23:18Z</time>
      </trkpt>
      <trkpt lat="44.08296" lon="2.1905">
        <ele>299.59</ele>
        <time>2014-03-18T08:23:28Z</time>
      </trkpt>
      <trkpt lat="44.08295" lon="2.19054">
        <ele>299.11</ele>
        <time>2014-03-18T08:23:30Z</time>
      </trkpt>
      <trkpt lat="44.08284" lon="2.19076">
        <ele>298.63</ele>
        <time>2014-03-18T08:23:45Z</time>
      </trkpt>
      <trkpt lat="44.08282" lon="2.19082">
        <ele>298.15</ele>
        <time>2014-03-18T08:23:48Z</time>
      </trkpt>
      <trkpt lat="44.08276" lon="2.19099">
        <ele>294.3</ele>
        <time>2014-03-18T08:24:00Z</time>
      </trkpt>
      <trkpt lat="44.08271" lon="2.19106">
        <ele>293.82</ele>
        <time>2014-03-18T08:24:06Z</time>
      </trkpt>
      <trkpt lat="44.0826" lon="2.19116">
        <ele>292.86</ele>
        <time>2014-03-18T08:24:16Z</time>
      </trkpt>
      <trkpt lat="44.08256" lon="2.19127">
        <ele>290.46</ele>
        <time>2014-03-18T08:24:26Z</time>
      </trkpt>
      <trkpt lat="44.08249" lon="2.19144">
        <ele>293.34</ele>
        <time>2014-03-18T08:24:37Z</time>
      </trkpt>
      <trkpt lat="44.08245" lon="2.19154">
        <ele>294.3</ele>
        <time>2014-03-18T08:24:44Z</time>
      </trkpt>
      <trkpt lat="44.08234" lon="2.19173">
        <ele>293.34</ele>
        <time>2014-03-18T08:24:57Z</time>
      </trkpt>
      <trkpt lat="44.08231" lon="2.19176">
        <ele>292.86</ele>
        <time>2014-03-18T08:25:00Z</time>
      </trkpt>
      <trkpt lat="44.0823" lon="2.1918">
        <ele>292.38</ele>
        <time>2014-03-18T08:25:03Z</time>
      </trkpt>
      <trkpt lat="44.08222" lon="2.192">
        <ele>287.09</ele>
        <time>2014-03-18T08:25:17Z</time>
      </trkpt>
      <trkpt lat="44.08218" lon="2.19209">
        <ele>285.17</ele>
        <time>2014-03-18T08:25:31Z</time>
      </trkpt>
      <trkpt lat="44.08216" lon="2.19216">
        <ele>283.25</ele>
        <time>2014-03-18T08:25:42Z</time>
      </trkpt>
      <trkpt lat="44.08212" lon="2.19222">
        <ele>282.77</ele>
        <time>2014-03-18T08:25:55Z</time>
      </trkpt>
      <trkpt lat="44.08212" lon="2.19233">
        <ele>282.77</ele>
        <time>2014-03-18T08:26:05Z</time>
      </trkpt>
      <trkpt lat="44.08211" lon="2.19234">
        <ele>283.25</ele>
        <time>2014-03-18T08:26:06Z</time>
      </trkpt>
      <trkpt lat="44.08201" lon="2.19258">
        <ele>286.61</ele>
        <time>2014-03-18T08:26:18Z</time>
      </trkpt>
      <trkpt lat="44.08196" lon="2.19279">
        <ele>283.25</ele>
        <time>2014-03-18T08:26:31Z</time>
      </trkpt>
      <trkpt lat="44.08194" lon="2.19293">
        <ele>280.84</ele>
        <time>2014-03-18T08:26:41Z</time>
      </trkpt>
      <trkpt lat="44.08194" lon="2.19295">
        <ele>280.84</ele>
        <time>2014-03-18T08:26:42Z</time>
      </trkpt>
      <trkpt lat="44.08202" lon="2.19307">
        <ele>284.69</ele>
        <time>2014-03-18T08:26:54Z</time>
      </trkpt>
      <trkpt lat="44.08207" lon="2.19309">
        <ele>285.17</ele>
        <time>2014-03-18T08:27:00Z</time>
      </trkpt>
      <trkpt lat="44.08219" lon="2.1931">
        <ele>286.61</ele>
        <time>2014-03-18T08:27:11Z</time>
      </trkpt>
      <trkpt lat="44.08228" lon="2.19311">
        <ele>288.05</ele>
        <time>2014-03-18T08:27:17Z</time>
      </trkpt>
      <trkpt lat="44.08233" lon="2.19313">
        <ele>288.05</ele>
        <time>2014-03-18T08:27:22Z</time>
      </trkpt>
      <trkpt lat="44.0824" lon="2.19321">
        <ele>288.05</ele>
        <time>2014-03-18T08:27:34Z</time>
      </trkpt>
      <trkpt lat="44.08249" lon="2.19328">
        <ele>289.97</ele>
        <time>2014-03-18T08:27:43Z</time>
      </trkpt>
      <trkpt lat="44.08257" lon="2.19333">
        <ele>290.46</ele>
        <time>2014-03-18T08:27:54Z</time>
      </trkpt>
      <trkpt lat="44.08264" lon="2.19338">
        <ele>291.42</ele>
        <time>2014-03-18T08:28:06Z</time>
      </trkpt>
      <trkpt lat="44.08269" lon="2.19347">
        <ele>290.94</ele>
        <time>2014-03-18T08:28:17Z</time>
      </trkpt>
      <trkpt lat="44.08281" lon="2.1936">
        <ele>293.34</ele>
        <time>2014-03-18T08:28:26Z</time>
      </trkpt>
      <trkpt lat="44.08293" lon="2.19372">
        <ele>295.26</ele>
        <time>2014-03-18T08:28:37Z</time>
      </trkpt>
      <trkpt lat="44.08303" lon="2.19385">
        <ele>299.11</ele>
        <time>2014-03-18T08:28:49Z</time>
      </trkpt>
      <trkpt lat="44.0831" lon="2.194">
        <ele>300.55</ele>
        <time>2014-03-18T08:29:02Z</time>
      </trkpt>
      <trkpt lat="44.08309" lon="2.19412">
        <ele>297.18</ele>
        <time>2014-03-18T08:29:14Z</time>
      </trkpt>
      <trkpt lat="44.08301" lon="2.19415">
        <ele>295.74</ele>
        <time>2014-03-18T08:29:21Z</time>
      </trkpt>
      <trkpt lat="44.08287" lon="2.19409">
        <ele>299.59</ele>
        <time>2014-03-18T08:29:34Z</time>
      </trkpt>
      <trkpt lat="44.08284" lon="2.19407">
        <ele>301.03</ele>
        <time>2014-03-18T08:29:38Z</time>
      </trkpt>
      <trkpt lat="44.08278" lon="2.19403">
        <ele>302.95</ele>
        <time>2014-03-18T08:29:43Z</time>
      </trkpt>
      <trkpt lat="44.08273" lon="2.194">
        <ele>304.39</ele>
        <time>2014-03-18T08:29:47Z</time>
      </trkpt>
      <trkpt lat="44.0827" lon="2.19399">
        <ele>305.36</ele>
        <time>2014-03-18T08:29:50Z</time>
      </trkpt>
      <trkpt lat="44.08262" lon="2.19396">
        <ele>306.8</ele>
        <time>2014-03-18T08:29:57Z</time>
      </trkpt>
      <trkpt lat="44.08248" lon="2.19392">
        <ele>310.16</ele>
        <time>2014-03-18T08:30:09Z</time>
      </trkpt>
      <trkpt lat="44.08246" lon="2.19392">
        <ele>310.64</ele>
        <time>2014-03-18T08:30:13Z</time>
      </trkpt>
      <trkpt lat="44.08237" lon="2.19391">
        <ele>312.57</ele>
        <time>2014-03-18T08:30:23Z</time>
      </trkpt>
      <trkpt lat="44.08226" lon="2.1939">
        <ele>314.01</ele>
        <time>2014-03-18T08:30:34Z</time>
      </trkpt>
      <trkpt lat="44.08214" lon="2.19391">
        <ele>314.97</ele>
        <time>2014-03-18T08:30:45Z</time>
      </trkpt>
      <trkpt lat="44.08208" lon="2.19391">
        <ele>314.49</ele>
        <time>2014-03-18T08:30:51Z</time>
      </trkpt>
      <trkpt lat="44.08199" lon="2.1939">
        <ele>315.45</ele>
        <time>2014-03-18T08:30:58Z</time>
      </trkpt>
      <trkpt lat="44.08189" lon="2.19396">
        <ele>316.89</ele>
        <time>2014-03-18T08:31:11Z</time>
      </trkpt>
      <trkpt lat="44.082" lon="2.19404">
        <ele>319.3</ele>
        <time>2014-03-18T08:31:26Z</time>
      </trkpt>
      <trkpt lat="44.08204" lon="2.19408">
        <ele>319.78</ele>
        <time>2014-03-18T08:31:32Z</time>
      </trkpt>
      <trkpt lat="44.0821" lon="2.19416">
        <ele>321.7</ele>
        <time>2014-03-18T08:31:39Z</time>
      </trkpt>
      <trkpt lat="44.08209" lon="2.19426">
        <ele>322.18</ele>
        <time>2014-03-18T08:31:46Z</time>
      </trkpt>
      <trkpt lat="44.08201" lon="2.19437">
        <ele>324.58</ele>
        <time>2014-03-18T08:31:56Z</time>
      </trkpt>
      <trkpt lat="44.08187" lon="2.1945">
        <ele>328.43</ele>
        <time>2014-03-18T08:32:12Z</time>
      </trkpt>
      <trkpt lat="44.08174" lon="2.19462">
        <ele>329.39</ele>
        <time>2014-03-18T08:32:26Z</time>
      </trkpt>
      <trkpt lat="44.08159" lon="2.19475">
        <ele>327.95</ele>
        <time>2014-03-18T08:32:45Z</time>
      </trkpt>
      <trkpt lat="44.08158" lon="2.19476">
        <ele>327.95</ele>
        <time>2014-03-18T08:32:46Z</time>
      </trkpt>
      <trkpt lat="44.08142" lon="2.19492">
        <ele>328.91</ele>
        <time>2014-03-18T08:33:04Z</time>
      </trkpt>
      <trkpt lat="44.0813" lon="2.19506">
        <ele>330.35</ele>
        <time>2014-03-18T08:33:20Z</time>
      </trkpt>
      <trkpt lat="44.08129" lon="2.19506">
        <ele>331.79</ele>
        <time>2014-03-18T08:33:34Z</time>
      </trkpt>
      <trkpt lat="44.08123" lon="2.19512">
        <ele>331.79</ele>
        <time>2014-03-18T08:33:52Z</time>
      </trkpt>
      <trkpt lat="44.0812" lon="2.19522">
        <ele>329.39</ele>
        <time>2014-03-18T08:34:01Z</time>
      </trkpt>
      <trkpt lat="44.08121" lon="2.19534">
        <ele>328.91</ele>
        <time>2014-03-18T08:34:09Z</time>
      </trkpt>
      <trkpt lat="44.08117" lon="2.19536">
        <ele>329.39</ele>
        <time>2014-03-18T08:34:14Z</time>
      </trkpt>
      <trkpt lat="44.08108" lon="2.19538">
        <ele>330.35</ele>
        <time>2014-03-18T08:34:26Z</time>
      </trkpt>
      <trkpt lat="44.08104" lon="2.19544">
        <ele>331.79</ele>
        <time>2014-03-18T08:34:37Z</time>
      </trkpt>
      <trkpt lat="44.08101" lon="2.19543">
        <ele>332.27</ele>
        <time>2014-03-18T08:34:54Z</time>
      </trkpt>
      <trkpt lat="44.08099" lon="2.19543">
        <ele>333.71</ele>
        <time>2014-03-18T08:35:06Z</time>
      </trkpt>
      <trkpt lat="44.08094" lon="2.19541">
        <ele>333.71</ele>
        <time>2014-03-18T08:35:13Z</time>
      </trkpt>
      <trkpt lat="44.08076" lon="2.1954">
        <ele>333.71</ele>
        <time>2014-03-18T08:35:28Z</time>
      </trkpt>
      <trkpt lat="44.08061" lon="2.19539">
        <ele>333.71</ele>
        <time>2014-03-18T08:35:43Z</time>
      </trkpt>
      <trkpt lat="44.0806" lon="2.19538">
        <ele>333.23</ele>
        <time>2014-03-18T08:35:45Z</time>
      </trkpt>
      <trkpt lat="44.08041" lon="2.19546">
        <ele>335.16</ele>
        <time>2014-03-18T08:36:01Z</time>
      </trkpt>
      <trkpt lat="44.08025" lon="2.19559">
        <ele>335.16</ele>
        <time>2014-03-18T08:36:17Z</time>
      </trkpt>
      <trkpt lat="44.08021" lon="2.19563">
        <ele>335.64</ele>
        <time>2014-03-18T08:36:21Z</time>
      </trkpt>
      <trkpt lat="44.08007" lon="2.19576">
        <ele>335.64</ele>
        <time>2014-03-18T08:36:36Z</time>
      </trkpt>
      <trkpt lat="44.07993" lon="2.19591">
        <ele>336.12</ele>
        <time>2014-03-18T08:36:52Z</time>
      </trkpt>
      <trkpt lat="44.07981" lon="2.19607">
        <ele>337.56</ele>
        <time>2014-03-18T08:37:06Z</time>
      </trkpt>
      <trkpt lat="44.07964" lon="2.19626">
        <ele>339.96</ele>
        <time>2014-03-18T08:37:25Z</time>
      </trkpt>
      <trkpt lat="44.07947" lon="2.19641">
        <ele>339.96</ele>
        <time>2014-03-18T08:37:42Z</time>
      </trkpt>
      <trkpt lat="44.07934" lon="2.19654">
        <ele>339</ele>
        <time>2014-03-18T08:37:55Z</time>
      </trkpt>
      <trkpt lat="44.07915" lon="2.1967">
        <ele>340.44</ele>
        <time>2014-03-18T08:38:13Z</time>
      </trkpt>
      <trkpt lat="44.07913" lon="2.19672">
        <ele>339.96</ele>
        <time>2014-03-18T08:38:15Z</time>
      </trkpt>
      <trkpt lat="44.07897" lon="2.19685">
        <ele>341.41</ele>
        <time>2014-03-18T08:38:31Z</time>
      </trkpt>
      <trkpt lat="44.07885" lon="2.19697">
        <ele>339.48</ele>
        <time>2014-03-18T08:38:44Z</time>
      </trkpt>
      <trkpt lat="44.07871" lon="2.19708">
        <ele>338.04</ele>
        <time>2014-03-18T08:38:58Z</time>
      </trkpt>
      <trkpt lat="44.0786" lon="2.19717">
        <ele>338.52</ele>
        <time>2014-03-18T08:39:08Z</time>
      </trkpt>
      <trkpt lat="44.07848" lon="2.19734">
        <ele>337.56</ele>
        <time>2014-03-18T08:39:25Z</time>
      </trkpt>
      <trkpt lat="44.07842" lon="2.19742">
        <ele>338.52</ele>
        <time>2014-03-18T08:39:32Z</time>
      </trkpt>
      <trkpt lat="44.07838" lon="2.19746">
        <ele>338.04</ele>
        <time>2014-03-18T08:39:36Z</time>
      </trkpt>
      <trkpt lat="44.07824" lon="2.19763">
        <ele>337.08</ele>
        <time>2014-03-18T08:39:51Z</time>
      </trkpt>
      <trkpt lat="44.07811" lon="2.19783">
        <ele>338.04</ele>
        <time>2014-03-18T08:40:07Z</time>
      </trkpt>
      <trkpt lat="44.07802" lon="2.19796">
        <ele>336.6</ele>
        <time>2014-03-18T08:40:19Z</time>
      </trkpt>
      <trkpt lat="44.07789" lon="2.19812">
        <ele>338.04</ele>
        <time>2014-03-18T08:40:33Z</time>
      </trkpt>
      <trkpt lat="44.0778" lon="2.19824">
        <ele>339</ele>
        <time>2014-03-18T08:40:44Z</time>
      </trkpt>
      <trkpt lat="44.07767" lon="2.19839">
        <ele>339</ele>
        <time>2014-03-18T08:40:59Z</time>
      </trkpt>
      <trkpt lat="44.07757" lon="2.1985">
        <ele>339</ele>
        <time>2014-03-18T08:41:09Z</time>
      </trkpt>
      <trkpt lat="44.07743" lon="2.1986">
        <ele>336.12</ele>
        <time>2014-03-18T08:41:23Z</time>
      </trkpt>
      <trkpt lat="44.0773" lon="2.1987">
        <ele>336.6</ele>
        <time>2014-03-18T08:41:40Z</time>
      </trkpt>
      <trkpt lat="44.07728" lon="2.19869">
        <ele>339.48</ele>
        <time>2014-03-18T08:41:56Z</time>
      </trkpt>
      <trkpt lat="44.07719" lon="2.19873">
        <ele>341.41</ele>
        <time>2014-03-18T08:42:09Z</time>
      </trkpt>
      <trkpt lat="44.07717" lon="2.19872">
        <ele>341.89</ele>
        <time>2014-03-18T08:42:11Z</time>
      </trkpt>
      <trkpt lat="44.07713" lon="2.19865">
        <ele>343.81</ele>
        <time>2014-03-18T08:42:16Z</time>
      </trkpt>
      <trkpt lat="44.07708" lon="2.19839">
        <ele>344.29</ele>
        <time>2014-03-18T08:42:32Z</time>
      </trkpt>
      <trkpt lat="44.07705" lon="2.19823">
        <ele>344.77</ele>
        <time>2014-03-18T08:42:44Z</time>
      </trkpt>
      <trkpt lat="44.07704" lon="2.19816">
        <ele>344.77</ele>
        <time>2014-03-18T08:42:48Z</time>
      </trkpt>
      <trkpt lat="44.077" lon="2.19787">
        <ele>345.73</ele>
        <time>2014-03-18T08:43:05Z</time>
      </trkpt>
      <trkpt lat="44.077" lon="2.1978">
        <ele>345.25</ele>
        <time>2014-03-18T08:43:10Z</time>
      </trkpt>
      <trkpt lat="44.07696" lon="2.19758">
        <ele>345.25</ele>
        <time>2014-03-18T08:43:24Z</time>
      </trkpt>
      <trkpt lat="44.07692" lon="2.19733">
        <ele>344.29</ele>
        <time>2014-03-18T08:43:40Z</time>
      </trkpt>
      <trkpt lat="44.07688" lon="2.19708">
        <ele>344.29</ele>
        <time>2014-03-18T08:43:53Z</time>
      </trkpt>
      <trkpt lat="44.07686" lon="2.19684">
        <ele>343.81</ele>
        <time>2014-03-18T08:44:07Z</time>
      </trkpt>
      <trkpt lat="44.07687" lon="2.1968">
        <ele>343.81</ele>
        <time>2014-03-18T08:44:10Z</time>
      </trkpt>
      <trkpt lat="44.07686" lon="2.19673">
        <ele>343.81</ele>
        <time>2014-03-18T08:44:14Z</time>
      </trkpt>
      <trkpt lat="44.07684" lon="2.19645">
        <ele>345.25</ele>
        <time>2014-03-18T08:44:30Z</time>
      </trkpt>
      <trkpt lat="44.07685" lon="2.19625">
        <ele>344.29</ele>
        <time>2014-03-18T08:44:42Z</time>
      </trkpt>
      <trkpt lat="44.07687" lon="2.19599">
        <ele>343.81</ele>
        <time>2014-03-18T08:44:57Z</time>
      </trkpt>
      <trkpt lat="44.07688" lon="2.19593">
        <ele>344.29</ele>
        <time>2014-03-18T08:45:02Z</time>
      </trkpt>
      <trkpt lat="44.07688" lon="2.19588">
        <ele>344.29</ele>
        <time>2014-03-18T08:45:06Z</time>
      </trkpt>
      <trkpt lat="44.07689" lon="2.19579">
        <ele>344.29</ele>
        <time>2014-03-18T08:45:11Z</time>
      </trkpt>
      <trkpt lat="44.07687" lon="2.19571">
        <ele>343.81</ele>
        <time>2014-03-18T08:45:15Z</time>
      </trkpt>
      <trkpt lat="44.07687" lon="2.1955">
        <ele>345.25</ele>
        <time>2014-03-18T08:45:28Z</time>
      </trkpt>
      <trkpt lat="44.07685" lon="2.19547">
        <ele>342.85</ele>
        <time>2014-03-18T08:45:38Z</time>
      </trkpt>
      <trkpt lat="44.07685" lon="2.19536">
        <ele>343.33</ele>
        <time>2014-03-18T08:45:45Z</time>
      </trkpt>
      <trkpt lat="44.07685" lon="2.19522">
        <ele>343.81</ele>
        <time>2014-03-18T08:45:59Z</time>
      </trkpt>
      <trkpt lat="44.07686" lon="2.1952">
        <ele>343.33</ele>
        <time>2014-03-18T08:46:12Z</time>
      </trkpt>
      <trkpt lat="44.07685" lon="2.19518">
        <ele>342.85</ele>
        <time>2014-03-18T08:46:15Z</time>
      </trkpt>
      <trkpt lat="44.07682" lon="2.19513">
        <ele>342.37</ele>
        <time>2014-03-18T08:46:19Z</time>
      </trkpt>
      <trkpt lat="44.07681" lon="2.19504">
        <ele>342.37</ele>
        <time>2014-03-18T08:46:25Z</time>
      </trkpt>
      <trkpt lat="44.07682" lon="2.19479">
        <ele>340.44</ele>
        <time>2014-03-18T08:46:40Z</time>
      </trkpt>
      <trkpt lat="44.07682" lon="2.19451">
        <ele>340.44</ele>
        <time>2014-03-18T08:46:56Z</time>
      </trkpt>
      <trkpt lat="44.07684" lon="2.19419">
        <ele>340.92</ele>
        <time>2014-03-18T08:47:16Z</time>
      </trkpt>
      <trkpt lat="44.07684" lon="2.19394">
        <ele>341.89</ele>
        <time>2014-03-18T08:47:31Z</time>
      </trkpt>
      <trkpt lat="44.07687" lon="2.19368">
        <ele>342.37</ele>
        <time>2014-03-18T08:47:46Z</time>
      </trkpt>
      <trkpt lat="44.07688" lon="2.19365">
        <ele>341.89</ele>
        <time>2014-03-18T08:47:48Z</time>
      </trkpt>
      <trkpt lat="44.07688" lon="2.19343">
        <ele>340.44</ele>
        <time>2014-03-18T08:48:03Z</time>
      </trkpt>
      <trkpt lat="44.07683" lon="2.19339">
        <ele>340.44</ele>
        <time>2014-03-18T08:48:09Z</time>
      </trkpt>
      <trkpt lat="44.07663" lon="2.19337">
        <ele>337.56</ele>
        <time>2014-03-18T08:48:26Z</time>
      </trkpt>
      <trkpt lat="44.07646" lon="2.19332">
        <ele>334.2</ele>
        <time>2014-03-18T08:48:41Z</time>
      </trkpt>
      <trkpt lat="44.07643" lon="2.19331">
        <ele>334.68</ele>
        <time>2014-03-18T08:48:44Z</time>
      </trkpt>
      <trkpt lat="44.07623" lon="2.19322">
        <ele>336.12</ele>
        <time>2014-03-18T08:49:00Z</time>
      </trkpt>
      <trkpt lat="44.0761" lon="2.19319">
        <ele>335.64</ele>
        <time>2014-03-18T08:49:12Z</time>
      </trkpt>
      <trkpt lat="44.07591" lon="2.19311">
        <ele>336.6</ele>
        <time>2014-03-18T08:49:28Z</time>
      </trkpt>
      <trkpt lat="44.07575" lon="2.19304">
        <ele>336.6</ele>
        <time>2014-03-18T08:49:42Z</time>
      </trkpt>
      <trkpt lat="44.07558" lon="2.19296">
        <ele>337.08</ele>
        <time>2014-03-18T08:49:57Z</time>
      </trkpt>
      <trkpt lat="44.07557" lon="2.19296">
        <ele>337.08</ele>
        <time>2014-03-18T08:49:58Z</time>
      </trkpt>
      <trkpt lat="44.07541" lon="2.19288">
        <ele>337.08</ele>
        <time>2014-03-18T08:50:13Z</time>
      </trkpt>
      <trkpt lat="44.07522" lon="2.19276">
        <ele>338.52</ele>
        <time>2014-03-18T08:50:30Z</time>
      </trkpt>
      <trkpt lat="44.07503" lon="2.19266">
        <ele>338.04</ele>
        <time>2014-03-18T08:50:46Z</time>
      </trkpt>
      <trkpt lat="44.07484" lon="2.19257">
        <ele>336.6</ele>
        <time>2014-03-18T08:51:02Z</time>
      </trkpt>
      <trkpt lat="44.07467" lon="2.19254">
        <ele>335.64</ele>
        <time>2014-03-18T08:51:17Z</time>
      </trkpt>
      <trkpt lat="44.07446" lon="2.19249">
        <ele>334.68</ele>
        <time>2014-03-18T08:51:33Z</time>
      </trkpt>
      <trkpt lat="44.07427" lon="2.19247">
        <ele>333.23</ele>
        <time>2014-03-18T08:51:49Z</time>
      </trkpt>
      <trkpt lat="44.07407" lon="2.19247">
        <ele>331.31</ele>
        <time>2014-03-18T08:52:04Z</time>
      </trkpt>
      <trkpt lat="44.07393" lon="2.19246">
        <ele>330.83</ele>
        <time>2014-03-18T08:52:18Z</time>
      </trkpt>
      <trkpt lat="44.07376" lon="2.19247">
        <ele>329.87</ele>
        <time>2014-03-18T08:52:33Z</time>
      </trkpt>
      <trkpt lat="44.07357" lon="2.19245">
        <ele>327.95</ele>
        <time>2014-03-18T08:52:51Z</time>
      </trkpt>
      <trkpt lat="44.07334" lon="2.19243">
        <ele>328.43</ele>
        <time>2014-03-18T08:53:08Z</time>
      </trkpt>
      <trkpt lat="44.07316" lon="2.19242">
        <ele>327.47</ele>
        <time>2014-03-18T08:53:23Z</time>
      </trkpt>
      <trkpt lat="44.07298" lon="2.19241">
        <ele>324.58</ele>
        <time>2014-03-18T08:53:38Z</time>
      </trkpt>
      <trkpt lat="44.07282" lon="2.19239">
        <ele>322.66</ele>
        <time>2014-03-18T08:53:53Z</time>
      </trkpt>
      <trkpt lat="44.07262" lon="2.19245">
        <ele>326.02</ele>
        <time>2014-03-18T08:54:08Z</time>
      </trkpt>
      <trkpt lat="44.07258" lon="2.19247">
        <ele>326.02</ele>
        <time>2014-03-18T08:54:12Z</time>
      </trkpt>
      <trkpt lat="44.07255" lon="2.19248">
        <ele>326.5</ele>
        <time>2014-03-18T08:54:14Z</time>
      </trkpt>
      <trkpt lat="44.07251" lon="2.1925">
        <ele>326.99</ele>
        <time>2014-03-18T08:54:18Z</time>
      </trkpt>
      <trkpt lat="44.0723" lon="2.1926">
        <ele>327.95</ele>
        <time>2014-03-18T08:54:34Z</time>
      </trkpt>
      <trkpt lat="44.07216" lon="2.19266">
        <ele>326.5</ele>
        <time>2014-03-18T08:54:48Z</time>
      </trkpt>
      <trkpt lat="44.07199" lon="2.19271">
        <ele>325.54</ele>
        <time>2014-03-18T08:55:03Z</time>
      </trkpt>
      <trkpt lat="44.07195" lon="2.19273">
        <ele>325.06</ele>
        <time>2014-03-18T08:55:07Z</time>
      </trkpt>
      <trkpt lat="44.07185" lon="2.19276">
        <ele>323.62</ele>
        <time>2014-03-18T08:55:16Z</time>
      </trkpt>
      <trkpt lat="44.07174" lon="2.19279">
        <ele>321.7</ele>
        <time>2014-03-18T08:55:25Z</time>
      </trkpt>
      <trkpt lat="44.07158" lon="2.19283">
        <ele>318.33</ele>
        <time>2014-03-18T08:55:39Z</time>
      </trkpt>
      <trkpt lat="44.07139" lon="2.1929">
        <ele>316.41</ele>
        <time>2014-03-18T08:55:55Z</time>
      </trkpt>
      <trkpt lat="44.07122" lon="2.19295">
        <ele>315.93</ele>
        <time>2014-03-18T08:56:10Z</time>
      </trkpt>
      <trkpt lat="44.07114" lon="2.19298">
        <ele>316.41</ele>
        <time>2014-03-18T08:56:16Z</time>
      </trkpt>
      <trkpt lat="44.07111" lon="2.19298">
        <ele>316.41</ele>
        <time>2014-03-18T08:56:18Z</time>
      </trkpt>
      <trkpt lat="44.07092" lon="2.19302">
        <ele>316.89</ele>
        <time>2014-03-18T08:56:34Z</time>
      </trkpt>
      <trkpt lat="44.07088" lon="2.19302">
        <ele>316.89</ele>
        <time>2014-03-18T08:56:37Z</time>
      </trkpt>
      <trkpt lat="44.07081" lon="2.19301">
        <ele>316.89</ele>
        <time>2014-03-18T08:56:42Z</time>
      </trkpt>
      <trkpt lat="44.07065" lon="2.19295">
        <ele>315.45</ele>
        <time>2014-03-18T08:56:55Z</time>
      </trkpt>
      <trkpt lat="44.0705" lon="2.19291">
        <ele>314.01</ele>
        <time>2014-03-18T08:57:08Z</time>
      </trkpt>
      <trkpt lat="44.07033" lon="2.19284">
        <ele>312.09</ele>
        <time>2014-03-18T08:57:23Z</time>
      </trkpt>
      <trkpt lat="44.07016" lon="2.19279">
        <ele>311.6</ele>
        <time>2014-03-18T08:57:37Z</time>
      </trkpt>
      <trkpt lat="44.07001" lon="2.1927">
        <ele>310.64</ele>
        <time>2014-03-18T08:57:51Z</time>
      </trkpt>
      <trkpt lat="44.06987" lon="2.1926">
        <ele>307.28</ele>
        <time>2014-03-18T08:58:06Z</time>
      </trkpt>
      <trkpt lat="44.0698" lon="2.19256">
        <ele>305.84</ele>
        <time>2014-03-18T08:58:14Z</time>
      </trkpt>
      <trkpt lat="44.06963" lon="2.19251">
        <ele>301.99</ele>
        <time>2014-03-18T08:58:29Z</time>
      </trkpt>
      <trkpt lat="44.0696" lon="2.1925">
        <ele>301.51</ele>
        <time>2014-03-18T08:58:31Z</time>
      </trkpt>
      <trkpt lat="44.06956" lon="2.19249">
        <ele>301.51</ele>
        <time>2014-03-18T08:58:34Z</time>
      </trkpt>
      <trkpt lat="44.06941" lon="2.19244">
        <ele>297.67</ele>
        <time>2014-03-18T08:58:48Z</time>
      </trkpt>
      <trkpt lat="44.06931" lon="2.19241">
        <ele>294.78</ele>
        <time>2014-03-18T08:58:58Z</time>
      </trkpt>
      <trkpt lat="44.06929" lon="2.1924">
        <ele>293.82</ele>
        <time>2014-03-18T08:59:00Z</time>
      </trkpt>
      <trkpt lat="44.06913" lon="2.19225">
        <ele>289.97</ele>
        <time>2014-03-18T08:59:16Z</time>
      </trkpt>
      <trkpt lat="44.06902" lon="2.19201">
        <ele>289.01</ele>
        <time>2014-03-18T08:59:33Z</time>
      </trkpt>
      <trkpt lat="44.06894" lon="2.1918">
        <ele>285.17</ele>
        <time>2014-03-18T08:59:48Z</time>
      </trkpt>
      <trkpt lat="44.06883" lon="2.19163">
        <ele>282.77</ele>
        <time>2014-03-18T09:00:03Z</time>
      </trkpt>
      <trkpt lat="44.06872" lon="2.19145">
        <ele>276.52</ele>
        <time>2014-03-18T09:00:18Z</time>
      </trkpt>
      <trkpt lat="44.06859" lon="2.19127">
        <ele>272.67</ele>
        <time>2014-03-18T09:00:34Z</time>
      </trkpt>
      <trkpt lat="44.06846" lon="2.19113">
        <ele>272.67</ele>
        <time>2014-03-18T09:00:48Z</time>
      </trkpt>
      <trkpt lat="44.06834" lon="2.19105">
        <ele>272.67</ele>
        <time>2014-03-18T09:00:59Z</time>
      </trkpt>
      <trkpt lat="44.06825" lon="2.19101">
        <ele>271.23</ele>
        <time>2014-03-18T09:01:11Z</time>
      </trkpt>
      <trkpt lat="44.06819" lon="2.19095">
        <ele>271.23</ele>
        <time>2014-03-18T09:01:23Z</time>
      </trkpt>
      <trkpt lat="44.06817" lon="2.19095">
        <ele>271.71</ele>
        <time>2014-03-18T09:01:25Z</time>
      </trkpt>
      <trkpt lat="44.06814" lon="2.191">
        <ele>271.71</ele>
        <time>2014-03-18T09:01:35Z</time>
      </trkpt>
      <trkpt lat="44.06814" lon="2.19108">
        <ele>269.31</ele>
        <time>2014-03-18T09:01:46Z</time>
      </trkpt>
      <trkpt lat="44.06814" lon="2.19112">
        <ele>268.35</ele>
        <time>2014-03-18T09:01:51Z</time>
      </trkpt>
      <trkpt lat="44.0681" lon="2.19121">
        <ele>265.46</ele>
        <time>2014-03-18T09:02:03Z</time>
      </trkpt>
      <trkpt lat="44.06803" lon="2.19125">
        <ele>264.5</ele>
        <time>2014-03-18T09:02:12Z</time>
      </trkpt>
      <trkpt lat="44.06795" lon="2.19126">
        <ele>264.98</ele>
        <time>2014-03-18T09:02:18Z</time>
      </trkpt>
      <trkpt lat="44.06791" lon="2.19126">
        <ele>265.94</ele>
        <time>2014-03-18T09:02:21Z</time>
      </trkpt>
      <trkpt lat="44.06777" lon="2.19128">
        <ele>268.83</ele>
        <time>2014-03-18T09:02:33Z</time>
      </trkpt>
      <trkpt lat="44.06761" lon="2.1913">
        <ele>271.23</ele>
        <time>2014-03-18T09:02:47Z</time>
      </trkpt>
      <trkpt lat="44.06749" lon="2.19133">
        <ele>272.19</ele>
        <time>2014-03-18T09:02:58Z</time>
      </trkpt>
      <trkpt lat="44.06746" lon="2.19133">
        <ele>272.67</ele>
        <time>2014-03-18T09:03:00Z</time>
      </trkpt>
      <trkpt lat="44.06735" lon="2.19128">
        <ele>272.19</ele>
        <time>2014-03-18T09:03:14Z</time>
      </trkpt>
      <trkpt lat="44.06735" lon="2.19128">
        <ele>272.19</ele>
        <time>2014-03-18T09:03:44Z</time>
      </trkpt>
      <trkpt lat="44.06734" lon="2.19128">
        <ele>273.15</ele>
        <time>2014-03-18T09:04:05Z</time>
      </trkpt>
      <trkpt lat="44.06734" lon="2.19128">
        <ele>274.59</ele>
        <time>2014-03-18T09:04:31Z</time>
      </trkpt>
      <trkpt lat="44.06734" lon="2.19128">
        <ele>274.59</ele>
        <time>2014-03-18T09:04:56Z</time>
      </trkpt>
      <trkpt lat="44.06735" lon="2.19129">
        <ele>273.63</ele>
        <time>2014-03-18T09:05:27Z</time>
      </trkpt>
      <trkpt lat="44.06736" lon="2.19128">
        <ele>272.19</ele>
        <time>2014-03-18T09:05:58Z</time>
      </trkpt>
      <trkpt lat="44.06736" lon="2.19128">
        <ele>273.15</ele>
        <time>2014-03-18T09:06:24Z</time>
      </trkpt>
      <trkpt lat="44.06734" lon="2.19129">
        <ele>273.15</ele>
        <time>2014-03-18T09:06:38Z</time>
      </trkpt>
      <trkpt lat="44.06734" lon="2.1913">
        <ele>274.11</ele>
        <time>2014-03-18T09:06:58Z</time>
      </trkpt>
      <trkpt lat="44.06726" lon="2.19134">
        <ele>275.07</ele>
        <time>2014-03-18T09:07:10Z</time>
      </trkpt>
      <trkpt lat="44.06723" lon="2.19136">
        <ele>276.52</ele>
        <time>2014-03-18T09:07:23Z</time>
      </trkpt>
      <trkpt lat="44.06722" lon="2.19135">
        <ele>277.48</ele>
        <time>2014-03-18T09:07:41Z</time>
      </trkpt>
      <trkpt lat="44.06721" lon="2.19135">
        <ele>278.44</ele>
        <time>2014-03-18T09:07:59Z</time>
      </trkpt>
      <trkpt lat="44.06713" lon="2.19134">
        <ele>277.48</ele>
        <time>2014-03-18T09:08:09Z</time>
      </trkpt>
      <trkpt lat="44.06706" lon="2.19134">
        <ele>277.96</ele>
        <time>2014-03-18T09:08:16Z</time>
      </trkpt>
      <trkpt lat="44.06703" lon="2.19134">
        <ele>277.96</ele>
        <time>2014-03-18T09:08:19Z</time>
      </trkpt>
      <trkpt lat="44.0669" lon="2.19133">
        <ele>280.36</ele>
        <time>2014-03-18T09:08:34Z</time>
      </trkpt>
      <trkpt lat="44.06689" lon="2.19133">
        <ele>280.36</ele>
        <time>2014-03-18T09:08:36Z</time>
      </trkpt>
      <trkpt lat="44.06679" lon="2.19132">
        <ele>284.21</ele>
        <time>2014-03-18T09:08:49Z</time>
      </trkpt>
      <trkpt lat="44.0667" lon="2.19127">
        <ele>286.61</ele>
        <time>2014-03-18T09:09:01Z</time>
      </trkpt>
      <trkpt lat="44.06661" lon="2.19121">
        <ele>287.09</ele>
        <time>2014-03-18T09:09:14Z</time>
      </trkpt>
      <trkpt lat="44.06649" lon="2.19109">
        <ele>288.53</ele>
        <time>2014-03-18T09:09:27Z</time>
      </trkpt>
      <trkpt lat="44.06641" lon="2.19098">
        <ele>288.53</ele>
        <time>2014-03-18T09:09:41Z</time>
      </trkpt>
      <trkpt lat="44.0664" lon="2.19097">
        <ele>288.53</ele>
        <time>2014-03-18T09:09:42Z</time>
      </trkpt>
      <trkpt lat="44.06632" lon="2.19091">
        <ele>288.53</ele>
        <time>2014-03-18T09:09:55Z</time>
      </trkpt>
      <trkpt lat="44.06624" lon="2.19093">
        <ele>288.53</ele>
        <time>2014-03-18T09:10:06Z</time>
      </trkpt>
      <trkpt lat="44.06614" lon="2.19099">
        <ele>289.49</ele>
        <time>2014-03-18T09:10:19Z</time>
      </trkpt>
      <trkpt lat="44.06607" lon="2.19103">
        <ele>289.97</ele>
        <time>2014-03-18T09:10:29Z</time>
      </trkpt>
      <trkpt lat="44.066" lon="2.19108">
        <ele>291.42</ele>
        <time>2014-03-18T09:10:39Z</time>
      </trkpt>
      <trkpt lat="44.06595" lon="2.19113">
        <ele>291.9</ele>
        <time>2014-03-18T09:10:46Z</time>
      </trkpt>
      <trkpt lat="44.06586" lon="2.19123">
        <ele>292.38</ele>
        <time>2014-03-18T09:11:00Z</time>
      </trkpt>
      <trkpt lat="44.06577" lon="2.19138">
        <ele>294.3</ele>
        <time>2014-03-18T09:11:14Z</time>
      </trkpt>
      <trkpt lat="44.06575" lon="2.19143">
        <ele>295.26</ele>
        <time>2014-03-18T09:11:18Z</time>
      </trkpt>
      <trkpt lat="44.06573" lon="2.19146">
        <ele>296.22</ele>
        <time>2014-03-18T09:11:21Z</time>
      </trkpt>
      <trkpt lat="44.06561" lon="2.1916">
        <ele>299.11</ele>
        <time>2014-03-18T09:11:37Z</time>
      </trkpt>
      <trkpt lat="44.06552" lon="2.19171">
        <ele>302.47</ele>
        <time>2014-03-18T09:11:49Z</time>
      </trkpt>
      <trkpt lat="44.06549" lon="2.19174">
        <ele>302.47</ele>
        <time>2014-03-18T09:11:52Z</time>
      </trkpt>
      <trkpt lat="44.06547" lon="2.19177">
        <ele>302.47</ele>
        <time>2014-03-18T09:11:55Z</time>
      </trkpt>
      <trkpt lat="44.06545" lon="2.1918">
        <ele>302.95</ele>
        <time>2014-03-18T09:11:58Z</time>
      </trkpt>
      <trkpt lat="44.06537" lon="2.19191">
        <ele>303.91</ele>
        <time>2014-03-18T09:12:11Z</time>
      </trkpt>
      <trkpt lat="44.06524" lon="2.19201">
        <ele>303.91</ele>
        <time>2014-03-18T09:12:26Z</time>
      </trkpt>
      <trkpt lat="44.06516" lon="2.19206">
        <ele>304.39</ele>
        <time>2014-03-18T09:12:39Z</time>
      </trkpt>
      <trkpt lat="44.06512" lon="2.19209">
        <ele>305.36</ele>
        <time>2014-03-18T09:12:54Z</time>
      </trkpt>
      <trkpt lat="44.06512" lon="2.19207">
        <ele>306.32</ele>
        <time>2014-03-18T09:13:24Z</time>
      </trkpt>
      <trkpt lat="44.06511" lon="2.19207">
        <ele>306.8</ele>
        <time>2014-03-18T09:13:53Z</time>
      </trkpt>
      <trkpt lat="44.06511" lon="2.19207">
        <ele>307.28</ele>
        <time>2014-03-18T09:14:26Z</time>
      </trkpt>
      <trkpt lat="44.0651" lon="2.19207">
        <ele>307.28</ele>
        <time>2014-03-18T09:14:54Z</time>
      </trkpt>
      <trkpt lat="44.0651" lon="2.19208">
        <ele>307.76</ele>
        <time>2014-03-18T09:15:23Z</time>
      </trkpt>
      <trkpt lat="44.06511" lon="2.19208">
        <ele>308.24</ele>
        <time>2014-03-18T09:15:55Z</time>
      </trkpt>
      <trkpt lat="44.06511" lon="2.19208">
        <ele>308.24</ele>
        <time>2014-03-18T09:16:26Z</time>
      </trkpt>
      <trkpt lat="44.06511" lon="2.19208">
        <ele>308.72</ele>
        <time>2014-03-18T09:16:59Z</time>
      </trkpt>
      <trkpt lat="44.06512" lon="2.19208">
        <ele>309.68</ele>
        <time>2014-03-18T09:17:32Z</time>
      </trkpt>
      <trkpt lat="44.06511" lon="2.19208">
        <ele>310.64</ele>
        <time>2014-03-18T09:17:55Z</time>
      </trkpt>
      <trkpt lat="44.06513" lon="2.19207">
        <ele>310.64</ele>
        <time>2014-03-18T09:18:05Z</time>
      </trkpt>
      <trkpt lat="44.06514" lon="2.19207">
        <ele>312.09</ele>
        <time>2014-03-18T09:18:28Z</time>
      </trkpt>
      <trkpt lat="44.06514" lon="2.19206">
        <ele>311.12</ele>
        <time>2014-03-18T09:18:56Z</time>
      </trkpt>
      <trkpt lat="44.06515" lon="2.19207">
        <ele>311.12</ele>
        <time>2014-03-18T09:19:11Z</time>
      </trkpt>
      <trkpt lat="44.06515" lon="2.19206">
        <ele>311.12</ele>
        <time>2014-03-18T09:19:30Z</time>
      </trkpt>
      <trkpt lat="44.06512" lon="2.19208">
        <ele>310.64</ele>
        <time>2014-03-18T09:19:47Z</time>
      </trkpt>
      <trkpt lat="44.06499" lon="2.19218">
        <ele>308.72</ele>
        <time>2014-03-18T09:20:00Z</time>
      </trkpt>
      <trkpt lat="44.06485" lon="2.1923">
        <ele>305.36</ele>
        <time>2014-03-18T09:20:14Z</time>
      </trkpt>
      <trkpt lat="44.06479" lon="2.19237">
        <ele>304.39</ele>
        <time>2014-03-18T09:20:20Z</time>
      </trkpt>
      <trkpt lat="44.06466" lon="2.19249">
        <ele>304.39</ele>
        <time>2014-03-18T09:20:34Z</time>
      </trkpt>
      <trkpt lat="44.06459" lon="2.19253">
        <ele>305.36</ele>
        <time>2014-03-18T09:20:40Z</time>
      </trkpt>
      <trkpt lat="44.06448" lon="2.19262">
        <ele>306.8</ele>
        <time>2014-03-18T09:20:50Z</time>
      </trkpt>
      <trkpt lat="44.06442" lon="2.19266">
        <ele>306.8</ele>
        <time>2014-03-18T09:20:56Z</time>
      </trkpt>
      <trkpt lat="44.06439" lon="2.19268">
        <ele>307.28</ele>
        <time>2014-03-18T09:21:00Z</time>
      </trkpt>
      <trkpt lat="44.06431" lon="2.19271">
        <ele>307.28</ele>
        <time>2014-03-18T09:21:06Z</time>
      </trkpt>
      <trkpt lat="44.06413" lon="2.19278">
        <ele>308.72</ele>
        <time>2014-03-18T09:21:21Z</time>
      </trkpt>
      <trkpt lat="44.06395" lon="2.19281">
        <ele>308.24</ele>
        <time>2014-03-18T09:21:36Z</time>
      </trkpt>
      <trkpt lat="44.06383" lon="2.19284">
        <ele>308.24</ele>
        <time>2014-03-18T09:21:47Z</time>
      </trkpt>
      <trkpt lat="44.06365" lon="2.19281">
        <ele>308.72</ele>
        <time>2014-03-18T09:22:02Z</time>
      </trkpt>
      <trkpt lat="44.06348" lon="2.19284">
        <ele>310.64</ele>
        <time>2014-03-18T09:22:16Z</time>
      </trkpt>
      <trkpt lat="44.06333" lon="2.19291">
        <ele>311.6</ele>
        <time>2014-03-18T09:22:31Z</time>
      </trkpt>
      <trkpt lat="44.06318" lon="2.19298">
        <ele>312.57</ele>
        <time>2014-03-18T09:22:45Z</time>
      </trkpt>
      <trkpt lat="44.0631" lon="2.19302">
        <ele>313.53</ele>
        <time>2014-03-18T09:22:53Z</time>
      </trkpt>
      <trkpt lat="44.06294" lon="2.19308">
        <ele>316.89</ele>
        <time>2014-03-18T09:23:07Z</time>
      </trkpt>
      <trkpt lat="44.06289" lon="2.19309">
        <ele>316.89</ele>
        <time>2014-03-18T09:23:13Z</time>
      </trkpt>
      <trkpt lat="44.06283" lon="2.1931">
        <ele>317.37</ele>
        <time>2014-03-18T09:23:18Z</time>
      </trkpt>
      <trkpt lat="44.06266" lon="2.19316">
        <ele>319.3</ele>
        <time>2014-03-18T09:23:34Z</time>
      </trkpt>
      <trkpt lat="44.06251" lon="2.19322">
        <ele>320.26</ele>
        <time>2014-03-18T09:23:47Z</time>
      </trkpt>
      <trkpt lat="44.06234" lon="2.19327">
        <ele>321.7</ele>
        <time>2014-03-18T09:24:02Z</time>
      </trkpt>
      <trkpt lat="44.06232" lon="2.19327">
        <ele>321.7</ele>
        <time>2014-03-18T09:24:04Z</time>
      </trkpt>
      <trkpt lat="44.06216" lon="2.19329">
        <ele>321.7</ele>
        <time>2014-03-18T09:24:18Z</time>
      </trkpt>
      <trkpt lat="44.06198" lon="2.19333">
        <ele>322.18</ele>
        <time>2014-03-18T09:24:33Z</time>
      </trkpt>
      <trkpt lat="44.06196" lon="2.19334">
        <ele>322.18</ele>
        <time>2014-03-18T09:24:35Z</time>
      </trkpt>
      <trkpt lat="44.06194" lon="2.19334">
        <ele>322.66</ele>
        <time>2014-03-18T09:24:50Z</time>
      </trkpt>
      <trkpt lat="44.06193" lon="2.19334">
        <ele>322.66</ele>
        <time>2014-03-18T09:25:16Z</time>
      </trkpt>
      <trkpt lat="44.06187" lon="2.19334">
        <ele>322.18</ele>
        <time>2014-03-18T09:25:39Z</time>
      </trkpt>
      <trkpt lat="44.06171" lon="2.19336">
        <ele>323.14</ele>
        <time>2014-03-18T09:25:53Z</time>
      </trkpt>
      <trkpt lat="44.06154" lon="2.19342">
        <ele>323.62</ele>
        <time>2014-03-18T09:26:08Z</time>
      </trkpt>
      <trkpt lat="44.06135" lon="2.19353">
        <ele>323.62</ele>
        <time>2014-03-18T09:26:25Z</time>
      </trkpt>
      <trkpt lat="44.0612" lon="2.19362">
        <ele>324.1</ele>
        <time>2014-03-18T09:26:39Z</time>
      </trkpt>
      <trkpt lat="44.06114" lon="2.19367">
        <ele>324.1</ele>
        <time>2014-03-18T09:26:46Z</time>
      </trkpt>
      <trkpt lat="44.06113" lon="2.19369">
        <ele>324.1</ele>
        <time>2014-03-18T09:26:48Z</time>
      </trkpt>
      <trkpt lat="44.06098" lon="2.19382">
        <ele>324.58</ele>
        <time>2014-03-18T09:27:04Z</time>
      </trkpt>
      <trkpt lat="44.06086" lon="2.19392">
        <ele>324.1</ele>
        <time>2014-03-18T09:27:16Z</time>
      </trkpt>
      <trkpt lat="44.06081" lon="2.19397">
        <ele>324.1</ele>
        <time>2014-03-18T09:27:21Z</time>
      </trkpt>
      <trkpt lat="44.06078" lon="2.19401">
        <ele>324.1</ele>
        <time>2014-03-18T09:27:24Z</time>
      </trkpt>
      <trkpt lat="44.06064" lon="2.19412">
        <ele>322.66</ele>
        <time>2014-03-18T09:27:38Z</time>
      </trkpt>
      <trkpt lat="44.06058" lon="2.19418">
        <ele>321.7</ele>
        <time>2014-03-18T09:27:44Z</time>
      </trkpt>
      <trkpt lat="44.06042" lon="2.19435">
        <ele>321.7</ele>
        <time>2014-03-18T09:28:00Z</time>
      </trkpt>
      <trkpt lat="44.0603" lon="2.19448">
        <ele>321.7</ele>
        <time>2014-03-18T09:28:14Z</time>
      </trkpt>
      <trkpt lat="44.06028" lon="2.19451">
        <ele>321.7</ele>
        <time>2014-03-18T09:28:16Z</time>
      </trkpt>
      <trkpt lat="44.06015" lon="2.19467">
        <ele>319.78</ele>
        <time>2014-03-18T09:28:31Z</time>
      </trkpt>
      <trkpt lat="44.06002" lon="2.19487">
        <ele>319.3</ele>
        <time>2014-03-18T09:28:49Z</time>
      </trkpt>
      <trkpt lat="44.05991" lon="2.195">
        <ele>318.33</ele>
        <time>2014-03-18T09:29:03Z</time>
      </trkpt>
      <trkpt lat="44.0598" lon="2.19517">
        <ele>317.85</ele>
        <time>2014-03-18T09:29:19Z</time>
      </trkpt>
      <trkpt lat="44.05969" lon="2.19533">
        <ele>317.37</ele>
        <time>2014-03-18T09:29:33Z</time>
      </trkpt>
      <trkpt lat="44.05963" lon="2.19541">
        <ele>317.37</ele>
        <time>2014-03-18T09:29:40Z</time>
      </trkpt>
      <trkpt lat="44.05949" lon="2.19561">
        <ele>318.81</ele>
        <time>2014-03-18T09:29:56Z</time>
      </trkpt>
      <trkpt lat="44.05941" lon="2.19575">
        <ele>317.85</ele>
        <time>2014-03-18T09:30:07Z</time>
      </trkpt>
      <trkpt lat="44.05929" lon="2.19597">
        <ele>316.89</ele>
        <time>2014-03-18T09:30:23Z</time>
      </trkpt>
      <trkpt lat="44.05917" lon="2.19614">
        <ele>316.89</ele>
        <time>2014-03-18T09:30:38Z</time>
      </trkpt>
      <trkpt lat="44.05909" lon="2.1962">
        <ele>316.41</ele>
        <time>2014-03-18T09:30:45Z</time>
      </trkpt>
      <trkpt lat="44.05891" lon="2.19639">
        <ele>317.37</ele>
        <time>2014-03-18T09:31:02Z</time>
      </trkpt>
      <trkpt lat="44.05875" lon="2.19654">
        <ele>317.37</ele>
        <time>2014-03-18T09:31:19Z</time>
      </trkpt>
      <trkpt lat="44.05856" lon="2.19668">
        <ele>316.89</ele>
        <time>2014-03-18T09:31:36Z</time>
      </trkpt>
      <trkpt lat="44.05839" lon="2.1968">
        <ele>316.89</ele>
        <time>2014-03-18T09:31:52Z</time>
      </trkpt>
      <trkpt lat="44.05835" lon="2.19687">
        <ele>316.89</ele>
        <time>2014-03-18T09:31:59Z</time>
      </trkpt>
      <trkpt lat="44.05839" lon="2.19693">
        <ele>316.89</ele>
        <time>2014-03-18T09:32:07Z</time>
      </trkpt>
      <trkpt lat="44.05855" lon="2.19703">
        <ele>317.37</ele>
        <time>2014-03-18T09:32:22Z</time>
      </trkpt>
      <trkpt lat="44.05871" lon="2.19711">
        <ele>317.37</ele>
        <time>2014-03-18T09:32:36Z</time>
      </trkpt>
      <trkpt lat="44.05887" lon="2.19721">
        <ele>318.81</ele>
        <time>2014-03-18T09:32:51Z</time>
      </trkpt>
      <trkpt lat="44.05904" lon="2.19731">
        <ele>320.26</ele>
        <time>2014-03-18T09:33:07Z</time>
      </trkpt>
      <trkpt lat="44.05924" lon="2.19745">
        <ele>321.22</ele>
        <time>2014-03-18T09:33:25Z</time>
      </trkpt>
      <trkpt lat="44.05937" lon="2.19766">
        <ele>323.14</ele>
        <time>2014-03-18T09:33:41Z</time>
      </trkpt>
      <trkpt lat="44.05942" lon="2.19789">
        <ele>324.58</ele>
        <time>2014-03-18T09:33:57Z</time>
      </trkpt>
      <trkpt lat="44.05947" lon="2.19811">
        <ele>326.02</ele>
        <time>2014-03-18T09:34:12Z</time>
      </trkpt>
      <trkpt lat="44.0595" lon="2.19818">
        <ele>326.5</ele>
        <time>2014-03-18T09:34:16Z</time>
      </trkpt>
      <trkpt lat="44.05952" lon="2.19834">
        <ele>328.43</ele>
        <time>2014-03-18T09:34:26Z</time>
      </trkpt>
      <trkpt lat="44.05953" lon="2.19837">
        <ele>328.43</ele>
        <time>2014-03-18T09:34:28Z</time>
      </trkpt>
      <trkpt lat="44.05959" lon="2.19862">
        <ele>327.47</ele>
        <time>2014-03-18T09:34:44Z</time>
      </trkpt>
      <trkpt lat="44.05961" lon="2.19873">
        <ele>327.95</ele>
        <time>2014-03-18T09:34:51Z</time>
      </trkpt>
      <trkpt lat="44.05964" lon="2.19895">
        <ele>327.47</ele>
        <time>2014-03-18T09:35:05Z</time>
      </trkpt>
      <trkpt lat="44.05964" lon="2.19897">
        <ele>327.47</ele>
        <time>2014-03-18T09:35:06Z</time>
      </trkpt>
      <trkpt lat="44.05971" lon="2.19921">
        <ele>324.1</ele>
        <time>2014-03-18T09:35:20Z</time>
      </trkpt>
      <trkpt lat="44.05971" lon="2.19927">
        <ele>324.1</ele>
        <time>2014-03-18T09:35:24Z</time>
      </trkpt>
      <trkpt lat="44.05975" lon="2.19954">
        <ele>323.14</ele>
        <time>2014-03-18T09:35:40Z</time>
      </trkpt>
      <trkpt lat="44.05977" lon="2.19963">
        <ele>322.66</ele>
        <time>2014-03-18T09:35:46Z</time>
      </trkpt>
      <trkpt lat="44.05984" lon="2.19988">
        <ele>320.26</ele>
        <time>2014-03-18T09:36:02Z</time>
      </trkpt>
      <trkpt lat="44.05992" lon="2.2001">
        <ele>320.74</ele>
        <time>2014-03-18T09:36:17Z</time>
      </trkpt>
      <trkpt lat="44.05994" lon="2.20015">
        <ele>321.22</ele>
        <time>2014-03-18T09:36:20Z</time>
      </trkpt>
      <trkpt lat="44.06002" lon="2.20031">
        <ele>321.22</ele>
        <time>2014-03-18T09:36:32Z</time>
      </trkpt>
      <trkpt lat="44.06003" lon="2.20033">
        <ele>321.22</ele>
        <time>2014-03-18T09:36:33Z</time>
      </trkpt>
      <trkpt lat="44.06016" lon="2.20054">
        <ele>319.78</ele>
        <time>2014-03-18T09:36:49Z</time>
      </trkpt>
      <trkpt lat="44.06018" lon="2.20058">
        <ele>319.78</ele>
        <time>2014-03-18T09:36:52Z</time>
      </trkpt>
      <trkpt lat="44.06026" lon="2.20071">
        <ele>320.74</ele>
        <time>2014-03-18T09:37:02Z</time>
      </trkpt>
      <trkpt lat="44.06027" lon="2.20073">
        <ele>320.74</ele>
        <time>2014-03-18T09:37:04Z</time>
      </trkpt>
      <trkpt lat="44.06034" lon="2.20085">
        <ele>320.74</ele>
        <time>2014-03-18T09:37:14Z</time>
      </trkpt>
      <trkpt lat="44.06043" lon="2.20084">
        <ele>322.18</ele>
        <time>2014-03-18T09:37:23Z</time>
      </trkpt>
      <trkpt lat="44.06047" lon="2.2008">
        <ele>322.18</ele>
        <time>2014-03-18T09:37:27Z</time>
      </trkpt>
      <trkpt lat="44.06056" lon="2.20064">
        <ele>322.18</ele>
        <time>2014-03-18T09:37:40Z</time>
      </trkpt>
      <trkpt lat="44.06059" lon="2.2006">
        <ele>322.66</ele>
        <time>2014-03-18T09:37:43Z</time>
      </trkpt>
      <trkpt lat="44.0607" lon="2.20046">
        <ele>322.66</ele>
        <time>2014-03-18T09:37:56Z</time>
      </trkpt>
      <trkpt lat="44.06076" lon="2.20035">
        <ele>323.62</ele>
        <time>2014-03-18T09:38:04Z</time>
      </trkpt>
      <trkpt lat="44.0608" lon="2.20028">
        <ele>323.14</ele>
        <time>2014-03-18T09:38:10Z</time>
      </trkpt>
      <trkpt lat="44.06083" lon="2.20026">
        <ele>323.62</ele>
        <time>2014-03-18T09:38:13Z</time>
      </trkpt>
      <trkpt lat="44.06091" lon="2.20012">
        <ele>324.1</ele>
        <time>2014-03-18T09:38:24Z</time>
      </trkpt>
      <trkpt lat="44.06097" lon="2.20003">
        <ele>325.06</ele>
        <time>2014-03-18T09:38:31Z</time>
      </trkpt>
      <trkpt lat="44.06101" lon="2.19998">
        <ele>324.58</ele>
        <time>2014-03-18T09:38:35Z</time>
      </trkpt>
      <trkpt lat="44.06104" lon="2.19994">
        <ele>325.06</ele>
        <time>2014-03-18T09:38:39Z</time>
      </trkpt>
      <trkpt lat="44.0612" lon="2.19983">
        <ele>325.06</ele>
        <time>2014-03-18T09:38:54Z</time>
      </trkpt>
      <trkpt lat="44.06135" lon="2.19972">
        <ele>325.54</ele>
        <time>2014-03-18T09:39:08Z</time>
      </trkpt>
      <trkpt lat="44.06138" lon="2.19969">
        <ele>325.06</ele>
        <time>2014-03-18T09:39:11Z</time>
      </trkpt>
      <trkpt lat="44.06152" lon="2.19962">
        <ele>324.58</ele>
        <time>2014-03-18T09:39:24Z</time>
      </trkpt>
      <trkpt lat="44.06167" lon="2.19952">
        <ele>324.1</ele>
        <time>2014-03-18T09:39:37Z</time>
      </trkpt>
      <trkpt lat="44.0617" lon="2.1995">
        <ele>324.58</ele>
        <time>2014-03-18T09:39:40Z</time>
      </trkpt>
      <trkpt lat="44.06175" lon="2.19948">
        <ele>324.58</ele>
        <time>2014-03-18T09:39:44Z</time>
      </trkpt>
      <trkpt lat="44.06184" lon="2.19947">
        <ele>324.1</ele>
        <time>2014-03-18T09:39:52Z</time>
      </trkpt>
      <trkpt lat="44.06195" lon="2.19947">
        <ele>323.14</ele>
        <time>2014-03-18T09:40:01Z</time>
      </trkpt>
      <trkpt lat="44.06208" lon="2.19945">
        <ele>322.66</ele>
        <time>2014-03-18T09:40:12Z</time>
      </trkpt>
      <trkpt lat="44.0623" lon="2.19948">
        <ele>322.18</ele>
        <time>2014-03-18T09:40:30Z</time>
      </trkpt>
      <trkpt lat="44.06249" lon="2.19946">
        <ele>322.18</ele>
        <time>2014-03-18T09:40:46Z</time>
      </trkpt>
      <trkpt lat="44.06266" lon="2.19946">
        <ele>322.66</ele>
        <time>2014-03-18T09:41:00Z</time>
      </trkpt>
      <trkpt lat="44.06285" lon="2.19944">
        <ele>323.62</ele>
        <time>2014-03-18T09:41:16Z</time>
      </trkpt>
      <trkpt lat="44.06304" lon="2.19943">
        <ele>323.62</ele>
        <time>2014-03-18T09:41:32Z</time>
      </trkpt>
      <trkpt lat="44.06311" lon="2.19942">
        <ele>323.14</ele>
        <time>2014-03-18T09:41:38Z</time>
      </trkpt>
      <trkpt lat="44.06323" lon="2.19938">
        <ele>323.62</ele>
        <time>2014-03-18T09:41:48Z</time>
      </trkpt>
      <trkpt lat="44.06338" lon="2.1993">
        <ele>322.66</ele>
        <time>2014-03-18T09:42:02Z</time>
      </trkpt>
      <trkpt lat="44.06353" lon="2.19924">
        <ele>322.18</ele>
        <time>2014-03-18T09:42:16Z</time>
      </trkpt>
      <trkpt lat="44.06356" lon="2.19922">
        <ele>322.18</ele>
        <time>2014-03-18T09:42:19Z</time>
      </trkpt>
      <trkpt lat="44.06372" lon="2.19914">
        <ele>321.22</ele>
        <time>2014-03-18T09:42:34Z</time>
      </trkpt>
      <trkpt lat="44.06388" lon="2.19915">
        <ele>321.7</ele>
        <time>2014-03-18T09:42:47Z</time>
      </trkpt>
      <trkpt lat="44.06392" lon="2.19918">
        <ele>321.22</ele>
        <time>2014-03-18T09:42:51Z</time>
      </trkpt>
      <trkpt lat="44.06395" lon="2.19921">
        <ele>321.7</ele>
        <time>2014-03-18T09:42:55Z</time>
      </trkpt>
      <trkpt lat="44.06397" lon="2.19923">
        <ele>321.7</ele>
        <time>2014-03-18T09:42:57Z</time>
      </trkpt>
      <trkpt lat="44.06403" lon="2.19928">
        <ele>322.18</ele>
        <time>2014-03-18T09:43:04Z</time>
      </trkpt>
      <trkpt lat="44.0641" lon="2.19934">
        <ele>322.18</ele>
        <time>2014-03-18T09:43:11Z</time>
      </trkpt>
      <trkpt lat="44.06422" lon="2.19954">
        <ele>319.78</ele>
        <time>2014-03-18T09:43:27Z</time>
      </trkpt>
      <trkpt lat="44.06422" lon="2.19957">
        <ele>319.3</ele>
        <time>2014-03-18T09:43:29Z</time>
      </trkpt>
      <trkpt lat="44.06432" lon="2.19981">
        <ele>320.74</ele>
        <time>2014-03-18T09:43:44Z</time>
      </trkpt>
      <trkpt lat="44.06434" lon="2.19987">
        <ele>320.26</ele>
        <time>2014-03-18T09:43:48Z</time>
      </trkpt>
      <trkpt lat="44.06434" lon="2.19991">
        <ele>319.78</ele>
        <time>2014-03-18T09:43:50Z</time>
      </trkpt>
      <trkpt lat="44.06438" lon="2.19996">
        <ele>320.26</ele>
        <time>2014-03-18T09:43:54Z</time>
      </trkpt>
      <trkpt lat="44.06457" lon="2.19997">
        <ele>321.22</ele>
        <time>2014-03-18T09:44:11Z</time>
      </trkpt>
      <trkpt lat="44.06473" lon="2.19991">
        <ele>321.22</ele>
        <time>2014-03-18T09:44:25Z</time>
      </trkpt>
      <trkpt lat="44.06491" lon="2.19986">
        <ele>319.3</ele>
        <time>2014-03-18T09:44:41Z</time>
      </trkpt>
      <trkpt lat="44.06511" lon="2.1998">
        <ele>319.78</ele>
        <time>2014-03-18T09:44:58Z</time>
      </trkpt>
      <trkpt lat="44.06532" lon="2.19974">
        <ele>319.3</ele>
        <time>2014-03-18T09:45:16Z</time>
      </trkpt>
      <trkpt lat="44.0655" lon="2.19968">
        <ele>319.78</ele>
        <time>2014-03-18T09:45:31Z</time>
      </trkpt>
      <trkpt lat="44.06568" lon="2.19962">
        <ele>318.33</ele>
        <time>2014-03-18T09:45:47Z</time>
      </trkpt>
      <trkpt lat="44.06587" lon="2.19957">
        <ele>317.85</ele>
        <time>2014-03-18T09:46:03Z</time>
      </trkpt>
      <trkpt lat="44.06604" lon="2.1995">
        <ele>316.89</ele>
        <time>2014-03-18T09:46:17Z</time>
      </trkpt>
      <trkpt lat="44.06617" lon="2.19942">
        <ele>314.49</ele>
        <time>2014-03-18T09:46:29Z</time>
      </trkpt>
      <trkpt lat="44.06634" lon="2.19937">
        <ele>312.57</ele>
        <time>2014-03-18T09:46:43Z</time>
      </trkpt>
      <trkpt lat="44.06641" lon="2.19934">
        <ele>312.09</ele>
        <time>2014-03-18T09:46:49Z</time>
      </trkpt>
      <trkpt lat="44.06656" lon="2.19925">
        <ele>311.6</ele>
        <time>2014-03-18T09:47:03Z</time>
      </trkpt>
      <trkpt lat="44.06673" lon="2.19914">
        <ele>312.09</ele>
        <time>2014-03-18T09:47:19Z</time>
      </trkpt>
      <trkpt lat="44.0669" lon="2.199">
        <ele>310.64</ele>
        <time>2014-03-18T09:47:35Z</time>
      </trkpt>
      <trkpt lat="44.06701" lon="2.19894">
        <ele>309.2</ele>
        <time>2014-03-18T09:47:45Z</time>
      </trkpt>
      <trkpt lat="44.0672" lon="2.19878">
        <ele>310.16</ele>
        <time>2014-03-18T09:48:04Z</time>
      </trkpt>
      <trkpt lat="44.06725" lon="2.19876">
        <ele>309.68</ele>
        <time>2014-03-18T09:48:09Z</time>
      </trkpt>
      <trkpt lat="44.06744" lon="2.19873">
        <ele>310.16</ele>
        <time>2014-03-18T09:48:24Z</time>
      </trkpt>
      <trkpt lat="44.06752" lon="2.19874">
        <ele>309.68</ele>
        <time>2014-03-18T09:48:31Z</time>
      </trkpt>
      <trkpt lat="44.06757" lon="2.19875">
        <ele>308.24</ele>
        <time>2014-03-18T09:48:35Z</time>
      </trkpt>
      <trkpt lat="44.06763" lon="2.19875">
        <ele>307.28</ele>
        <time>2014-03-18T09:48:39Z</time>
      </trkpt>
      <trkpt lat="44.06769" lon="2.19875">
        <ele>306.32</ele>
        <time>2014-03-18T09:48:45Z</time>
      </trkpt>
      <trkpt lat="44.06774" lon="2.19875">
        <ele>305.84</ele>
        <time>2014-03-18T09:48:48Z</time>
      </trkpt>
      <trkpt lat="44.0678" lon="2.19873">
        <ele>306.8</ele>
        <time>2014-03-18T09:48:53Z</time>
      </trkpt>
      <trkpt lat="44.068" lon="2.1987">
        <ele>303.91</ele>
        <time>2014-03-18T09:49:10Z</time>
      </trkpt>
      <trkpt lat="44.06818" lon="2.1987">
        <ele>304.88</ele>
        <time>2014-03-18T09:49:25Z</time>
      </trkpt>
      <trkpt lat="44.06829" lon="2.19868">
        <ele>303.91</ele>
        <time>2014-03-18T09:49:35Z</time>
      </trkpt>
      <trkpt lat="44.06845" lon="2.19866">
        <ele>304.88</ele>
        <time>2014-03-18T09:49:48Z</time>
      </trkpt>
      <trkpt lat="44.06858" lon="2.19867">
        <ele>304.39</ele>
        <time>2014-03-18T09:50:00Z</time>
      </trkpt>
      <trkpt lat="44.06867" lon="2.1987">
        <ele>304.39</ele>
        <time>2014-03-18T09:50:09Z</time>
      </trkpt>
      <trkpt lat="44.06885" lon="2.19869">
        <ele>303.43</ele>
        <time>2014-03-18T09:50:24Z</time>
      </trkpt>
      <trkpt lat="44.0689" lon="2.19869">
        <ele>302.47</ele>
        <time>2014-03-18T09:50:29Z</time>
      </trkpt>
      <trkpt lat="44.06894" lon="2.19869">
        <ele>301.03</ele>
        <time>2014-03-18T09:50:33Z</time>
      </trkpt>
      <trkpt lat="44.06912" lon="2.19862">
        <ele>301.03</ele>
        <time>2014-03-18T09:50:48Z</time>
      </trkpt>
      <trkpt lat="44.06925" lon="2.19857">
        <ele>301.03</ele>
        <time>2014-03-18T09:50:59Z</time>
      </trkpt>
      <trkpt lat="44.06938" lon="2.19849">
        <ele>299.11</ele>
        <time>2014-03-18T09:51:12Z</time>
      </trkpt>
      <trkpt lat="44.06944" lon="2.19843">
        <ele>298.63</ele>
        <time>2014-03-18T09:51:18Z</time>
      </trkpt>
      <trkpt lat="44.0695" lon="2.1984">
        <ele>297.18</ele>
        <time>2014-03-18T09:51:24Z</time>
      </trkpt>
      <trkpt lat="44.06954" lon="2.19837">
        <ele>297.18</ele>
        <time>2014-03-18T09:51:28Z</time>
      </trkpt>
      <trkpt lat="44.06958" lon="2.19837">
        <ele>296.7</ele>
        <time>2014-03-18T09:51:32Z</time>
      </trkpt>
      <trkpt lat="44.06963" lon="2.1984">
        <ele>295.26</ele>
        <time>2014-03-18T09:51:36Z</time>
      </trkpt>
      <trkpt lat="44.06968" lon="2.19847">
        <ele>293.34</ele>
        <time>2014-03-18T09:51:42Z</time>
      </trkpt>
      <trkpt lat="44.0697" lon="2.19865">
        <ele>290.94</ele>
        <time>2014-03-18T09:51:55Z</time>
      </trkpt>
      <trkpt lat="44.06969" lon="2.19868">
        <ele>291.42</ele>
        <time>2014-03-18T09:51:57Z</time>
      </trkpt>
      <trkpt lat="44.0696" lon="2.19885">
        <ele>291.42</ele>
        <time>2014-03-18T09:52:09Z</time>
      </trkpt>
      <trkpt lat="44.06945" lon="2.199">
        <ele>289.97</ele>
        <time>2014-03-18T09:52:25Z</time>
      </trkpt>
      <trkpt lat="44.0693" lon="2.19913">
        <ele>284.69</ele>
        <time>2014-03-18T09:52:41Z</time>
      </trkpt>
      <trkpt lat="44.06919" lon="2.19925">
        <ele>280.36</ele>
        <time>2014-03-18T09:52:54Z</time>
      </trkpt>
      <trkpt lat="44.0691" lon="2.1994">
        <ele>279.88</ele>
        <time>2014-03-18T09:53:06Z</time>
      </trkpt>
      <trkpt lat="44.06907" lon="2.19949">
        <ele>278.44</ele>
        <time>2014-03-18T09:53:12Z</time>
      </trkpt>
      <trkpt lat="44.06899" lon="2.19967">
        <ele>277</ele>
        <time>2014-03-18T09:53:26Z</time>
      </trkpt>
      <trkpt lat="44.06894" lon="2.19979">
        <ele>276.04</ele>
        <time>2014-03-18T09:53:34Z</time>
      </trkpt>
      <trkpt lat="44.06894" lon="2.19991">
        <ele>273.63</ele>
        <time>2014-03-18T09:53:42Z</time>
      </trkpt>
      <trkpt lat="44.06894" lon="2.19997">
        <ele>272.67</ele>
        <time>2014-03-18T09:53:46Z</time>
      </trkpt>
      <trkpt lat="44.06895" lon="2.19998">
        <ele>272.67</ele>
        <time>2014-03-18T09:53:47Z</time>
      </trkpt>
      <trkpt lat="44.06896" lon="2.20005">
        <ele>273.63</ele>
        <time>2014-03-18T09:53:52Z</time>
      </trkpt>
      <trkpt lat="44.06899" lon="2.2001">
        <ele>275.07</ele>
        <time>2014-03-18T09:54:00Z</time>
      </trkpt>
      <trkpt lat="44.06904" lon="2.20011">
        <ele>275.56</ele>
        <time>2014-03-18T09:54:10Z</time>
      </trkpt>
      <trkpt lat="44.06906" lon="2.2001">
        <ele>275.56</ele>
        <time>2014-03-18T09:54:13Z</time>
      </trkpt>
      <trkpt lat="44.06908" lon="2.2001">
        <ele>276.04</ele>
        <time>2014-03-18T09:54:15Z</time>
      </trkpt>
      <trkpt lat="44.06913" lon="2.20009">
        <ele>277.96</ele>
        <time>2014-03-18T09:54:25Z</time>
      </trkpt>
      <trkpt lat="44.06917" lon="2.20012">
        <ele>279.88</ele>
        <time>2014-03-18T09:54:38Z</time>
      </trkpt>
      <trkpt lat="44.06928" lon="2.20017">
        <ele>281.32</ele>
        <time>2014-03-18T09:54:51Z</time>
      </trkpt>
      <trkpt lat="44.06939" lon="2.20023">
        <ele>283.25</ele>
        <time>2014-03-18T09:55:06Z</time>
      </trkpt>
      <trkpt lat="44.06947" lon="2.20028">
        <ele>283.73</ele>
        <time>2014-03-18T09:55:16Z</time>
      </trkpt>
      <trkpt lat="44.06957" lon="2.20036">
        <ele>284.69</ele>
        <time>2014-03-18T09:55:27Z</time>
      </trkpt>
      <trkpt lat="44.06958" lon="2.20038">
        <ele>284.21</ele>
        <time>2014-03-18T09:55:29Z</time>
      </trkpt>
      <trkpt lat="44.06971" lon="2.20054">
        <ele>284.21</ele>
        <time>2014-03-18T09:55:44Z</time>
      </trkpt>
      <trkpt lat="44.06979" lon="2.2007">
        <ele>285.17</ele>
        <time>2014-03-18T09:55:58Z</time>
      </trkpt>
      <trkpt lat="44.06982" lon="2.20075">
        <ele>284.69</ele>
        <time>2014-03-18T09:56:02Z</time>
      </trkpt>
      <trkpt lat="44.06987" lon="2.20082">
        <ele>286.61</ele>
        <time>2014-03-18T09:56:09Z</time>
      </trkpt>
      <trkpt lat="44.06999" lon="2.20095">
        <ele>287.57</ele>
        <time>2014-03-18T09:56:23Z</time>
      </trkpt>
      <trkpt lat="44.07" lon="2.20097">
        <ele>287.57</ele>
        <time>2014-03-18T09:56:25Z</time>
      </trkpt>
      <trkpt lat="44.07008" lon="2.20111">
        <ele>287.09</ele>
        <time>2014-03-18T09:56:40Z</time>
      </trkpt>
      <trkpt lat="44.07015" lon="2.20121">
        <ele>289.97</ele>
        <time>2014-03-18T09:56:50Z</time>
      </trkpt>
      <trkpt lat="44.07021" lon="2.20129">
        <ele>291.9</ele>
        <time>2014-03-18T09:56:57Z</time>
      </trkpt>
      <trkpt lat="44.07025" lon="2.20133">
        <ele>293.82</ele>
        <time>2014-03-18T09:57:02Z</time>
      </trkpt>
      <trkpt lat="44.07031" lon="2.20142">
        <ele>297.67</ele>
        <time>2014-03-18T09:57:10Z</time>
      </trkpt>
      <trkpt lat="44.07039" lon="2.20157">
        <ele>299.11</ele>
        <time>2014-03-18T09:57:24Z</time>
      </trkpt>
      <trkpt lat="44.07048" lon="2.20169">
        <ele>300.55</ele>
        <time>2014-03-18T09:57:37Z</time>
      </trkpt>
      <trkpt lat="44.07051" lon="2.20172">
        <ele>301.51</ele>
        <time>2014-03-18T09:57:42Z</time>
      </trkpt>
      <trkpt lat="44.07066" lon="2.20184">
        <ele>303.43</ele>
        <time>2014-03-18T09:57:57Z</time>
      </trkpt>
      <trkpt lat="44.07072" lon="2.20193">
        <ele>302.47</ele>
        <time>2014-03-18T09:58:07Z</time>
      </trkpt>
      <trkpt lat="44.0708" lon="2.20202">
        <ele>302.47</ele>
        <time>2014-03-18T09:58:17Z</time>
      </trkpt>
      <trkpt lat="44.07091" lon="2.20211">
        <ele>305.36</ele>
        <time>2014-03-18T09:58:27Z</time>
      </trkpt>
      <trkpt lat="44.07101" lon="2.20224">
        <ele>309.2</ele>
        <time>2014-03-18T09:58:38Z</time>
      </trkpt>
      <trkpt lat="44.07104" lon="2.20229">
        <ele>310.64</ele>
        <time>2014-03-18T09:58:42Z</time>
      </trkpt>
      <trkpt lat="44.07111" lon="2.2024">
        <ele>312.09</ele>
        <time>2014-03-18T09:58:51Z</time>
      </trkpt>
      <trkpt lat="44.07123" lon="2.2026">
        <ele>316.41</ele>
        <time>2014-03-18T09:59:06Z</time>
      </trkpt>
      <trkpt lat="44.07131" lon="2.20281">
        <ele>316.41</ele>
        <time>2014-03-18T09:59:20Z</time>
      </trkpt>
      <trkpt lat="44.07138" lon="2.20305">
        <ele>317.85</ele>
        <time>2014-03-18T09:59:36Z</time>
      </trkpt>
      <trkpt lat="44.07144" lon="2.20336">
        <ele>322.66</ele>
        <time>2014-03-18T09:59:53Z</time>
      </trkpt>
      <trkpt lat="44.07144" lon="2.20365">
        <ele>327.95</ele>
        <time>2014-03-18T10:00:10Z</time>
      </trkpt>
      <trkpt lat="44.0714" lon="2.20376">
        <ele>329.87</ele>
        <time>2014-03-18T10:00:18Z</time>
      </trkpt>
      <trkpt lat="44.07136" lon="2.20375">
        <ele>330.83</ele>
        <time>2014-03-18T10:00:32Z</time>
      </trkpt>
      <trkpt lat="44.07135" lon="2.20376">
        <ele>330.83</ele>
        <time>2014-03-18T10:00:53Z</time>
      </trkpt>
      <trkpt lat="44.07134" lon="2.20378">
        <ele>330.35</ele>
        <time>2014-03-18T10:01:08Z</time>
      </trkpt>
      <trkpt lat="44.07135" lon="2.20381">
        <ele>329.87</ele>
        <time>2014-03-18T10:01:26Z</time>
      </trkpt>
      <trkpt lat="44.07135" lon="2.20382">
        <ele>330.83</ele>
        <time>2014-03-18T10:01:38Z</time>
      </trkpt>
      <trkpt lat="44.07136" lon="2.20387">
        <ele>330.35</ele>
        <time>2014-03-18T10:01:58Z</time>
      </trkpt>
      <trkpt lat="44.07136" lon="2.20389">
        <ele>330.83</ele>
        <time>2014-03-18T10:01:59Z</time>
      </trkpt>
      <trkpt lat="44.07133" lon="2.20403">
        <ele>331.79</ele>
        <time>2014-03-18T10:02:09Z</time>
      </trkpt>
      <trkpt lat="44.07126" lon="2.20428">
        <ele>335.16</ele>
        <time>2014-03-18T10:02:27Z</time>
      </trkpt>
      <trkpt lat="44.07118" lon="2.20448">
        <ele>337.08</ele>
        <time>2014-03-18T10:02:44Z</time>
      </trkpt>
      <trkpt lat="44.07116" lon="2.20458">
        <ele>337.08</ele>
        <time>2014-03-18T10:02:57Z</time>
      </trkpt>
      <trkpt lat="44.0711" lon="2.20477">
        <ele>337.56</ele>
        <time>2014-03-18T10:03:11Z</time>
      </trkpt>
      <trkpt lat="44.07103" lon="2.20499">
        <ele>340.92</ele>
        <time>2014-03-18T10:03:26Z</time>
      </trkpt>
      <trkpt lat="44.071" lon="2.20509">
        <ele>340.44</ele>
        <time>2014-03-18T10:03:34Z</time>
      </trkpt>
      <trkpt lat="44.07098" lon="2.20515">
        <ele>339.96</ele>
        <time>2014-03-18T10:03:39Z</time>
      </trkpt>
      <trkpt lat="44.07092" lon="2.20532">
        <ele>339.96</ele>
        <time>2014-03-18T10:03:52Z</time>
      </trkpt>
      <trkpt lat="44.0709" lon="2.20538">
        <ele>339.96</ele>
        <time>2014-03-18T10:03:56Z</time>
      </trkpt>
      <trkpt lat="44.07085" lon="2.20554">
        <ele>341.89</ele>
        <time>2014-03-18T10:04:07Z</time>
      </trkpt>
      <trkpt lat="44.07084" lon="2.20579">
        <ele>342.37</ele>
        <time>2014-03-18T10:04:24Z</time>
      </trkpt>
      <trkpt lat="44.07091" lon="2.20601">
        <ele>340.92</ele>
        <time>2014-03-18T10:04:40Z</time>
      </trkpt>
      <trkpt lat="44.07102" lon="2.20618">
        <ele>340.92</ele>
        <time>2014-03-18T10:04:55Z</time>
      </trkpt>
      <trkpt lat="44.07107" lon="2.20626">
        <ele>339.96</ele>
        <time>2014-03-18T10:05:02Z</time>
      </trkpt>
      <trkpt lat="44.0712" lon="2.20644">
        <ele>339.96</ele>
        <time>2014-03-18T10:05:19Z</time>
      </trkpt>
      <trkpt lat="44.07131" lon="2.2066">
        <ele>340.44</ele>
        <time>2014-03-18T10:05:34Z</time>
      </trkpt>
      <trkpt lat="44.07143" lon="2.20677">
        <ele>340.44</ele>
        <time>2014-03-18T10:05:50Z</time>
      </trkpt>
      <trkpt lat="44.07147" lon="2.20682">
        <ele>340.44</ele>
        <time>2014-03-18T10:05:55Z</time>
      </trkpt>
      <trkpt lat="44.07155" lon="2.20693">
        <ele>341.89</ele>
        <time>2014-03-18T10:06:05Z</time>
      </trkpt>
      <trkpt lat="44.07165" lon="2.20706">
        <ele>344.77</ele>
        <time>2014-03-18T10:06:17Z</time>
      </trkpt>
      <trkpt lat="44.07179" lon="2.20717">
        <ele>346.69</ele>
        <time>2014-03-18T10:06:32Z</time>
      </trkpt>
      <trkpt lat="44.07199" lon="2.20727">
        <ele>346.69</ele>
        <time>2014-03-18T10:06:50Z</time>
      </trkpt>
      <trkpt lat="44.07215" lon="2.20737">
        <ele>347.17</ele>
        <time>2014-03-18T10:07:05Z</time>
      </trkpt>
      <trkpt lat="44.07231" lon="2.20749">
        <ele>347.17</ele>
        <time>2014-03-18T10:07:20Z</time>
      </trkpt>
      <trkpt lat="44.07248" lon="2.2076">
        <ele>344.77</ele>
        <time>2014-03-18T10:07:36Z</time>
      </trkpt>
      <trkpt lat="44.07249" lon="2.20761">
        <ele>344.77</ele>
        <time>2014-03-18T10:07:38Z</time>
      </trkpt>
      <trkpt lat="44.07262" lon="2.20771">
        <ele>343.81</ele>
        <time>2014-03-18T10:07:51Z</time>
      </trkpt>
      <trkpt lat="44.07278" lon="2.20786">
        <ele>344.29</ele>
        <time>2014-03-18T10:08:07Z</time>
      </trkpt>
      <trkpt lat="44.07295" lon="2.208">
        <ele>343.81</ele>
        <time>2014-03-18T10:08:24Z</time>
      </trkpt>
      <trkpt lat="44.07308" lon="2.20811">
        <ele>344.29</ele>
        <time>2014-03-18T10:08:37Z</time>
      </trkpt>
      <trkpt lat="44.07315" lon="2.20817">
        <ele>343.33</ele>
        <time>2014-03-18T10:08:43Z</time>
      </trkpt>
      <trkpt lat="44.07332" lon="2.20832">
        <ele>342.85</ele>
        <time>2014-03-18T10:09:00Z</time>
      </trkpt>
      <trkpt lat="44.07336" lon="2.20835">
        <ele>343.33</ele>
        <time>2014-03-18T10:09:04Z</time>
      </trkpt>
      <trkpt lat="44.0735" lon="2.20846">
        <ele>342.85</ele>
        <time>2014-03-18T10:09:18Z</time>
      </trkpt>
      <trkpt lat="44.0737" lon="2.20865">
        <ele>344.29</ele>
        <time>2014-03-18T10:09:37Z</time>
      </trkpt>
      <trkpt lat="44.07387" lon="2.20877">
        <ele>345.73</ele>
        <time>2014-03-18T10:09:53Z</time>
      </trkpt>
      <trkpt lat="44.07398" lon="2.20885">
        <ele>345.25</ele>
        <time>2014-03-18T10:10:03Z</time>
      </trkpt>
      <trkpt lat="44.07415" lon="2.20902">
        <ele>346.21</ele>
        <time>2014-03-18T10:10:20Z</time>
      </trkpt>
      <trkpt lat="44.07431" lon="2.20914">
        <ele>347.17</ele>
        <time>2014-03-18T10:10:35Z</time>
      </trkpt>
      <trkpt lat="44.0745" lon="2.20931">
        <ele>349.58</ele>
        <time>2014-03-18T10:10:54Z</time>
      </trkpt>
      <trkpt lat="44.07467" lon="2.20943">
        <ele>348.13</ele>
        <time>2014-03-18T10:11:10Z</time>
      </trkpt>
      <trkpt lat="44.0747" lon="2.20946">
        <ele>348.62</ele>
        <time>2014-03-18T10:11:13Z</time>
      </trkpt>
      <trkpt lat="44.07476" lon="2.20951">
        <ele>348.62</ele>
        <time>2014-03-18T10:11:19Z</time>
      </trkpt>
      <trkpt lat="44.07494" lon="2.20967">
        <ele>349.58</ele>
        <time>2014-03-18T10:11:36Z</time>
      </trkpt>
      <trkpt lat="44.07497" lon="2.2097">
        <ele>350.06</ele>
        <time>2014-03-18T10:11:39Z</time>
      </trkpt>
      <trkpt lat="44.07501" lon="2.20972">
        <ele>351.02</ele>
        <time>2014-03-18T10:11:43Z</time>
      </trkpt>
      <trkpt lat="44.07508" lon="2.20978">
        <ele>351.02</ele>
        <time>2014-03-18T10:11:49Z</time>
      </trkpt>
      <trkpt lat="44.07512" lon="2.20983">
        <ele>351.02</ele>
        <time>2014-03-18T10:11:54Z</time>
      </trkpt>
      <trkpt lat="44.07529" lon="2.21001">
        <ele>351.98</ele>
        <time>2014-03-18T10:12:11Z</time>
      </trkpt>
      <trkpt lat="44.07532" lon="2.21005">
        <ele>351.5</ele>
        <time>2014-03-18T10:12:15Z</time>
      </trkpt>
      <trkpt lat="44.07546" lon="2.21019">
        <ele>352.46</ele>
        <time>2014-03-18T10:12:29Z</time>
      </trkpt>
      <trkpt lat="44.0755" lon="2.21024">
        <ele>352.94</ele>
        <time>2014-03-18T10:12:33Z</time>
      </trkpt>
      <trkpt lat="44.07566" lon="2.21042">
        <ele>352.94</ele>
        <time>2014-03-18T10:12:50Z</time>
      </trkpt>
      <trkpt lat="44.07581" lon="2.2106">
        <ele>353.42</ele>
        <time>2014-03-18T10:13:07Z</time>
      </trkpt>
      <trkpt lat="44.07597" lon="2.21081">
        <ele>352.94</ele>
        <time>2014-03-18T10:13:25Z</time>
      </trkpt>
      <trkpt lat="44.07613" lon="2.211">
        <ele>353.42</ele>
        <time>2014-03-18T10:13:41Z</time>
      </trkpt>
      <trkpt lat="44.07628" lon="2.21127">
        <ele>351.02</ele>
        <time>2014-03-18T10:14:01Z</time>
      </trkpt>
      <trkpt lat="44.0763" lon="2.21134">
        <ele>351.98</ele>
        <time>2014-03-18T10:14:06Z</time>
      </trkpt>
      <trkpt lat="44.07638" lon="2.21151">
        <ele>351.02</ele>
        <time>2014-03-18T10:14:18Z</time>
      </trkpt>
      <trkpt lat="44.07643" lon="2.21164">
        <ele>350.06</ele>
        <time>2014-03-18T10:14:27Z</time>
      </trkpt>
      <trkpt lat="44.07645" lon="2.21168">
        <ele>350.54</ele>
        <time>2014-03-18T10:14:30Z</time>
      </trkpt>
      <trkpt lat="44.07651" lon="2.21179">
        <ele>351.98</ele>
        <time>2014-03-18T10:14:37Z</time>
      </trkpt>
      <trkpt lat="44.07663" lon="2.21203">
        <ele>352.46</ele>
        <time>2014-03-18T10:14:54Z</time>
      </trkpt>
      <trkpt lat="44.07673" lon="2.2123">
        <ele>351.5</ele>
        <time>2014-03-18T10:15:12Z</time>
      </trkpt>
      <trkpt lat="44.07682" lon="2.21253">
        <ele>353.42</ele>
        <time>2014-03-18T10:15:27Z</time>
      </trkpt>
      <trkpt lat="44.07689" lon="2.21278">
        <ele>351.5</ele>
        <time>2014-03-18T10:15:43Z</time>
      </trkpt>
      <trkpt lat="44.07698" lon="2.21303">
        <ele>351.02</ele>
        <time>2014-03-18T10:16:00Z</time>
      </trkpt>
      <trkpt lat="44.07708" lon="2.21332">
        <ele>354.38</ele>
        <time>2014-03-18T10:16:18Z</time>
      </trkpt>
      <trkpt lat="44.07714" lon="2.21358">
        <ele>351.98</ele>
        <time>2014-03-18T10:16:34Z</time>
      </trkpt>
      <trkpt lat="44.07725" lon="2.21386">
        <ele>353.9</ele>
        <time>2014-03-18T10:16:53Z</time>
      </trkpt>
      <trkpt lat="44.07734" lon="2.2141">
        <ele>354.86</ele>
        <time>2014-03-18T10:17:10Z</time>
      </trkpt>
      <trkpt lat="44.07747" lon="2.21433">
        <ele>355.34</ele>
        <time>2014-03-18T10:17:28Z</time>
      </trkpt>
      <trkpt lat="44.07759" lon="2.21453">
        <ele>357.75</ele>
        <time>2014-03-18T10:17:44Z</time>
      </trkpt>
      <trkpt lat="44.07767" lon="2.21474">
        <ele>358.23</ele>
        <time>2014-03-18T10:18:00Z</time>
      </trkpt>
      <trkpt lat="44.07772" lon="2.215">
        <ele>357.75</ele>
        <time>2014-03-18T10:18:16Z</time>
      </trkpt>
      <trkpt lat="44.07772" lon="2.2152">
        <ele>357.27</ele>
        <time>2014-03-18T10:18:29Z</time>
      </trkpt>
      <trkpt lat="44.07775" lon="2.21546">
        <ele>358.71</ele>
        <time>2014-03-18T10:18:45Z</time>
      </trkpt>
      <trkpt lat="44.07782" lon="2.21554">
        <ele>359.67</ele>
        <time>2014-03-18T10:18:54Z</time>
      </trkpt>
      <trkpt lat="44.07789" lon="2.21554">
        <ele>360.15</ele>
        <time>2014-03-18T10:19:00Z</time>
      </trkpt>
      <trkpt lat="44.07791" lon="2.21555">
        <ele>360.15</ele>
        <time>2014-03-18T10:19:02Z</time>
      </trkpt>
      <trkpt lat="44.07796" lon="2.21559">
        <ele>360.15</ele>
        <time>2014-03-18T10:19:07Z</time>
      </trkpt>
      <trkpt lat="44.07806" lon="2.2156">
        <ele>360.15</ele>
        <time>2014-03-18T10:19:17Z</time>
      </trkpt>
      <trkpt lat="44.0781" lon="2.21561">
        <ele>360.15</ele>
        <time>2014-03-18T10:19:20Z</time>
      </trkpt>
      <trkpt lat="44.07813" lon="2.21561">
        <ele>359.67</ele>
        <time>2014-03-18T10:19:22Z</time>
      </trkpt>
      <trkpt lat="44.07827" lon="2.21568">
        <ele>359.19</ele>
        <time>2014-03-18T10:19:37Z</time>
      </trkpt>
      <trkpt lat="44.07827" lon="2.21568">
        <ele>360.63</ele>
        <time>2014-03-18T10:19:59Z</time>
      </trkpt>
      <trkpt lat="44.07827" lon="2.21567">
        <ele>360.15</ele>
        <time>2014-03-18T10:20:23Z</time>
      </trkpt>
      <trkpt lat="44.07827" lon="2.21567">
        <ele>359.67</ele>
        <time>2014-03-18T10:20:46Z</time>
      </trkpt>
      <trkpt lat="44.07827" lon="2.21566">
        <ele>360.15</ele>
        <time>2014-03-18T10:21:08Z</time>
      </trkpt>
      <trkpt lat="44.07828" lon="2.21569">
        <ele>360.15</ele>
        <time>2014-03-18T10:21:10Z</time>
      </trkpt>
      <trkpt lat="44.07829" lon="2.21573">
        <ele>361.11</ele>
        <time>2014-03-18T10:21:13Z</time>
      </trkpt>
      <trkpt lat="44.07833" lon="2.21578">
        <ele>361.59</ele>
        <time>2014-03-18T10:21:18Z</time>
      </trkpt>
      <trkpt lat="44.0784" lon="2.21587">
        <ele>360.15</ele>
        <time>2014-03-18T10:21:27Z</time>
      </trkpt>
      <trkpt lat="44.07842" lon="2.2161">
        <ele>356.31</ele>
        <time>2014-03-18T10:21:40Z</time>
      </trkpt>
      <trkpt lat="44.07842" lon="2.21628">
        <ele>355.83</ele>
        <time>2014-03-18T10:21:54Z</time>
      </trkpt>
      <trkpt lat="44.07843" lon="2.2163">
        <ele>355.83</ele>
        <time>2014-03-18T10:21:55Z</time>
      </trkpt>
      <trkpt lat="44.07843" lon="2.21647">
        <ele>356.79</ele>
        <time>2014-03-18T10:22:07Z</time>
      </trkpt>
      <trkpt lat="44.07843" lon="2.2166">
        <ele>357.75</ele>
        <time>2014-03-18T10:22:15Z</time>
      </trkpt>
      <trkpt lat="44.07841" lon="2.21671">
        <ele>357.75</ele>
        <time>2014-03-18T10:22:20Z</time>
      </trkpt>
      <trkpt lat="44.07843" lon="2.21706">
        <ele>356.31</ele>
        <time>2014-03-18T10:22:41Z</time>
      </trkpt>
      <trkpt lat="44.07842" lon="2.21711">
        <ele>357.27</ele>
        <time>2014-03-18T10:22:43Z</time>
      </trkpt>
      <trkpt lat="44.07845" lon="2.21729">
        <ele>357.27</ele>
        <time>2014-03-18T10:22:55Z</time>
      </trkpt>
      <trkpt lat="44.07847" lon="2.21735">
        <ele>356.31</ele>
        <time>2014-03-18T10:23:08Z</time>
      </trkpt>
      <trkpt lat="44.07853" lon="2.21757">
        <ele>360.63</ele>
        <time>2014-03-18T10:23:21Z</time>
      </trkpt>
      <trkpt lat="44.0786" lon="2.2177">
        <ele>361.11</ele>
        <time>2014-03-18T10:23:31Z</time>
      </trkpt>
      <trkpt lat="44.07865" lon="2.21786">
        <ele>359.67</ele>
        <time>2014-03-18T10:23:44Z</time>
      </trkpt>
      <trkpt lat="44.07877" lon="2.21808">
        <ele>360.63</ele>
        <time>2014-03-18T10:24:00Z</time>
      </trkpt>
      <trkpt lat="44.07887" lon="2.21827">
        <ele>361.59</ele>
        <time>2014-03-18T10:24:14Z</time>
      </trkpt>
      <trkpt lat="44.07888" lon="2.2183">
        <ele>361.11</ele>
        <time>2014-03-18T10:24:16Z</time>
      </trkpt>
      <trkpt lat="44.07897" lon="2.21843">
        <ele>362.55</ele>
        <time>2014-03-18T10:24:26Z</time>
      </trkpt>
      <trkpt lat="44.07907" lon="2.2186">
        <ele>363.04</ele>
        <time>2014-03-18T10:24:40Z</time>
      </trkpt>
      <trkpt lat="44.07911" lon="2.21868">
        <ele>362.55</ele>
        <time>2014-03-18T10:24:46Z</time>
      </trkpt>
      <trkpt lat="44.07916" lon="2.21883">
        <ele>360.15</ele>
        <time>2014-03-18T10:24:59Z</time>
      </trkpt>
      <trkpt lat="44.07921" lon="2.2189">
        <ele>359.19</ele>
        <time>2014-03-18T10:25:07Z</time>
      </trkpt>
      <trkpt lat="44.07932" lon="2.21908">
        <ele>359.67</ele>
        <time>2014-03-18T10:25:21Z</time>
      </trkpt>
      <trkpt lat="44.07938" lon="2.21914">
        <ele>359.67</ele>
        <time>2014-03-18T10:25:27Z</time>
      </trkpt>
      <trkpt lat="44.07943" lon="2.21917">
        <ele>360.15</ele>
        <time>2014-03-18T10:25:31Z</time>
      </trkpt>
      <trkpt lat="44.07948" lon="2.21923">
        <ele>361.59</ele>
        <time>2014-03-18T10:25:36Z</time>
      </trkpt>
      <trkpt lat="44.07961" lon="2.21937">
        <ele>363.52</ele>
        <time>2014-03-18T10:25:51Z</time>
      </trkpt>
      <trkpt lat="44.07972" lon="2.21953">
        <ele>363.04</ele>
        <time>2014-03-18T10:26:06Z</time>
      </trkpt>
      <trkpt lat="44.07986" lon="2.21969">
        <ele>364.48</ele>
        <time>2014-03-18T10:26:22Z</time>
      </trkpt>
      <trkpt lat="44.07998" lon="2.2198">
        <ele>365.44</ele>
        <time>2014-03-18T10:26:35Z</time>
      </trkpt>
      <trkpt lat="44.08017" lon="2.21993">
        <ele>365.44</ele>
        <time>2014-03-18T10:26:53Z</time>
      </trkpt>
      <trkpt lat="44.08034" lon="2.22005">
        <ele>364.96</ele>
        <time>2014-03-18T10:27:09Z</time>
      </trkpt>
      <trkpt lat="44.08042" lon="2.22011">
        <ele>364</ele>
        <time>2014-03-18T10:27:17Z</time>
      </trkpt>
      <trkpt lat="44.08059" lon="2.22021">
        <ele>363.04</ele>
        <time>2014-03-18T10:27:33Z</time>
      </trkpt>
      <trkpt lat="44.08076" lon="2.2203">
        <ele>362.55</ele>
        <time>2014-03-18T10:27:48Z</time>
      </trkpt>
      <trkpt lat="44.08093" lon="2.22041">
        <ele>361.59</ele>
        <time>2014-03-18T10:28:06Z</time>
      </trkpt>
      <trkpt lat="44.08099" lon="2.22046">
        <ele>361.11</ele>
        <time>2014-03-18T10:28:18Z</time>
      </trkpt>
      <trkpt lat="44.081" lon="2.22047">
        <ele>361.11</ele>
        <time>2014-03-18T10:28:23Z</time>
      </trkpt>
      <trkpt lat="44.08103" lon="2.22059">
        <ele>360.63</ele>
        <time>2014-03-18T10:28:31Z</time>
      </trkpt>
      <trkpt lat="44.08104" lon="2.22066">
        <ele>361.59</ele>
        <time>2014-03-18T10:28:35Z</time>
      </trkpt>
      <trkpt lat="44.08113" lon="2.22088">
        <ele>361.11</ele>
        <time>2014-03-18T10:28:51Z</time>
      </trkpt>
      <trkpt lat="44.08123" lon="2.22099">
        <ele>360.15</ele>
        <time>2014-03-18T10:29:04Z</time>
      </trkpt>
      <trkpt lat="44.08131" lon="2.22104">
        <ele>361.11</ele>
        <time>2014-03-18T10:29:10Z</time>
      </trkpt>
      <trkpt lat="44.08147" lon="2.22117">
        <ele>361.59</ele>
        <time>2014-03-18T10:29:26Z</time>
      </trkpt>
      <trkpt lat="44.08162" lon="2.22128">
        <ele>361.11</ele>
        <time>2014-03-18T10:29:41Z</time>
      </trkpt>
      <trkpt lat="44.08179" lon="2.22138">
        <ele>362.07</ele>
        <time>2014-03-18T10:29:57Z</time>
      </trkpt>
      <trkpt lat="44.08195" lon="2.22149">
        <ele>362.07</ele>
        <time>2014-03-18T10:30:12Z</time>
      </trkpt>
      <trkpt lat="44.082" lon="2.22154">
        <ele>361.59</ele>
        <time>2014-03-18T10:30:18Z</time>
      </trkpt>
      <trkpt lat="44.08205" lon="2.22158">
        <ele>362.07</ele>
        <time>2014-03-18T10:30:24Z</time>
      </trkpt>
      <trkpt lat="44.08224" lon="2.22173">
        <ele>361.59</ele>
        <time>2014-03-18T10:30:43Z</time>
      </trkpt>
      <trkpt lat="44.08237" lon="2.22183">
        <ele>362.07</ele>
        <time>2014-03-18T10:30:55Z</time>
      </trkpt>
      <trkpt lat="44.08252" lon="2.22196">
        <ele>360.63</ele>
        <time>2014-03-18T10:31:08Z</time>
      </trkpt>
      <trkpt lat="44.08268" lon="2.22207">
        <ele>358.23</ele>
        <time>2014-03-18T10:31:24Z</time>
      </trkpt>
      <trkpt lat="44.0828" lon="2.22214">
        <ele>356.31</ele>
        <time>2014-03-18T10:31:37Z</time>
      </trkpt>
      <trkpt lat="44.08289" lon="2.22221">
        <ele>355.34</ele>
        <time>2014-03-18T10:31:47Z</time>
      </trkpt>
      <trkpt lat="44.08292" lon="2.22222">
        <ele>354.86</ele>
        <time>2014-03-18T10:31:50Z</time>
      </trkpt>
      <trkpt lat="44.08308" lon="2.22233">
        <ele>354.86</ele>
        <time>2014-03-18T10:32:06Z</time>
      </trkpt>
      <trkpt lat="44.0832" lon="2.22244">
        <ele>355.34</ele>
        <time>2014-03-18T10:32:18Z</time>
      </trkpt>
      <trkpt lat="44.08331" lon="2.22252">
        <ele>353.42</ele>
        <time>2014-03-18T10:32:29Z</time>
      </trkpt>
      <trkpt lat="44.08338" lon="2.22256">
        <ele>352.94</ele>
        <time>2014-03-18T10:32:36Z</time>
      </trkpt>
      <trkpt lat="44.08344" lon="2.22258">
        <ele>351.98</ele>
        <time>2014-03-18T10:32:42Z</time>
      </trkpt>
      <trkpt lat="44.0835" lon="2.22257">
        <ele>351.5</ele>
        <time>2014-03-18T10:32:46Z</time>
      </trkpt>
      <trkpt lat="44.08375" lon="2.22261">
        <ele>350.06</ele>
        <time>2014-03-18T10:33:05Z</time>
      </trkpt>
      <trkpt lat="44.0838" lon="2.22263">
        <ele>350.06</ele>
        <time>2014-03-18T10:33:10Z</time>
      </trkpt>
      <trkpt lat="44.08396" lon="2.22271">
        <ele>346.69</ele>
        <time>2014-03-18T10:33:24Z</time>
      </trkpt>
      <trkpt lat="44.08408" lon="2.22276">
        <ele>344.29</ele>
        <time>2014-03-18T10:33:35Z</time>
      </trkpt>
      <trkpt lat="44.08417" lon="2.2228">
        <ele>341.41</ele>
        <time>2014-03-18T10:33:51Z</time>
      </trkpt>
      <trkpt lat="44.08427" lon="2.22282">
        <ele>339.48</ele>
        <time>2014-03-18T10:34:02Z</time>
      </trkpt>
      <trkpt lat="44.08432" lon="2.22282">
        <ele>339.96</ele>
        <time>2014-03-18T10:34:09Z</time>
      </trkpt>
      <trkpt lat="44.08443" lon="2.22287">
        <ele>338.52</ele>
        <time>2014-03-18T10:34:19Z</time>
      </trkpt>
      <trkpt lat="44.08449" lon="2.2229">
        <ele>339</ele>
        <time>2014-03-18T10:34:26Z</time>
      </trkpt>
      <trkpt lat="44.08458" lon="2.22291">
        <ele>339</ele>
        <time>2014-03-18T10:34:33Z</time>
      </trkpt>
      <trkpt lat="44.08478" lon="2.22298">
        <ele>338.04</ele>
        <time>2014-03-18T10:34:47Z</time>
      </trkpt>
      <trkpt lat="44.08481" lon="2.223">
        <ele>337.56</ele>
        <time>2014-03-18T10:34:50Z</time>
      </trkpt>
      <trkpt lat="44.08488" lon="2.22303">
        <ele>334.68</ele>
        <time>2014-03-18T10:34:56Z</time>
      </trkpt>
      <trkpt lat="44.08494" lon="2.22308">
        <ele>333.23</ele>
        <time>2014-03-18T10:35:10Z</time>
      </trkpt>
      <trkpt lat="44.08501" lon="2.22315">
        <ele>331.31</ele>
        <time>2014-03-18T10:35:17Z</time>
      </trkpt>
      <trkpt lat="44.08506" lon="2.22322">
        <ele>330.35</ele>
        <time>2014-03-18T10:35:24Z</time>
      </trkpt>
      <trkpt lat="44.08508" lon="2.22325">
        <ele>329.87</ele>
        <time>2014-03-18T10:35:27Z</time>
      </trkpt>
      <trkpt lat="44.08521" lon="2.22336">
        <ele>328.91</ele>
        <time>2014-03-18T10:35:39Z</time>
      </trkpt>
      <trkpt lat="44.08534" lon="2.2235">
        <ele>327.47</ele>
        <time>2014-03-18T10:35:53Z</time>
      </trkpt>
      <trkpt lat="44.08535" lon="2.2235">
        <ele>327.47</ele>
        <time>2014-03-18T10:35:54Z</time>
      </trkpt>
      <trkpt lat="44.08537" lon="2.22351">
        <ele>326.99</ele>
        <time>2014-03-18T10:35:56Z</time>
      </trkpt>
      <trkpt lat="44.0855" lon="2.22356">
        <ele>321.7</ele>
        <time>2014-03-18T10:36:11Z</time>
      </trkpt>
      <trkpt lat="44.08554" lon="2.22356">
        <ele>320.74</ele>
        <time>2014-03-18T10:36:18Z</time>
      </trkpt>
      <trkpt lat="44.08557" lon="2.22362">
        <ele>319.3</ele>
        <time>2014-03-18T10:36:23Z</time>
      </trkpt>
      <trkpt lat="44.08555" lon="2.22369">
        <ele>318.33</ele>
        <time>2014-03-18T10:36:28Z</time>
      </trkpt>
      <trkpt lat="44.08554" lon="2.22373">
        <ele>317.85</ele>
        <time>2014-03-18T10:36:31Z</time>
      </trkpt>
      <trkpt lat="44.08552" lon="2.22385">
        <ele>318.33</ele>
        <time>2014-03-18T10:36:39Z</time>
      </trkpt>
      <trkpt lat="44.08549" lon="2.22392">
        <ele>317.37</ele>
        <time>2014-03-18T10:36:44Z</time>
      </trkpt>
      <trkpt lat="44.08546" lon="2.22401">
        <ele>316.41</ele>
        <time>2014-03-18T10:36:51Z</time>
      </trkpt>
      <trkpt lat="44.08547" lon="2.22404">
        <ele>316.41</ele>
        <time>2014-03-18T10:36:53Z</time>
      </trkpt>
      <trkpt lat="44.08554" lon="2.22405">
        <ele>315.93</ele>
        <time>2014-03-18T10:37:00Z</time>
      </trkpt>
      <trkpt lat="44.0856" lon="2.22402">
        <ele>315.45</ele>
        <time>2014-03-18T10:37:06Z</time>
      </trkpt>
      <trkpt lat="44.08566" lon="2.22401">
        <ele>313.53</ele>
        <time>2014-03-18T10:37:13Z</time>
      </trkpt>
      <trkpt lat="44.08569" lon="2.22401">
        <ele>313.05</ele>
        <time>2014-03-18T10:37:16Z</time>
      </trkpt>
      <trkpt lat="44.08586" lon="2.22395">
        <ele>310.16</ele>
        <time>2014-03-18T10:37:30Z</time>
      </trkpt>
      <trkpt lat="44.08595" lon="2.22396">
        <ele>307.76</ele>
        <time>2014-03-18T10:37:45Z</time>
      </trkpt>
      <trkpt lat="44.08599" lon="2.22399">
        <ele>308.24</ele>
        <time>2014-03-18T10:37:54Z</time>
      </trkpt>
      <trkpt lat="44.08601" lon="2.22404">
        <ele>307.28</ele>
        <time>2014-03-18T10:37:59Z</time>
      </trkpt>
      <trkpt lat="44.08608" lon="2.22426">
        <ele>306.8</ele>
        <time>2014-03-18T10:38:13Z</time>
      </trkpt>
      <trkpt lat="44.08609" lon="2.2243">
        <ele>306.8</ele>
        <time>2014-03-18T10:38:16Z</time>
      </trkpt>
      <trkpt lat="44.08611" lon="2.22449">
        <ele>306.8</ele>
        <time>2014-03-18T10:38:28Z</time>
      </trkpt>
      <trkpt lat="44.08602" lon="2.22466">
        <ele>306.8</ele>
        <time>2014-03-18T10:38:43Z</time>
      </trkpt>
      <trkpt lat="44.08594" lon="2.22477">
        <ele>306.32</ele>
        <time>2014-03-18T10:38:52Z</time>
      </trkpt>
      <trkpt lat="44.08582" lon="2.22488">
        <ele>306.8</ele>
        <time>2014-03-18T10:39:04Z</time>
      </trkpt>
      <trkpt lat="44.08571" lon="2.22498">
        <ele>308.24</ele>
        <time>2014-03-18T10:39:20Z</time>
      </trkpt>
      <trkpt lat="44.0856" lon="2.22509">
        <ele>308.72</ele>
        <time>2014-03-18T10:39:33Z</time>
      </trkpt>
      <trkpt lat="44.08549" lon="2.22519">
        <ele>310.16</ele>
        <time>2014-03-18T10:39:45Z</time>
      </trkpt>
      <trkpt lat="44.08537" lon="2.2253">
        <ele>312.09</ele>
        <time>2014-03-18T10:39:58Z</time>
      </trkpt>
      <trkpt lat="44.08524" lon="2.22544">
        <ele>314.01</ele>
        <time>2014-03-18T10:40:12Z</time>
      </trkpt>
      <trkpt lat="44.08514" lon="2.22556">
        <ele>314.97</ele>
        <time>2014-03-18T10:40:24Z</time>
      </trkpt>
      <trkpt lat="44.08507" lon="2.22566">
        <ele>318.33</ele>
        <time>2014-03-18T10:40:34Z</time>
      </trkpt>
      <trkpt lat="44.08504" lon="2.22576">
        <ele>319.3</ele>
        <time>2014-03-18T10:40:42Z</time>
      </trkpt>
      <trkpt lat="44.08504" lon="2.22597">
        <ele>320.74</ele>
        <time>2014-03-18T10:40:55Z</time>
      </trkpt>
      <trkpt lat="44.08505" lon="2.22601">
        <ele>321.7</ele>
        <time>2014-03-18T10:40:57Z</time>
      </trkpt>
      <trkpt lat="44.08509" lon="2.22615">
        <ele>322.18</ele>
        <time>2014-03-18T10:41:06Z</time>
      </trkpt>
      <trkpt lat="44.08519" lon="2.2263">
        <ele>326.02</ele>
        <time>2014-03-18T10:41:21Z</time>
      </trkpt>
      <trkpt lat="44.08535" lon="2.22629">
        <ele>327.95</ele>
        <time>2014-03-18T10:41:35Z</time>
      </trkpt>
      <trkpt lat="44.0855" lon="2.22619">
        <ele>327.47</ele>
        <time>2014-03-18T10:41:51Z</time>
      </trkpt>
      <trkpt lat="44.08565" lon="2.22611">
        <ele>327.47</ele>
        <time>2014-03-18T10:42:05Z</time>
      </trkpt>
      <trkpt lat="44.0858" lon="2.22605">
        <ele>328.43</ele>
        <time>2014-03-18T10:42:20Z</time>
      </trkpt>
      <trkpt lat="44.08595" lon="2.22602">
        <ele>330.83</ele>
        <time>2014-03-18T10:42:34Z</time>
      </trkpt>
      <trkpt lat="44.08611" lon="2.22598">
        <ele>335.16</ele>
        <time>2014-03-18T10:42:49Z</time>
      </trkpt>
      <trkpt lat="44.08627" lon="2.22596">
        <ele>336.12</ele>
        <time>2014-03-18T10:43:06Z</time>
      </trkpt>
      <trkpt lat="44.0864" lon="2.22602">
        <ele>336.12</ele>
        <time>2014-03-18T10:43:21Z</time>
      </trkpt>
      <trkpt lat="44.08648" lon="2.22607">
        <ele>335.64</ele>
        <time>2014-03-18T10:43:33Z</time>
      </trkpt>
      <trkpt lat="44.08659" lon="2.22613">
        <ele>335.16</ele>
        <time>2014-03-18T10:43:46Z</time>
      </trkpt>
      <trkpt lat="44.08668" lon="2.2262">
        <ele>334.68</ele>
        <time>2014-03-18T10:43:57Z</time>
      </trkpt>
      <trkpt lat="44.08679" lon="2.22625">
        <ele>335.16</ele>
        <time>2014-03-18T10:44:09Z</time>
      </trkpt>
      <trkpt lat="44.08696" lon="2.22632">
        <ele>334.2</ele>
        <time>2014-03-18T10:44:25Z</time>
      </trkpt>
      <trkpt lat="44.08702" lon="2.22636">
        <ele>333.71</ele>
        <time>2014-03-18T10:44:40Z</time>
      </trkpt>
      <trkpt lat="44.08709" lon="2.22639">
        <ele>333.71</ele>
        <time>2014-03-18T10:44:48Z</time>
      </trkpt>
      <trkpt lat="44.08711" lon="2.2264">
        <ele>333.23</ele>
        <time>2014-03-18T10:44:50Z</time>
      </trkpt>
      <trkpt lat="44.08724" lon="2.22644">
        <ele>331.31</ele>
        <time>2014-03-18T10:45:04Z</time>
      </trkpt>
      <trkpt lat="44.08725" lon="2.22644">
        <ele>331.31</ele>
        <time>2014-03-18T10:45:05Z</time>
      </trkpt>
      <trkpt lat="44.08727" lon="2.22644">
        <ele>331.31</ele>
        <time>2014-03-18T10:45:07Z</time>
      </trkpt>
      <trkpt lat="44.08741" lon="2.22646">
        <ele>328.91</ele>
        <time>2014-03-18T10:45:19Z</time>
      </trkpt>
      <trkpt lat="44.08751" lon="2.22651">
        <ele>327.95</ele>
        <time>2014-03-18T10:45:29Z</time>
      </trkpt>
      <trkpt lat="44.08767" lon="2.22658">
        <ele>326.99</ele>
        <time>2014-03-18T10:45:44Z</time>
      </trkpt>
      <trkpt lat="44.08774" lon="2.22661">
        <ele>324.58</ele>
        <time>2014-03-18T10:45:50Z</time>
      </trkpt>
      <trkpt lat="44.08785" lon="2.22667">
        <ele>322.18</ele>
        <time>2014-03-18T10:46:02Z</time>
      </trkpt>
      <trkpt lat="44.08794" lon="2.22674">
        <ele>319.78</ele>
        <time>2014-03-18T10:46:14Z</time>
      </trkpt>
      <trkpt lat="44.08803" lon="2.2268">
        <ele>318.33</ele>
        <time>2014-03-18T10:46:24Z</time>
      </trkpt>
      <trkpt lat="44.08805" lon="2.22681">
        <ele>317.85</ele>
        <time>2014-03-18T10:46:26Z</time>
      </trkpt>
      <trkpt lat="44.08823" lon="2.2269">
        <ele>315.45</ele>
        <time>2014-03-18T10:46:44Z</time>
      </trkpt>
      <trkpt lat="44.08836" lon="2.22703">
        <ele>311.12</ele>
        <time>2014-03-18T10:47:00Z</time>
      </trkpt>
      <trkpt lat="44.08842" lon="2.22708">
        <ele>309.2</ele>
        <time>2014-03-18T10:47:08Z</time>
      </trkpt>
      <trkpt lat="44.08846" lon="2.2271">
        <ele>308.24</ele>
        <time>2014-03-18T10:47:11Z</time>
      </trkpt>
      <trkpt lat="44.0886" lon="2.22721">
        <ele>306.8</ele>
        <time>2014-03-18T10:47:25Z</time>
      </trkpt>
      <trkpt lat="44.08866" lon="2.22729">
        <ele>307.28</ele>
        <time>2014-03-18T10:47:32Z</time>
      </trkpt>
      <trkpt lat="44.08878" lon="2.2274">
        <ele>307.76</ele>
        <time>2014-03-18T10:47:45Z</time>
      </trkpt>
      <trkpt lat="44.08882" lon="2.22748">
        <ele>304.88</ele>
        <time>2014-03-18T10:47:55Z</time>
      </trkpt>
      <trkpt lat="44.08883" lon="2.22748">
        <ele>305.36</ele>
        <time>2014-03-18T10:48:10Z</time>
      </trkpt>
      <trkpt lat="44.08883" lon="2.22749">
        <ele>304.88</ele>
        <time>2014-03-18T10:48:17Z</time>
      </trkpt>
      <trkpt lat="44.08886" lon="2.22754">
        <ele>304.88</ele>
        <time>2014-03-18T10:48:23Z</time>
      </trkpt>
      <trkpt lat="44.08892" lon="2.22759">
        <ele>304.39</ele>
        <time>2014-03-18T10:48:36Z</time>
      </trkpt>
      <trkpt lat="44.08896" lon="2.22764">
        <ele>303.91</ele>
        <time>2014-03-18T10:48:41Z</time>
      </trkpt>
      <trkpt lat="44.08898" lon="2.22778">
        <ele>304.88</ele>
        <time>2014-03-18T10:48:54Z</time>
      </trkpt>
      <trkpt lat="44.08889" lon="2.22785">
        <ele>306.32</ele>
        <time>2014-03-18T10:49:06Z</time>
      </trkpt>
      <trkpt lat="44.08889" lon="2.22788">
        <ele>306.32</ele>
        <time>2014-03-18T10:49:23Z</time>
      </trkpt>
      <trkpt lat="44.08888" lon="2.22789">
        <ele>305.36</ele>
        <time>2014-03-18T10:49:42Z</time>
      </trkpt>
      <trkpt lat="44.08887" lon="2.2279">
        <ele>304.88</ele>
        <time>2014-03-18T10:50:00Z</time>
      </trkpt>
      <trkpt lat="44.08887" lon="2.22791">
        <ele>304.88</ele>
        <time>2014-03-18T10:50:20Z</time>
      </trkpt>
      <trkpt lat="44.08886" lon="2.22791">
        <ele>304.39</ele>
        <time>2014-03-18T10:50:42Z</time>
      </trkpt>
      <trkpt lat="44.08886" lon="2.2279">
        <ele>304.39</ele>
        <time>2014-03-18T10:51:05Z</time>
      </trkpt>
      <trkpt lat="44.08885" lon="2.2279">
        <ele>304.39</ele>
        <time>2014-03-18T10:51:32Z</time>
      </trkpt>
      <trkpt lat="44.08884" lon="2.22791">
        <ele>304.39</ele>
        <time>2014-03-18T10:51:58Z</time>
      </trkpt>
      <trkpt lat="44.08884" lon="2.22791">
        <ele>304.39</ele>
        <time>2014-03-18T10:52:25Z</time>
      </trkpt>
      <trkpt lat="44.08884" lon="2.2279">
        <ele>304.88</ele>
        <time>2014-03-18T10:52:53Z</time>
      </trkpt>
      <trkpt lat="44.08884" lon="2.2279">
        <ele>305.36</ele>
        <time>2014-03-18T10:53:18Z</time>
      </trkpt>
      <trkpt lat="44.08883" lon="2.22789">
        <ele>305.36</ele>
        <time>2014-03-18T10:53:45Z</time>
      </trkpt>
      <trkpt lat="44.08883" lon="2.2279">
        <ele>305.36</ele>
        <time>2014-03-18T10:54:13Z</time>
      </trkpt>
      <trkpt lat="44.08884" lon="2.22788">
        <ele>305.36</ele>
        <time>2014-03-18T10:54:42Z</time>
      </trkpt>
      <trkpt lat="44.08883" lon="2.22788">
        <ele>305.84</ele>
        <time>2014-03-18T10:55:08Z</time>
      </trkpt>
      <trkpt lat="44.08883" lon="2.22788">
        <ele>305.84</ele>
        <time>2014-03-18T10:55:35Z</time>
      </trkpt>
      <trkpt lat="44.08882" lon="2.22789">
        <ele>305.84</ele>
        <time>2014-03-18T10:55:59Z</time>
      </trkpt>
      <trkpt lat="44.08882" lon="2.22788">
        <ele>305.36</ele>
        <time>2014-03-18T10:56:32Z</time>
      </trkpt>
      <trkpt lat="44.08881" lon="2.22788">
        <ele>305.84</ele>
        <time>2014-03-18T10:57:03Z</time>
      </trkpt>
      <trkpt lat="44.08881" lon="2.22787">
        <ele>305.84</ele>
        <time>2014-03-18T10:57:29Z</time>
      </trkpt>
      <trkpt lat="44.08882" lon="2.22786">
        <ele>306.32</ele>
        <time>2014-03-18T10:57:58Z</time>
      </trkpt>
      <trkpt lat="44.08881" lon="2.22787">
        <ele>306.8</ele>
        <time>2014-03-18T10:58:25Z</time>
      </trkpt>
      <trkpt lat="44.0888" lon="2.22787">
        <ele>307.76</ele>
        <time>2014-03-18T10:59:00Z</time>
      </trkpt>
      <trkpt lat="44.0888" lon="2.22787">
        <ele>308.72</ele>
        <time>2014-03-18T10:59:29Z</time>
      </trkpt>
      <trkpt lat="44.0888" lon="2.22787">
        <ele>308.24</ele>
        <time>2014-03-18T10:59:55Z</time>
      </trkpt>
      <trkpt lat="44.08881" lon="2.22787">
        <ele>309.2</ele>
        <time>2014-03-18T11:00:24Z</time>
      </trkpt>
      <trkpt lat="44.08881" lon="2.22788">
        <ele>310.16</ele>
        <time>2014-03-18T11:00:52Z</time>
      </trkpt>
      <trkpt lat="44.08881" lon="2.22787">
        <ele>309.2</ele>
        <time>2014-03-18T11:01:16Z</time>
      </trkpt>
      <trkpt lat="44.08881" lon="2.22789">
        <ele>309.2</ele>
        <time>2014-03-18T11:01:45Z</time>
      </trkpt>
      <trkpt lat="44.08881" lon="2.22788">
        <ele>308.72</ele>
        <time>2014-03-18T11:02:18Z</time>
      </trkpt>
      <trkpt lat="44.0888" lon="2.22788">
        <ele>308.72</ele>
        <time>2014-03-18T11:02:49Z</time>
      </trkpt>
      <trkpt lat="44.08879" lon="2.22787">
        <ele>306.8</ele>
        <time>2014-03-18T11:03:27Z</time>
      </trkpt>
      <trkpt lat="44.08879" lon="2.22788">
        <ele>307.28</ele>
        <time>2014-03-18T11:03:54Z</time>
      </trkpt>
      <trkpt lat="44.0888" lon="2.22787">
        <ele>308.72</ele>
        <time>2014-03-18T11:04:22Z</time>
      </trkpt>
      <trkpt lat="44.08881" lon="2.22788">
        <ele>308.72</ele>
        <time>2014-03-18T11:04:41Z</time>
      </trkpt>
      <trkpt lat="44.08881" lon="2.22788">
        <ele>309.2</ele>
        <time>2014-03-18T11:05:06Z</time>
      </trkpt>
      <trkpt lat="44.08882" lon="2.22788">
        <ele>309.2</ele>
        <time>2014-03-18T11:05:29Z</time>
      </trkpt>
      <trkpt lat="44.08881" lon="2.22788">
        <ele>309.2</ele>
        <time>2014-03-18T11:05:55Z</time>
      </trkpt>
      <trkpt lat="44.08881" lon="2.22787">
        <ele>309.2</ele>
        <time>2014-03-18T11:06:12Z</time>
      </trkpt>
      <trkpt lat="44.08881" lon="2.22786">
        <ele>309.68</ele>
        <time>2014-03-18T11:06:28Z</time>
      </trkpt>
      <trkpt lat="44.08881" lon="2.22786">
        <ele>309.68</ele>
        <time>2014-03-18T11:06:41Z</time>
      </trkpt>
      <trkpt lat="44.0888" lon="2.22784">
        <ele>310.16</ele>
        <time>2014-03-18T11:06:59Z</time>
      </trkpt>
      <trkpt lat="44.08879" lon="2.22785">
        <ele>310.16</ele>
        <time>2014-03-18T11:07:27Z</time>
      </trkpt>
      <trkpt lat="44.0888" lon="2.22786">
        <ele>310.64</ele>
        <time>2014-03-18T11:08:01Z</time>
      </trkpt>
      <trkpt lat="44.08879" lon="2.22786">
        <ele>310.16</ele>
        <time>2014-03-18T11:08:29Z</time>
      </trkpt>
      <trkpt lat="44.08879" lon="2.22784">
        <ele>310.64</ele>
        <time>2014-03-18T11:08:57Z</time>
      </trkpt>
      <trkpt lat="44.08879" lon="2.22785">
        <ele>309.68</ele>
        <time>2014-03-18T11:09:30Z</time>
      </trkpt>
      <trkpt lat="44.08879" lon="2.22786">
        <ele>309.68</ele>
        <time>2014-03-18T11:10:00Z</time>
      </trkpt>
      <trkpt lat="44.0888" lon="2.22786">
        <ele>310.16</ele>
        <time>2014-03-18T11:10:36Z</time>
      </trkpt>
      <trkpt lat="44.0888" lon="2.22787">
        <ele>310.64</ele>
        <time>2014-03-18T11:11:06Z</time>
      </trkpt>
      <trkpt lat="44.08881" lon="2.22787">
        <ele>310.64</ele>
        <time>2014-03-18T11:11:31Z</time>
      </trkpt>
      <trkpt lat="44.08882" lon="2.22788">
        <ele>311.12</ele>
        <time>2014-03-18T11:11:54Z</time>
      </trkpt>
      <trkpt lat="44.08882" lon="2.22788">
        <ele>310.64</ele>
        <time>2014-03-18T11:12:24Z</time>
      </trkpt>
      <trkpt lat="44.08882" lon="2.22787">
        <ele>309.68</ele>
        <time>2014-03-18T11:12:47Z</time>
      </trkpt>
      <trkpt lat="44.08882" lon="2.22787">
        <ele>309.2</ele>
        <time>2014-03-18T11:13:14Z</time>
      </trkpt>
      <trkpt lat="44.08882" lon="2.22787">
        <ele>309.68</ele>
        <time>2014-03-18T11:13:44Z</time>
      </trkpt>
      <trkpt lat="44.08882" lon="2.22787">
        <ele>310.16</ele>
        <time>2014-03-18T11:14:13Z</time>
      </trkpt>
      <trkpt lat="44.08882" lon="2.22788">
        <ele>310.64</ele>
        <time>2014-03-18T11:14:35Z</time>
      </trkpt>
      <trkpt lat="44.08883" lon="2.22785">
        <ele>311.12</ele>
        <time>2014-03-18T11:15:00Z</time>
      </trkpt>
      <trkpt lat="44.08884" lon="2.22785">
        <ele>310.64</ele>
        <time>2014-03-18T11:15:30Z</time>
      </trkpt>
      <trkpt lat="44.08884" lon="2.22785">
        <ele>310.64</ele>
        <time>2014-03-18T11:15:52Z</time>
      </trkpt>
      <trkpt lat="44.08884" lon="2.22785">
        <ele>310.16</ele>
        <time>2014-03-18T11:16:21Z</time>
      </trkpt>
      <trkpt lat="44.08883" lon="2.22786">
        <ele>311.12</ele>
        <time>2014-03-18T11:16:57Z</time>
      </trkpt>
      <trkpt lat="44.08883" lon="2.22786">
        <ele>311.12</ele>
        <time>2014-03-18T11:17:29Z</time>
      </trkpt>
      <trkpt lat="44.08883" lon="2.22787">
        <ele>310.64</ele>
        <time>2014-03-18T11:17:54Z</time>
      </trkpt>
      <trkpt lat="44.08884" lon="2.22788">
        <ele>310.64</ele>
        <time>2014-03-18T11:18:23Z</time>
      </trkpt>
      <trkpt lat="44.08884" lon="2.22786">
        <ele>309.68</ele>
        <time>2014-03-18T11:18:50Z</time>
      </trkpt>
      <trkpt lat="44.08884" lon="2.22787">
        <ele>308.72</ele>
        <time>2014-03-18T11:19:17Z</time>
      </trkpt>
      <trkpt lat="44.08883" lon="2.22787">
        <ele>309.2</ele>
        <time>2014-03-18T11:19:43Z</time>
      </trkpt>
      <trkpt lat="44.08882" lon="2.22787">
        <ele>309.2</ele>
        <time>2014-03-18T11:20:12Z</time>
      </trkpt>
      <trkpt lat="44.08882" lon="2.22787">
        <ele>309.2</ele>
        <time>2014-03-18T11:20:41Z</time>
      </trkpt>
      <trkpt lat="44.08882" lon="2.22787">
        <ele>309.2</ele>
        <time>2014-03-18T11:21:14Z</time>
      </trkpt>
      <trkpt lat="44.08882" lon="2.22786">
        <ele>310.16</ele>
        <time>2014-03-18T11:21:43Z</time>
      </trkpt>
      <trkpt lat="44.08882" lon="2.22786">
        <ele>310.16</ele>
        <time>2014-03-18T11:22:08Z</time>
      </trkpt>
      <trkpt lat="44.08882" lon="2.22786">
        <ele>310.16</ele>
        <time>2014-03-18T11:22:36Z</time>
      </trkpt>
      <trkpt lat="44.08882" lon="2.22786">
        <ele>309.68</ele>
        <time>2014-03-18T11:23:13Z</time>
      </trkpt>
      <trkpt lat="44.08882" lon="2.22786">
        <ele>310.16</ele>
        <time>2014-03-18T11:23:38Z</time>
      </trkpt>
      <trkpt lat="44.08882" lon="2.22786">
        <ele>311.6</ele>
        <time>2014-03-18T11:24:09Z</time>
      </trkpt>
      <trkpt lat="44.08882" lon="2.22786">
        <ele>312.09</ele>
        <time>2014-03-18T11:24:33Z</time>
      </trkpt>
      <trkpt lat="44.08882" lon="2.22787">
        <ele>312.09</ele>
        <time>2014-03-18T11:25:07Z</time>
      </trkpt>
      <trkpt lat="44.08881" lon="2.22788">
        <ele>311.6</ele>
        <time>2014-03-18T11:25:39Z</time>
      </trkpt>
      <trkpt lat="44.08882" lon="2.22789">
        <ele>312.57</ele>
        <time>2014-03-18T11:26:09Z</time>
      </trkpt>
      <trkpt lat="44.08882" lon="2.22789">
        <ele>313.53</ele>
        <time>2014-03-18T11:26:40Z</time>
      </trkpt>
      <trkpt lat="44.08883" lon="2.22789">
        <ele>314.01</ele>
        <time>2014-03-18T11:27:05Z</time>
      </trkpt>
      <trkpt lat="44.08882" lon="2.22788">
        <ele>314.49</ele>
        <time>2014-03-18T11:27:37Z</time>
      </trkpt>
      <trkpt lat="44.08882" lon="2.22789">
        <ele>314.97</ele>
        <time>2014-03-18T11:28:10Z</time>
      </trkpt>
      <trkpt lat="44.0888" lon="2.22788">
        <ele>316.89</ele>
        <time>2014-03-18T11:28:44Z</time>
      </trkpt>
      <trkpt lat="44.0888" lon="2.22788">
        <ele>317.37</ele>
        <time>2014-03-18T11:29:14Z</time>
      </trkpt>
      <trkpt lat="44.0888" lon="2.22788">
        <ele>317.37</ele>
        <time>2014-03-18T11:29:33Z</time>
      </trkpt>
      <trkpt lat="44.08879" lon="2.22787">
        <ele>317.37</ele>
        <time>2014-03-18T11:30:07Z</time>
      </trkpt>
      <trkpt lat="44.08881" lon="2.22785">
        <ele>316.89</ele>
        <time>2014-03-18T11:30:21Z</time>
      </trkpt>
      <trkpt lat="44.08881" lon="2.22782">
        <ele>316.89</ele>
        <time>2014-03-18T11:30:33Z</time>
      </trkpt>
      <trkpt lat="44.08881" lon="2.22781">
        <ele>317.37</ele>
        <time>2014-03-18T11:30:53Z</time>
      </trkpt>
      <trkpt lat="44.08882" lon="2.2278">
        <ele>317.37</ele>
        <time>2014-03-18T11:31:11Z</time>
      </trkpt>
      <trkpt lat="44.08882" lon="2.22781">
        <ele>317.85</ele>
        <time>2014-03-18T11:31:26Z</time>
      </trkpt>
      <trkpt lat="44.08881" lon="2.22782">
        <ele>318.81</ele>
        <time>2014-03-18T11:31:46Z</time>
      </trkpt>
      <trkpt lat="44.08883" lon="2.22781">
        <ele>318.81</ele>
        <time>2014-03-18T11:32:03Z</time>
      </trkpt>
      <trkpt lat="44.08883" lon="2.22781">
        <ele>318.33</ele>
        <time>2014-03-18T11:32:26Z</time>
      </trkpt>
      <trkpt lat="44.08883" lon="2.22781">
        <ele>317.85</ele>
        <time>2014-03-18T11:32:50Z</time>
      </trkpt>
      <trkpt lat="44.08883" lon="2.22782">
        <ele>318.33</ele>
        <time>2014-03-18T11:33:10Z</time>
      </trkpt>
      <trkpt lat="44.08883" lon="2.22782">
        <ele>318.33</ele>
        <time>2014-03-18T11:33:27Z</time>
      </trkpt>
      <trkpt lat="44.08884" lon="2.22782">
        <ele>317.85</ele>
        <time>2014-03-18T11:33:39Z</time>
      </trkpt>
      <trkpt lat="44.08884" lon="2.2278">
        <ele>317.85</ele>
        <time>2014-03-18T11:33:50Z</time>
      </trkpt>
      <trkpt lat="44.08885" lon="2.22779">
        <ele>317.37</ele>
        <time>2014-03-18T11:33:57Z</time>
      </trkpt>
      <trkpt lat="44.0889" lon="2.22776">
        <ele>317.85</ele>
        <time>2014-03-18T11:34:02Z</time>
      </trkpt>
      <trkpt lat="44.08892" lon="2.22765">
        <ele>317.37</ele>
        <time>2014-03-18T11:34:13Z</time>
      </trkpt>
      <trkpt lat="44.0889" lon="2.22769">
        <ele>313.53</ele>
        <time>2014-03-18T11:34:24Z</time>
      </trkpt>
      <trkpt lat="44.08897" lon="2.22779">
        <ele>313.05</ele>
        <time>2014-03-18T11:34:35Z</time>
      </trkpt>
      <trkpt lat="44.08897" lon="2.22784">
        <ele>313.05</ele>
        <time>2014-03-18T11:34:38Z</time>
      </trkpt>
      <trkpt lat="44.08888" lon="2.22794">
        <ele>314.49</ele>
        <time>2014-03-18T11:34:49Z</time>
      </trkpt>
      <trkpt lat="44.08886" lon="2.22794">
        <ele>313.53</ele>
        <time>2014-03-18T11:35:10Z</time>
      </trkpt>
      <trkpt lat="44.08886" lon="2.22794">
        <ele>313.05</ele>
        <time>2014-03-18T11:35:35Z</time>
      </trkpt>
      <trkpt lat="44.08885" lon="2.22793">
        <ele>312.57</ele>
        <time>2014-03-18T11:35:53Z</time>
      </trkpt>
      <trkpt lat="44.08885" lon="2.2279">
        <ele>312.57</ele>
        <time>2014-03-18T11:36:14Z</time>
      </trkpt>
      <trkpt lat="44.08885" lon="2.2279">
        <ele>313.53</ele>
        <time>2014-03-18T11:36:49Z</time>
      </trkpt>
      <trkpt lat="44.08883" lon="2.2279">
        <ele>314.97</ele>
        <time>2014-03-18T11:37:21Z</time>
      </trkpt>
      <trkpt lat="44.08883" lon="2.22789">
        <ele>314.97</ele>
        <time>2014-03-18T11:37:44Z</time>
      </trkpt>
      <trkpt lat="44.08883" lon="2.22789">
        <ele>315.93</ele>
        <time>2014-03-18T11:38:13Z</time>
      </trkpt>
      <trkpt lat="44.08883" lon="2.22788">
        <ele>315.93</ele>
        <time>2014-03-18T11:38:39Z</time>
      </trkpt>
      <trkpt lat="44.08884" lon="2.22786">
        <ele>315.45</ele>
        <time>2014-03-18T11:39:05Z</time>
      </trkpt>
      <trkpt lat="44.08891" lon="2.22786">
        <ele>314.49</ele>
        <time>2014-03-18T11:39:23Z</time>
      </trkpt>
      <trkpt lat="44.08893" lon="2.22791">
        <ele>313.05</ele>
        <time>2014-03-18T11:39:42Z</time>
      </trkpt>
      <trkpt lat="44.08894" lon="2.22795">
        <ele>310.64</ele>
        <time>2014-03-18T11:40:01Z</time>
      </trkpt>
      <trkpt lat="44.08892" lon="2.22809">
        <ele>307.76</ele>
        <time>2014-03-18T11:40:17Z</time>
      </trkpt>
      <trkpt lat="44.0889" lon="2.22833">
        <ele>306.32</ele>
        <time>2014-03-18T11:40:36Z</time>
      </trkpt>
      <trkpt lat="44.08896" lon="2.22852">
        <ele>305.36</ele>
        <time>2014-03-18T11:40:53Z</time>
      </trkpt>
      <trkpt lat="44.08889" lon="2.22874">
        <ele>311.12</ele>
        <time>2014-03-18T11:41:08Z</time>
      </trkpt>
      <trkpt lat="44.08883" lon="2.2289">
        <ele>317.37</ele>
        <time>2014-03-18T11:41:25Z</time>
      </trkpt>
      <trkpt lat="44.08871" lon="2.22897">
        <ele>319.3</ele>
        <time>2014-03-18T11:41:44Z</time>
      </trkpt>
      <trkpt lat="44.08854" lon="2.22909">
        <ele>322.18</ele>
        <time>2014-03-18T11:42:02Z</time>
      </trkpt>
      <trkpt lat="44.08846" lon="2.22914">
        <ele>325.06</ele>
        <time>2014-03-18T11:42:19Z</time>
      </trkpt>
      <trkpt lat="44.0883" lon="2.2292">
        <ele>327.47</ele>
        <time>2014-03-18T11:42:34Z</time>
      </trkpt>
      <trkpt lat="44.08823" lon="2.2292">
        <ele>329.39</ele>
        <time>2014-03-18T11:42:53Z</time>
      </trkpt>
      <trkpt lat="44.08817" lon="2.22921">
        <ele>330.83</ele>
        <time>2014-03-18T11:43:08Z</time>
      </trkpt>
      <trkpt lat="44.08804" lon="2.22917">
        <ele>334.68</ele>
        <time>2014-03-18T11:43:24Z</time>
      </trkpt>
      <trkpt lat="44.08787" lon="2.22919">
        <ele>339.96</ele>
        <time>2014-03-18T11:43:44Z</time>
      </trkpt>
      <trkpt lat="44.08778" lon="2.22922">
        <ele>343.81</ele>
        <time>2014-03-18T11:44:02Z</time>
      </trkpt>
      <trkpt lat="44.08766" lon="2.22929">
        <ele>347.17</ele>
        <time>2014-03-18T11:44:19Z</time>
      </trkpt>
      <trkpt lat="44.08754" lon="2.22927">
        <ele>349.58</ele>
        <time>2014-03-18T11:44:35Z</time>
      </trkpt>
      <trkpt lat="44.08749" lon="2.22921">
        <ele>350.06</ele>
        <time>2014-03-18T11:44:41Z</time>
      </trkpt>
      <trkpt lat="44.08744" lon="2.22905">
        <ele>350.54</ele>
        <time>2014-03-18T11:44:57Z</time>
      </trkpt>
      <trkpt lat="44.08733" lon="2.22895">
        <ele>352.94</ele>
        <time>2014-03-18T11:45:14Z</time>
      </trkpt>
      <trkpt lat="44.08726" lon="2.22897">
        <ele>352.46</ele>
        <time>2014-03-18T11:45:30Z</time>
      </trkpt>
      <trkpt lat="44.0872" lon="2.22918">
        <ele>356.31</ele>
        <time>2014-03-18T11:45:47Z</time>
      </trkpt>
      <trkpt lat="44.08709" lon="2.22939">
        <ele>362.55</ele>
        <time>2014-03-18T11:46:05Z</time>
      </trkpt>
      <trkpt lat="44.08697" lon="2.22951">
        <ele>364</ele>
        <time>2014-03-18T11:46:21Z</time>
      </trkpt>
      <trkpt lat="44.08689" lon="2.22961">
        <ele>366.4</ele>
        <time>2014-03-18T11:46:39Z</time>
      </trkpt>
      <trkpt lat="44.08673" lon="2.22975">
        <ele>368.32</ele>
        <time>2014-03-18T11:47:01Z</time>
      </trkpt>
      <trkpt lat="44.0866" lon="2.22989">
        <ele>370.24</ele>
        <time>2014-03-18T11:47:19Z</time>
      </trkpt>
      <trkpt lat="44.08645" lon="2.23002">
        <ele>375.05</ele>
        <time>2014-03-18T11:47:37Z</time>
      </trkpt>
      <trkpt lat="44.08629" lon="2.23017">
        <ele>378.9</ele>
        <time>2014-03-18T11:47:55Z</time>
      </trkpt>
      <trkpt lat="44.08621" lon="2.23016">
        <ele>378.9</ele>
        <time>2014-03-18T11:48:11Z</time>
      </trkpt>
      <trkpt lat="44.08607" lon="2.23021">
        <ele>380.82</ele>
        <time>2014-03-18T11:48:29Z</time>
      </trkpt>
      <trkpt lat="44.08592" lon="2.23018">
        <ele>382.26</ele>
        <time>2014-03-18T11:48:47Z</time>
      </trkpt>
      <trkpt lat="44.08589" lon="2.23016">
        <ele>382.26</ele>
        <time>2014-03-18T11:48:50Z</time>
      </trkpt>
      <trkpt lat="44.08573" lon="2.23025">
        <ele>384.18</ele>
        <time>2014-03-18T11:49:10Z</time>
      </trkpt>
      <trkpt lat="44.08571" lon="2.23034">
        <ele>384.66</ele>
        <time>2014-03-18T11:49:17Z</time>
      </trkpt>
      <trkpt lat="44.08571" lon="2.23046">
        <ele>386.59</ele>
        <time>2014-03-18T11:49:33Z</time>
      </trkpt>
      <trkpt lat="44.08578" lon="2.23049">
        <ele>385.15</ele>
        <time>2014-03-18T11:49:50Z</time>
      </trkpt>
      <trkpt lat="44.08586" lon="2.23051">
        <ele>386.11</ele>
        <time>2014-03-18T11:50:05Z</time>
      </trkpt>
      <trkpt lat="44.08589" lon="2.23061">
        <ele>385.63</ele>
        <time>2014-03-18T11:50:22Z</time>
      </trkpt>
      <trkpt lat="44.08597" lon="2.23083">
        <ele>382.74</ele>
        <time>2014-03-18T11:50:37Z</time>
      </trkpt>
      <trkpt lat="44.08605" lon="2.23112">
        <ele>380.34</ele>
        <time>2014-03-18T11:50:56Z</time>
      </trkpt>
      <trkpt lat="44.08607" lon="2.23122">
        <ele>378.42</ele>
        <time>2014-03-18T11:51:12Z</time>
      </trkpt>
      <trkpt lat="44.08604" lon="2.23128">
        <ele>379.38</ele>
        <time>2014-03-18T11:51:17Z</time>
      </trkpt>
      <trkpt lat="44.08606" lon="2.23135">
        <ele>381.3</ele>
        <time>2014-03-18T11:51:21Z</time>
      </trkpt>
      <trkpt lat="44.08609" lon="2.23155">
        <ele>380.82</ele>
        <time>2014-03-18T11:51:35Z</time>
      </trkpt>
      <trkpt lat="44.08612" lon="2.23174">
        <ele>380.82</ele>
        <time>2014-03-18T11:51:51Z</time>
      </trkpt>
      <trkpt lat="44.08615" lon="2.23187">
        <ele>382.26</ele>
        <time>2014-03-18T11:52:03Z</time>
      </trkpt>
      <trkpt lat="44.08619" lon="2.232">
        <ele>381.78</ele>
        <time>2014-03-18T11:52:14Z</time>
      </trkpt>
      <trkpt lat="44.0862" lon="2.23202">
        <ele>381.3</ele>
        <time>2014-03-18T11:52:16Z</time>
      </trkpt>
      <trkpt lat="44.08625" lon="2.2322">
        <ele>381.3</ele>
        <time>2014-03-18T11:52:29Z</time>
      </trkpt>
      <trkpt lat="44.08627" lon="2.23225">
        <ele>380.82</ele>
        <time>2014-03-18T11:52:33Z</time>
      </trkpt>
      <trkpt lat="44.08631" lon="2.23235">
        <ele>379.86</ele>
        <time>2014-03-18T11:52:41Z</time>
      </trkpt>
      <trkpt lat="44.08632" lon="2.23239">
        <ele>379.38</ele>
        <time>2014-03-18T11:52:44Z</time>
      </trkpt>
      <trkpt lat="44.08637" lon="2.23251">
        <ele>378.42</ele>
        <time>2014-03-18T11:52:53Z</time>
      </trkpt>
      <trkpt lat="44.08645" lon="2.23272">
        <ele>375.53</ele>
        <time>2014-03-18T11:53:09Z</time>
      </trkpt>
      <trkpt lat="44.08647" lon="2.23281">
        <ele>375.05</ele>
        <time>2014-03-18T11:53:15Z</time>
      </trkpt>
      <trkpt lat="44.08652" lon="2.23296">
        <ele>374.57</ele>
        <time>2014-03-18T11:53:27Z</time>
      </trkpt>
      <trkpt lat="44.08657" lon="2.23312">
        <ele>372.65</ele>
        <time>2014-03-18T11:53:40Z</time>
      </trkpt>
      <trkpt lat="44.0866" lon="2.23329">
        <ele>370.73</ele>
        <time>2014-03-18T11:53:52Z</time>
      </trkpt>
      <trkpt lat="44.08663" lon="2.23344">
        <ele>370.24</ele>
        <time>2014-03-18T11:54:05Z</time>
      </trkpt>
      <trkpt lat="44.08667" lon="2.23341">
        <ele>370.24</ele>
        <time>2014-03-18T11:54:13Z</time>
      </trkpt>
      <trkpt lat="44.08672" lon="2.23327">
        <ele>366.4</ele>
        <time>2014-03-18T11:54:26Z</time>
      </trkpt>
      <trkpt lat="44.08677" lon="2.23312">
        <ele>366.4</ele>
        <time>2014-03-18T11:54:38Z</time>
      </trkpt>
      <trkpt lat="44.08679" lon="2.23307">
        <ele>364.96</ele>
        <time>2014-03-18T11:54:42Z</time>
      </trkpt>
      <trkpt lat="44.08681" lon="2.23305">
        <ele>364</ele>
        <time>2014-03-18T11:54:45Z</time>
      </trkpt>
      <trkpt lat="44.08687" lon="2.23309">
        <ele>361.59</ele>
        <time>2014-03-18T11:54:52Z</time>
      </trkpt>
      <trkpt lat="44.08689" lon="2.23319">
        <ele>361.11</ele>
        <time>2014-03-18T11:54:59Z</time>
      </trkpt>
      <trkpt lat="44.08688" lon="2.23329">
        <ele>360.63</ele>
        <time>2014-03-18T11:55:06Z</time>
      </trkpt>
      <trkpt lat="44.08689" lon="2.23334">
        <ele>360.15</ele>
        <time>2014-03-18T11:55:10Z</time>
      </trkpt>
      <trkpt lat="44.0869" lon="2.23343">
        <ele>358.23</ele>
        <time>2014-03-18T11:55:16Z</time>
      </trkpt>
      <trkpt lat="44.08688" lon="2.23358">
        <ele>359.19</ele>
        <time>2014-03-18T11:55:26Z</time>
      </trkpt>
      <trkpt lat="44.08688" lon="2.23374">
        <ele>360.63</ele>
        <time>2014-03-18T11:55:37Z</time>
      </trkpt>
      <trkpt lat="44.08687" lon="2.23376">
        <ele>361.11</ele>
        <time>2014-03-18T11:55:39Z</time>
      </trkpt>
      <trkpt lat="44.08686" lon="2.2338">
        <ele>361.11</ele>
        <time>2014-03-18T11:55:42Z</time>
      </trkpt>
      <trkpt lat="44.08684" lon="2.23391">
        <ele>360.15</ele>
        <time>2014-03-18T11:55:54Z</time>
      </trkpt>
      <trkpt lat="44.08684" lon="2.23397">
        <ele>361.11</ele>
        <time>2014-03-18T11:56:00Z</time>
      </trkpt>
      <trkpt lat="44.08683" lon="2.23404">
        <ele>360.63</ele>
        <time>2014-03-18T11:56:04Z</time>
      </trkpt>
      <trkpt lat="44.08678" lon="2.23422">
        <ele>362.07</ele>
        <time>2014-03-18T11:56:16Z</time>
      </trkpt>
      <trkpt lat="44.08676" lon="2.23433">
        <ele>362.07</ele>
        <time>2014-03-18T11:56:23Z</time>
      </trkpt>
      <trkpt lat="44.08673" lon="2.23445">
        <ele>361.11</ele>
        <time>2014-03-18T11:56:33Z</time>
      </trkpt>
      <trkpt lat="44.08672" lon="2.23448">
        <ele>361.11</ele>
        <time>2014-03-18T11:56:35Z</time>
      </trkpt>
      <trkpt lat="44.08669" lon="2.23469">
        <ele>359.67</ele>
        <time>2014-03-18T11:56:49Z</time>
      </trkpt>
      <trkpt lat="44.08669" lon="2.2347">
        <ele>359.19</ele>
        <time>2014-03-18T11:56:50Z</time>
      </trkpt>
      <trkpt lat="44.08666" lon="2.2349">
        <ele>358.71</ele>
        <time>2014-03-18T11:57:04Z</time>
      </trkpt>
      <trkpt lat="44.08665" lon="2.23494">
        <ele>359.19</ele>
        <time>2014-03-18T11:57:06Z</time>
      </trkpt>
      <trkpt lat="44.08663" lon="2.23501">
        <ele>358.71</ele>
        <time>2014-03-18T11:57:11Z</time>
      </trkpt>
      <trkpt lat="44.08662" lon="2.23516">
        <ele>357.75</ele>
        <time>2014-03-18T11:57:20Z</time>
      </trkpt>
      <trkpt lat="44.08658" lon="2.23531">
        <ele>356.79</ele>
        <time>2014-03-18T11:57:32Z</time>
      </trkpt>
      <trkpt lat="44.08657" lon="2.23534">
        <ele>357.27</ele>
        <time>2014-03-18T11:57:34Z</time>
      </trkpt>
      <trkpt lat="44.08652" lon="2.23551">
        <ele>357.27</ele>
        <time>2014-03-18T11:57:46Z</time>
      </trkpt>
      <trkpt lat="44.08649" lon="2.23565">
        <ele>356.31</ele>
        <time>2014-03-18T11:57:55Z</time>
      </trkpt>
      <trkpt lat="44.08648" lon="2.23571">
        <ele>356.31</ele>
        <time>2014-03-18T11:57:59Z</time>
      </trkpt>
      <trkpt lat="44.08644" lon="2.23581">
        <ele>355.34</ele>
        <time>2014-03-18T11:58:06Z</time>
      </trkpt>
      <trkpt lat="44.08644" lon="2.23586">
        <ele>355.34</ele>
        <time>2014-03-18T11:58:10Z</time>
      </trkpt>
      <trkpt lat="44.08642" lon="2.23605">
        <ele>353.42</ele>
        <time>2014-03-18T11:58:23Z</time>
      </trkpt>
      <trkpt lat="44.0864" lon="2.23609">
        <ele>352.94</ele>
        <time>2014-03-18T11:58:27Z</time>
      </trkpt>
      <trkpt lat="44.0864" lon="2.23612">
        <ele>352.46</ele>
        <time>2014-03-18T11:58:29Z</time>
      </trkpt>
      <trkpt lat="44.08637" lon="2.23632">
        <ele>348.13</ele>
        <time>2014-03-18T11:58:41Z</time>
      </trkpt>
      <trkpt lat="44.08637" lon="2.23634">
        <ele>348.13</ele>
        <time>2014-03-18T11:58:42Z</time>
      </trkpt>
      <trkpt lat="44.08637" lon="2.23636">
        <ele>348.13</ele>
        <time>2014-03-18T11:58:44Z</time>
      </trkpt>
      <trkpt lat="44.08633" lon="2.2366">
        <ele>345.73</ele>
        <time>2014-03-18T11:58:59Z</time>
      </trkpt>
      <trkpt lat="44.08633" lon="2.23669">
        <ele>344.29</ele>
        <time>2014-03-18T11:59:05Z</time>
      </trkpt>
      <trkpt lat="44.08633" lon="2.2368">
        <ele>342.85</ele>
        <time>2014-03-18T11:59:12Z</time>
      </trkpt>
      <trkpt lat="44.08636" lon="2.23691">
        <ele>340.92</ele>
        <time>2014-03-18T11:59:20Z</time>
      </trkpt>
      <trkpt lat="44.08636" lon="2.23713">
        <ele>337.08</ele>
        <time>2014-03-18T11:59:34Z</time>
      </trkpt>
      <trkpt lat="44.08638" lon="2.23721">
        <ele>335.64</ele>
        <time>2014-03-18T11:59:40Z</time>
      </trkpt>
      <trkpt lat="44.08639" lon="2.23725">
        <ele>334.68</ele>
        <time>2014-03-18T11:59:43Z</time>
      </trkpt>
      <trkpt lat="44.08642" lon="2.23735">
        <ele>333.71</ele>
        <time>2014-03-18T11:59:49Z</time>
      </trkpt>
      <trkpt lat="44.08644" lon="2.23745">
        <ele>330.35</ele>
        <time>2014-03-18T11:59:56Z</time>
      </trkpt>
      <trkpt lat="44.08645" lon="2.23755">
        <ele>328.43</ele>
        <time>2014-03-18T12:00:02Z</time>
      </trkpt>
      <trkpt lat="44.08642" lon="2.23764">
        <ele>327.47</ele>
        <time>2014-03-18T12:00:08Z</time>
      </trkpt>
      <trkpt lat="44.08638" lon="2.23773">
        <ele>326.02</ele>
        <time>2014-03-18T12:00:14Z</time>
      </trkpt>
      <trkpt lat="44.08637" lon="2.23776">
        <ele>325.54</ele>
        <time>2014-03-18T12:00:17Z</time>
      </trkpt>
      <trkpt lat="44.08633" lon="2.23798">
        <ele>325.06</ele>
        <time>2014-03-18T12:00:31Z</time>
      </trkpt>
      <trkpt lat="44.08637" lon="2.23804">
        <ele>325.54</ele>
        <time>2014-03-18T12:00:37Z</time>
      </trkpt>
      <trkpt lat="44.08654" lon="2.23815">
        <ele>326.99</ele>
        <time>2014-03-18T12:00:52Z</time>
      </trkpt>
      <trkpt lat="44.08661" lon="2.2382">
        <ele>328.43</ele>
        <time>2014-03-18T12:00:59Z</time>
      </trkpt>
      <trkpt lat="44.08668" lon="2.23826">
        <ele>327.95</ele>
        <time>2014-03-18T12:01:07Z</time>
      </trkpt>
      <trkpt lat="44.08671" lon="2.23828">
        <ele>328.43</ele>
        <time>2014-03-18T12:01:10Z</time>
      </trkpt>
      <trkpt lat="44.08683" lon="2.23833">
        <ele>330.35</ele>
        <time>2014-03-18T12:01:21Z</time>
      </trkpt>
      <trkpt lat="44.08687" lon="2.23836">
        <ele>330.83</ele>
        <time>2014-03-18T12:01:27Z</time>
      </trkpt>
      <trkpt lat="44.08693" lon="2.23842">
        <ele>331.31</ele>
        <time>2014-03-18T12:01:34Z</time>
      </trkpt>
      <trkpt lat="44.0869" lon="2.23847">
        <ele>334.68</ele>
        <time>2014-03-18T12:01:47Z</time>
      </trkpt>
      <trkpt lat="44.0869" lon="2.23848">
        <ele>335.64</ele>
        <time>2014-03-18T12:02:04Z</time>
      </trkpt>
      <trkpt lat="44.08688" lon="2.23852">
        <ele>335.16</ele>
        <time>2014-03-18T12:02:23Z</time>
      </trkpt>
      <trkpt lat="44.08688" lon="2.23859">
        <ele>336.6</ele>
        <time>2014-03-18T12:02:31Z</time>
      </trkpt>
      <trkpt lat="44.08686" lon="2.23881">
        <ele>339</ele>
        <time>2014-03-18T12:02:45Z</time>
      </trkpt>
      <trkpt lat="44.08687" lon="2.2389">
        <ele>340.44</ele>
        <time>2014-03-18T12:02:57Z</time>
      </trkpt>
      <trkpt lat="44.08683" lon="2.23901">
        <ele>341.89</ele>
        <time>2014-03-18T12:03:08Z</time>
      </trkpt>
      <trkpt lat="44.08683" lon="2.23913">
        <ele>343.81</ele>
        <time>2014-03-18T12:03:22Z</time>
      </trkpt>
      <trkpt lat="44.08687" lon="2.23926">
        <ele>345.25</ele>
        <time>2014-03-18T12:03:35Z</time>
      </trkpt>
      <trkpt lat="44.0869" lon="2.23938">
        <ele>349.58</ele>
        <time>2014-03-18T12:03:50Z</time>
      </trkpt>
      <trkpt lat="44.0869" lon="2.23949">
        <ele>354.86</ele>
        <time>2014-03-18T12:04:03Z</time>
      </trkpt>
      <trkpt lat="44.08691" lon="2.23962">
        <ele>355.34</ele>
        <time>2014-03-18T12:04:17Z</time>
      </trkpt>
      <trkpt lat="44.08695" lon="2.23972">
        <ele>356.79</ele>
        <time>2014-03-18T12:04:29Z</time>
      </trkpt>
      <trkpt lat="44.08699" lon="2.2398">
        <ele>356.31</ele>
        <time>2014-03-18T12:04:42Z</time>
      </trkpt>
      <trkpt lat="44.08706" lon="2.23987">
        <ele>358.71</ele>
        <time>2014-03-18T12:04:54Z</time>
      </trkpt>
      <trkpt lat="44.0871" lon="2.23995">
        <ele>362.07</ele>
        <time>2014-03-18T12:05:07Z</time>
      </trkpt>
      <trkpt lat="44.08715" lon="2.24005">
        <ele>363.52</ele>
        <time>2014-03-18T12:05:20Z</time>
      </trkpt>
      <trkpt lat="44.08717" lon="2.2401">
        <ele>364.96</ele>
        <time>2014-03-18T12:05:33Z</time>
      </trkpt>
      <trkpt lat="44.0872" lon="2.24015">
        <ele>365.44</ele>
        <time>2014-03-18T12:05:47Z</time>
      </trkpt>
      <trkpt lat="44.08723" lon="2.24023">
        <ele>366.4</ele>
        <time>2014-03-18T12:05:59Z</time>
      </trkpt>
      <trkpt lat="44.08727" lon="2.24031">
        <ele>368.32</ele>
        <time>2014-03-18T12:06:11Z</time>
      </trkpt>
      <trkpt lat="44.08736" lon="2.24036">
        <ele>372.17</ele>
        <time>2014-03-18T12:06:26Z</time>
      </trkpt>
      <trkpt lat="44.08738" lon="2.24031">
        <ele>374.57</ele>
        <time>2014-03-18T12:06:39Z</time>
      </trkpt>
      <trkpt lat="44.08743" lon="2.24024">
        <ele>376.97</ele>
        <time>2014-03-18T12:06:52Z</time>
      </trkpt>
      <trkpt lat="44.08749" lon="2.2403">
        <ele>377.94</ele>
        <time>2014-03-18T12:07:05Z</time>
      </trkpt>
      <trkpt lat="44.08755" lon="2.24034">
        <ele>377.94</ele>
        <time>2014-03-18T12:07:14Z</time>
      </trkpt>
      <trkpt lat="44.08763" lon="2.24041">
        <ele>379.86</ele>
        <time>2014-03-18T12:07:26Z</time>
      </trkpt>
      <trkpt lat="44.08774" lon="2.24045">
        <ele>382.74</ele>
        <time>2014-03-18T12:07:40Z</time>
      </trkpt>
      <trkpt lat="44.08783" lon="2.24049">
        <ele>384.66</ele>
        <time>2014-03-18T12:07:54Z</time>
      </trkpt>
      <trkpt lat="44.08793" lon="2.24056">
        <ele>388.03</ele>
        <time>2014-03-18T12:08:08Z</time>
      </trkpt>
      <trkpt lat="44.08802" lon="2.24059">
        <ele>390.43</ele>
        <time>2014-03-18T12:08:23Z</time>
      </trkpt>
      <trkpt lat="44.08804" lon="2.24058">
        <ele>390.91</ele>
        <time>2014-03-18T12:08:26Z</time>
      </trkpt>
      <trkpt lat="44.08807" lon="2.24057">
        <ele>391.39</ele>
        <time>2014-03-18T12:08:29Z</time>
      </trkpt>
      <trkpt lat="44.08817" lon="2.24048">
        <ele>392.84</ele>
        <time>2014-03-18T12:08:44Z</time>
      </trkpt>
      <trkpt lat="44.08825" lon="2.24038">
        <ele>395.24</ele>
        <time>2014-03-18T12:08:58Z</time>
      </trkpt>
      <trkpt lat="44.08832" lon="2.24028">
        <ele>397.16</ele>
        <time>2014-03-18T12:09:10Z</time>
      </trkpt>
      <trkpt lat="44.08841" lon="2.24021">
        <ele>399.08</ele>
        <time>2014-03-18T12:09:23Z</time>
      </trkpt>
      <trkpt lat="44.08852" lon="2.24015">
        <ele>400.05</ele>
        <time>2014-03-18T12:09:36Z</time>
      </trkpt>
      <trkpt lat="44.0886" lon="2.24007">
        <ele>399.57</ele>
        <time>2014-03-18T12:09:47Z</time>
      </trkpt>
      <trkpt lat="44.0887" lon="2.24">
        <ele>398.6</ele>
        <time>2014-03-18T12:09:59Z</time>
      </trkpt>
      <trkpt lat="44.08885" lon="2.23998">
        <ele>399.57</ele>
        <time>2014-03-18T12:10:15Z</time>
      </trkpt>
      <trkpt lat="44.08887" lon="2.23999">
        <ele>399.57</ele>
        <time>2014-03-18T12:10:20Z</time>
      </trkpt>
      <trkpt lat="44.08897" lon="2.24002">
        <ele>399.57</ele>
        <time>2014-03-18T12:10:34Z</time>
      </trkpt>
      <trkpt lat="44.08906" lon="2.24005">
        <ele>401.49</ele>
        <time>2014-03-18T12:10:43Z</time>
      </trkpt>
      <trkpt lat="44.08922" lon="2.24002">
        <ele>411.1</ele>
        <time>2014-03-18T12:10:57Z</time>
      </trkpt>
      <trkpt lat="44.08923" lon="2.24002">
        <ele>411.58</ele>
        <time>2014-03-18T12:10:58Z</time>
      </trkpt>
      <trkpt lat="44.08929" lon="2.24002">
        <ele>412.54</ele>
        <time>2014-03-18T12:11:04Z</time>
      </trkpt>
      <trkpt lat="44.08936" lon="2.24003">
        <ele>413.5</ele>
        <time>2014-03-18T12:11:11Z</time>
      </trkpt>
      <trkpt lat="44.08948" lon="2.24004">
        <ele>414.95</ele>
        <time>2014-03-18T12:11:25Z</time>
      </trkpt>
      <trkpt lat="44.08952" lon="2.24003">
        <ele>415.43</ele>
        <time>2014-03-18T12:11:42Z</time>
      </trkpt>
      <trkpt lat="44.08952" lon="2.24003">
        <ele>414.95</ele>
        <time>2014-03-18T12:12:03Z</time>
      </trkpt>
      <trkpt lat="44.08952" lon="2.24004">
        <ele>415.91</ele>
        <time>2014-03-18T12:12:29Z</time>
      </trkpt>
      <trkpt lat="44.08953" lon="2.24004">
        <ele>416.39</ele>
        <time>2014-03-18T12:12:43Z</time>
      </trkpt>
      <trkpt lat="44.08954" lon="2.24005">
        <ele>416.39</ele>
        <time>2014-03-18T12:12:57Z</time>
      </trkpt>
      <trkpt lat="44.08954" lon="2.24005">
        <ele>416.87</ele>
        <time>2014-03-18T12:13:17Z</time>
      </trkpt>
      <trkpt lat="44.08955" lon="2.24005">
        <ele>416.87</ele>
        <time>2014-03-18T12:13:34Z</time>
      </trkpt>
      <trkpt lat="44.08955" lon="2.24004">
        <ele>417.35</ele>
        <time>2014-03-18T12:13:48Z</time>
      </trkpt>
      <trkpt lat="44.08956" lon="2.24003">
        <ele>417.35</ele>
        <time>2014-03-18T12:14:05Z</time>
      </trkpt>
      <trkpt lat="44.08966" lon="2.24002">
        <ele>418.79</ele>
        <time>2014-03-18T12:14:19Z</time>
      </trkpt>
      <trkpt lat="44.08978" lon="2.24002">
        <ele>417.83</ele>
        <time>2014-03-18T12:14:33Z</time>
      </trkpt>
      <trkpt lat="44.08978" lon="2.24002">
        <ele>418.31</ele>
        <time>2014-03-18T12:14:54Z</time>
      </trkpt>
      <trkpt lat="44.08986" lon="2.24004">
        <ele>418.31</ele>
        <time>2014-03-18T12:15:06Z</time>
      </trkpt>
      <trkpt lat="44.08991" lon="2.24005">
        <ele>417.83</ele>
        <time>2014-03-18T12:15:11Z</time>
      </trkpt>
      <trkpt lat="44.08998" lon="2.24006">
        <ele>417.83</ele>
        <time>2014-03-18T12:15:18Z</time>
      </trkpt>
      <trkpt lat="44.09" lon="2.24005">
        <ele>417.35</ele>
        <time>2014-03-18T12:15:20Z</time>
      </trkpt>
      <trkpt lat="44.09018" lon="2.24007">
        <ele>414.95</ele>
        <time>2014-03-18T12:15:35Z</time>
      </trkpt>
      <trkpt lat="44.0903" lon="2.2401">
        <ele>414.47</ele>
        <time>2014-03-18T12:15:46Z</time>
      </trkpt>
      <trkpt lat="44.09036" lon="2.24011">
        <ele>413.98</ele>
        <time>2014-03-18T12:15:51Z</time>
      </trkpt>
      <trkpt lat="44.0904" lon="2.24012">
        <ele>413.98</ele>
        <time>2014-03-18T12:15:54Z</time>
      </trkpt>
      <trkpt lat="44.09057" lon="2.24016">
        <ele>413.98</ele>
        <time>2014-03-18T12:16:10Z</time>
      </trkpt>
      <trkpt lat="44.09065" lon="2.24018">
        <ele>413.02</ele>
        <time>2014-03-18T12:16:17Z</time>
      </trkpt>
      <trkpt lat="44.0907" lon="2.24018">
        <ele>413.98</ele>
        <time>2014-03-18T12:16:21Z</time>
      </trkpt>
      <trkpt lat="44.09076" lon="2.24018">
        <ele>413.02</ele>
        <time>2014-03-18T12:16:26Z</time>
      </trkpt>
      <trkpt lat="44.09094" lon="2.24023">
        <ele>413.02</ele>
        <time>2014-03-18T12:16:43Z</time>
      </trkpt>
      <trkpt lat="44.09107" lon="2.24025">
        <ele>413.98</ele>
        <time>2014-03-18T12:16:54Z</time>
      </trkpt>
      <trkpt lat="44.09127" lon="2.24029">
        <ele>413.98</ele>
        <time>2014-03-18T12:17:09Z</time>
      </trkpt>
      <trkpt lat="44.0913" lon="2.2403">
        <ele>413.98</ele>
        <time>2014-03-18T12:17:11Z</time>
      </trkpt>
      <trkpt lat="44.09136" lon="2.2403">
        <ele>413.98</ele>
        <time>2014-03-18T12:17:17Z</time>
      </trkpt>
      <trkpt lat="44.09145" lon="2.24034">
        <ele>411.1</ele>
        <time>2014-03-18T12:17:25Z</time>
      </trkpt>
      <trkpt lat="44.09149" lon="2.24032">
        <ele>411.58</ele>
        <time>2014-03-18T12:17:29Z</time>
      </trkpt>
      <trkpt lat="44.09166" lon="2.24033">
        <ele>413.98</ele>
        <time>2014-03-18T12:17:44Z</time>
      </trkpt>
      <trkpt lat="44.09183" lon="2.24032">
        <ele>415.43</ele>
        <time>2014-03-18T12:17:58Z</time>
      </trkpt>
      <trkpt lat="44.09202" lon="2.24034">
        <ele>415.43</ele>
        <time>2014-03-18T12:18:15Z</time>
      </trkpt>
      <trkpt lat="44.09206" lon="2.24034">
        <ele>415.91</ele>
        <time>2014-03-18T12:18:18Z</time>
      </trkpt>
      <trkpt lat="44.09208" lon="2.24033">
        <ele>415.91</ele>
        <time>2014-03-18T12:18:20Z</time>
      </trkpt>
      <trkpt lat="44.09218" lon="2.24032">
        <ele>416.87</ele>
        <time>2014-03-18T12:18:30Z</time>
      </trkpt>
      <trkpt lat="44.0923" lon="2.24029">
        <ele>417.83</ele>
        <time>2014-03-18T12:18:41Z</time>
      </trkpt>
      <trkpt lat="44.09241" lon="2.24027">
        <ele>417.83</ele>
        <time>2014-03-18T12:18:50Z</time>
      </trkpt>
      <trkpt lat="44.09249" lon="2.24023">
        <ele>418.31</ele>
        <time>2014-03-18T12:18:58Z</time>
      </trkpt>
      <trkpt lat="44.09264" lon="2.24019">
        <ele>419.75</ele>
        <time>2014-03-18T12:19:11Z</time>
      </trkpt>
      <trkpt lat="44.09268" lon="2.24018">
        <ele>419.27</ele>
        <time>2014-03-18T12:19:15Z</time>
      </trkpt>
      <trkpt lat="44.09274" lon="2.24017">
        <ele>419.75</ele>
        <time>2014-03-18T12:19:20Z</time>
      </trkpt>
      <trkpt lat="44.09288" lon="2.24013">
        <ele>420.23</ele>
        <time>2014-03-18T12:19:33Z</time>
      </trkpt>
      <trkpt lat="44.09303" lon="2.24009">
        <ele>420.71</ele>
        <time>2014-03-18T12:19:46Z</time>
      </trkpt>
      <trkpt lat="44.0932" lon="2.24008">
        <ele>421.68</ele>
        <time>2014-03-18T12:20:00Z</time>
      </trkpt>
      <trkpt lat="44.09336" lon="2.2401">
        <ele>422.16</ele>
        <time>2014-03-18T12:20:14Z</time>
      </trkpt>
      <trkpt lat="44.09346" lon="2.24012">
        <ele>421.19</ele>
        <time>2014-03-18T12:20:23Z</time>
      </trkpt>
      <trkpt lat="44.0935" lon="2.24015">
        <ele>421.68</ele>
        <time>2014-03-18T12:20:27Z</time>
      </trkpt>
      <trkpt lat="44.09354" lon="2.24017">
        <ele>421.68</ele>
        <time>2014-03-18T12:20:30Z</time>
      </trkpt>
      <trkpt lat="44.09366" lon="2.24022">
        <ele>421.68</ele>
        <time>2014-03-18T12:20:41Z</time>
      </trkpt>
      <trkpt lat="44.0937" lon="2.24025">
        <ele>422.16</ele>
        <time>2014-03-18T12:20:45Z</time>
      </trkpt>
      <trkpt lat="44.09387" lon="2.24037">
        <ele>422.64</ele>
        <time>2014-03-18T12:21:02Z</time>
      </trkpt>
      <trkpt lat="44.09403" lon="2.24045">
        <ele>423.6</ele>
        <time>2014-03-18T12:21:17Z</time>
      </trkpt>
      <trkpt lat="44.09416" lon="2.24052">
        <ele>424.08</ele>
        <time>2014-03-18T12:21:30Z</time>
      </trkpt>
      <trkpt lat="44.09427" lon="2.24055">
        <ele>426</ele>
        <time>2014-03-18T12:21:40Z</time>
      </trkpt>
      <trkpt lat="44.09446" lon="2.2406">
        <ele>427.44</ele>
        <time>2014-03-18T12:21:56Z</time>
      </trkpt>
      <trkpt lat="44.0946" lon="2.24062">
        <ele>426.96</ele>
        <time>2014-03-18T12:22:10Z</time>
      </trkpt>
      <trkpt lat="44.09466" lon="2.24062">
        <ele>426.48</ele>
        <time>2014-03-18T12:22:15Z</time>
      </trkpt>
      <trkpt lat="44.09481" lon="2.24066">
        <ele>426.96</ele>
        <time>2014-03-18T12:22:29Z</time>
      </trkpt>
      <trkpt lat="44.09486" lon="2.24069">
        <ele>426.96</ele>
        <time>2014-03-18T12:22:35Z</time>
      </trkpt>
      <trkpt lat="44.09493" lon="2.24074">
        <ele>426.48</ele>
        <time>2014-03-18T12:22:42Z</time>
      </trkpt>
      <trkpt lat="44.09495" lon="2.24076">
        <ele>426.96</ele>
        <time>2014-03-18T12:22:44Z</time>
      </trkpt>
      <trkpt lat="44.09501" lon="2.24078">
        <ele>426.48</ele>
        <time>2014-03-18T12:23:01Z</time>
      </trkpt>
      <trkpt lat="44.0951" lon="2.24076">
        <ele>426.96</ele>
        <time>2014-03-18T12:23:13Z</time>
      </trkpt>
      <trkpt lat="44.09511" lon="2.24074">
        <ele>427.92</ele>
        <time>2014-03-18T12:23:15Z</time>
      </trkpt>
      <trkpt lat="44.09519" lon="2.24063">
        <ele>428.89</ele>
        <time>2014-03-18T12:23:30Z</time>
      </trkpt>
      <trkpt lat="44.09527" lon="2.24054">
        <ele>429.85</ele>
        <time>2014-03-18T12:23:39Z</time>
      </trkpt>
      <trkpt lat="44.09529" lon="2.24052">
        <ele>430.33</ele>
        <time>2014-03-18T12:23:41Z</time>
      </trkpt>
      <trkpt lat="44.09532" lon="2.24047">
        <ele>431.29</ele>
        <time>2014-03-18T12:23:45Z</time>
      </trkpt>
      <trkpt lat="44.09541" lon="2.24026">
        <ele>433.21</ele>
        <time>2014-03-18T12:24:00Z</time>
      </trkpt>
      <trkpt lat="44.09547" lon="2.2402">
        <ele>432.73</ele>
        <time>2014-03-18T12:24:10Z</time>
      </trkpt>
      <trkpt lat="44.09546" lon="2.24017">
        <ele>432.73</ele>
        <time>2014-03-18T12:24:26Z</time>
      </trkpt>
      <trkpt lat="44.09543" lon="2.23987">
        <ele>430.81</ele>
        <time>2014-03-18T12:24:44Z</time>
      </trkpt>
      <trkpt lat="44.09545" lon="2.23958">
        <ele>432.25</ele>
        <time>2014-03-18T12:25:02Z</time>
      </trkpt>
      <trkpt lat="44.09551" lon="2.23936">
        <ele>431.29</ele>
        <time>2014-03-18T12:25:18Z</time>
      </trkpt>
      <trkpt lat="44.09551" lon="2.23934">
        <ele>429.85</ele>
        <time>2014-03-18T12:25:34Z</time>
      </trkpt>
      <trkpt lat="44.09551" lon="2.23934">
        <ele>429.37</ele>
        <time>2014-03-18T12:25:43Z</time>
      </trkpt>
      <trkpt lat="44.09553" lon="2.23928">
        <ele>429.37</ele>
        <time>2014-03-18T12:25:47Z</time>
      </trkpt>
      <trkpt lat="44.09552" lon="2.23905">
        <ele>428.4</ele>
        <time>2014-03-18T12:26:00Z</time>
      </trkpt>
      <trkpt lat="44.09552" lon="2.2389">
        <ele>427.44</ele>
        <time>2014-03-18T12:26:07Z</time>
      </trkpt>
      <trkpt lat="44.09545" lon="2.2385">
        <ele>425.04</ele>
        <time>2014-03-18T12:26:18Z</time>
      </trkpt>
      <trkpt lat="44.0954" lon="2.23822">
        <ele>426</ele>
        <time>2014-03-18T12:26:30Z</time>
      </trkpt>
      <trkpt lat="44.09536" lon="2.23793">
        <ele>425.04</ele>
        <time>2014-03-18T12:26:46Z</time>
      </trkpt>
      <trkpt lat="44.09531" lon="2.23763">
        <ele>422.64</ele>
        <time>2014-03-18T12:27:03Z</time>
      </trkpt>
      <trkpt lat="44.09528" lon="2.23737">
        <ele>421.19</ele>
        <time>2014-03-18T12:27:19Z</time>
      </trkpt>
      <trkpt lat="44.09524" lon="2.23707">
        <ele>423.12</ele>
        <time>2014-03-18T12:27:36Z</time>
      </trkpt>
      <trkpt lat="44.09522" lon="2.23683">
        <ele>421.19</ele>
        <time>2014-03-18T12:27:51Z</time>
      </trkpt>
      <trkpt lat="44.09519" lon="2.23653">
        <ele>419.75</ele>
        <time>2014-03-18T12:28:09Z</time>
      </trkpt>
      <trkpt lat="44.09517" lon="2.23626">
        <ele>420.71</ele>
        <time>2014-03-18T12:28:26Z</time>
      </trkpt>
      <trkpt lat="44.09513" lon="2.236">
        <ele>418.79</ele>
        <time>2014-03-18T12:28:41Z</time>
      </trkpt>
      <trkpt lat="44.09511" lon="2.23571">
        <ele>416.39</ele>
        <time>2014-03-18T12:28:58Z</time>
      </trkpt>
      <trkpt lat="44.09517" lon="2.23546">
        <ele>418.31</ele>
        <time>2014-03-18T12:29:15Z</time>
      </trkpt>
      <trkpt lat="44.09524" lon="2.2352">
        <ele>418.79</ele>
        <time>2014-03-18T12:29:32Z</time>
      </trkpt>
      <trkpt lat="44.0953" lon="2.23489">
        <ele>418.79</ele>
        <time>2014-03-18T12:29:50Z</time>
      </trkpt>
      <trkpt lat="44.09532" lon="2.23482">
        <ele>418.31</ele>
        <time>2014-03-18T12:29:55Z</time>
      </trkpt>
      <trkpt lat="44.09538" lon="2.23455">
        <ele>421.19</ele>
        <time>2014-03-18T12:30:11Z</time>
      </trkpt>
      <trkpt lat="44.09543" lon="2.23426">
        <ele>421.68</ele>
        <time>2014-03-18T12:30:28Z</time>
      </trkpt>
      <trkpt lat="44.09546" lon="2.23408">
        <ele>419.75</ele>
        <time>2014-03-18T12:30:39Z</time>
      </trkpt>
      <trkpt lat="44.09553" lon="2.23382">
        <ele>418.31</ele>
        <time>2014-03-18T12:30:56Z</time>
      </trkpt>
      <trkpt lat="44.09554" lon="2.23377">
        <ele>417.83</ele>
        <time>2014-03-18T12:30:59Z</time>
      </trkpt>
      <trkpt lat="44.09562" lon="2.23353">
        <ele>418.31</ele>
        <time>2014-03-18T12:31:15Z</time>
      </trkpt>
      <trkpt lat="44.09568" lon="2.23326">
        <ele>415.91</ele>
        <time>2014-03-18T12:31:32Z</time>
      </trkpt>
      <trkpt lat="44.09569" lon="2.23321">
        <ele>416.39</ele>
        <time>2014-03-18T12:31:35Z</time>
      </trkpt>
      <trkpt lat="44.09578" lon="2.23289">
        <ele>412.54</ele>
        <time>2014-03-18T12:31:55Z</time>
      </trkpt>
      <trkpt lat="44.09583" lon="2.23272">
        <ele>410.14</ele>
        <time>2014-03-18T12:32:06Z</time>
      </trkpt>
      <trkpt lat="44.09592" lon="2.2324">
        <ele>408.22</ele>
        <time>2014-03-18T12:32:26Z</time>
      </trkpt>
      <trkpt lat="44.09593" lon="2.23231">
        <ele>408.22</ele>
        <time>2014-03-18T12:32:39Z</time>
      </trkpt>
      <trkpt lat="44.09594" lon="2.23227">
        <ele>407.74</ele>
        <time>2014-03-18T12:32:53Z</time>
      </trkpt>
      <trkpt lat="44.09603" lon="2.23205">
        <ele>403.89</ele>
        <time>2014-03-18T12:33:07Z</time>
      </trkpt>
      <trkpt lat="44.09608" lon="2.23191">
        <ele>402.45</ele>
        <time>2014-03-18T12:33:16Z</time>
      </trkpt>
      <trkpt lat="44.0961" lon="2.23187">
        <ele>401.97</ele>
        <time>2014-03-18T12:33:19Z</time>
      </trkpt>
      <trkpt lat="44.09616" lon="2.23163">
        <ele>401.97</ele>
        <time>2014-03-18T12:33:34Z</time>
      </trkpt>
      <trkpt lat="44.09622" lon="2.23135">
        <ele>401.97</ele>
        <time>2014-03-18T12:33:51Z</time>
      </trkpt>
      <trkpt lat="44.09631" lon="2.23113">
        <ele>401.97</ele>
        <time>2014-03-18T12:34:07Z</time>
      </trkpt>
      <trkpt lat="44.09631" lon="2.23112">
        <ele>401.49</ele>
        <time>2014-03-18T12:34:08Z</time>
      </trkpt>
      <trkpt lat="44.09638" lon="2.23095">
        <ele>398.12</ele>
        <time>2014-03-18T12:34:24Z</time>
      </trkpt>
      <trkpt lat="44.09638" lon="2.23095">
        <ele>397.64</ele>
        <time>2014-03-18T12:34:31Z</time>
      </trkpt>
      <trkpt lat="44.09634" lon="2.23088">
        <ele>396.2</ele>
        <time>2014-03-18T12:34:39Z</time>
      </trkpt>
      <trkpt lat="44.09626" lon="2.23078">
        <ele>395.72</ele>
        <time>2014-03-18T12:34:50Z</time>
      </trkpt>
      <trkpt lat="44.0962" lon="2.23072">
        <ele>396.68</ele>
        <time>2014-03-18T12:34:57Z</time>
      </trkpt>
      <trkpt lat="44.09606" lon="2.23054">
        <ele>398.12</ele>
        <time>2014-03-18T12:35:15Z</time>
      </trkpt>
      <trkpt lat="44.09594" lon="2.23043">
        <ele>398.6</ele>
        <time>2014-03-18T12:35:29Z</time>
      </trkpt>
      <trkpt lat="44.09591" lon="2.23039">
        <ele>398.6</ele>
        <time>2014-03-18T12:35:33Z</time>
      </trkpt>
      <trkpt lat="44.09586" lon="2.23035">
        <ele>398.6</ele>
        <time>2014-03-18T12:35:38Z</time>
      </trkpt>
      <trkpt lat="44.09584" lon="2.23032">
        <ele>399.08</ele>
        <time>2014-03-18T12:35:41Z</time>
      </trkpt>
      <trkpt lat="44.09573" lon="2.23025">
        <ele>401.01</ele>
        <time>2014-03-18T12:35:52Z</time>
      </trkpt>
      <trkpt lat="44.09556" lon="2.23014">
        <ele>402.45</ele>
        <time>2014-03-18T12:36:10Z</time>
      </trkpt>
      <trkpt lat="44.09541" lon="2.23007">
        <ele>402.45</ele>
        <time>2014-03-18T12:36:24Z</time>
      </trkpt>
      <trkpt lat="44.09529" lon="2.23002">
        <ele>402.93</ele>
        <time>2014-03-18T12:36:36Z</time>
      </trkpt>
      <trkpt lat="44.09511" lon="2.22996">
        <ele>402.45</ele>
        <time>2014-03-18T12:36:52Z</time>
      </trkpt>
      <trkpt lat="44.09499" lon="2.22994">
        <ele>402.45</ele>
        <time>2014-03-18T12:37:03Z</time>
      </trkpt>
      <trkpt lat="44.09494" lon="2.22994">
        <ele>401.97</ele>
        <time>2014-03-18T12:37:07Z</time>
      </trkpt>
      <trkpt lat="44.09488" lon="2.22994">
        <ele>402.45</ele>
        <time>2014-03-18T12:37:12Z</time>
      </trkpt>
      <trkpt lat="44.09469" lon="2.2299">
        <ele>402.45</ele>
        <time>2014-03-18T12:37:28Z</time>
      </trkpt>
      <trkpt lat="44.09454" lon="2.22991">
        <ele>401.49</ele>
        <time>2014-03-18T12:37:41Z</time>
      </trkpt>
      <trkpt lat="44.0944" lon="2.22991">
        <ele>399.57</ele>
        <time>2014-03-18T12:37:55Z</time>
      </trkpt>
      <trkpt lat="44.09432" lon="2.22994">
        <ele>399.08</ele>
        <time>2014-03-18T12:38:01Z</time>
      </trkpt>
      <trkpt lat="44.09424" lon="2.22996">
        <ele>396.68</ele>
        <time>2014-03-18T12:38:08Z</time>
      </trkpt>
      <trkpt lat="44.09409" lon="2.23">
        <ele>396.2</ele>
        <time>2014-03-18T12:38:24Z</time>
      </trkpt>
      <trkpt lat="44.09408" lon="2.23">
        <ele>396.2</ele>
        <time>2014-03-18T12:38:27Z</time>
      </trkpt>
      <trkpt lat="44.09406" lon="2.23">
        <ele>396.2</ele>
        <time>2014-03-18T12:38:29Z</time>
      </trkpt>
      <trkpt lat="44.09403" lon="2.23">
        <ele>395.72</ele>
        <time>2014-03-18T12:38:32Z</time>
      </trkpt>
      <trkpt lat="44.09396" lon="2.22999">
        <ele>394.76</ele>
        <time>2014-03-18T12:38:38Z</time>
      </trkpt>
      <trkpt lat="44.09391" lon="2.22998">
        <ele>393.8</ele>
        <time>2014-03-18T12:38:42Z</time>
      </trkpt>
      <trkpt lat="44.09376" lon="2.23003">
        <ele>392.84</ele>
        <time>2014-03-18T12:38:55Z</time>
      </trkpt>
      <trkpt lat="44.09366" lon="2.23004">
        <ele>393.32</ele>
        <time>2014-03-18T12:39:04Z</time>
      </trkpt>
      <trkpt lat="44.09346" lon="2.23005">
        <ele>392.84</ele>
        <time>2014-03-18T12:39:21Z</time>
      </trkpt>
      <trkpt lat="44.0933" lon="2.23007">
        <ele>393.32</ele>
        <time>2014-03-18T12:39:35Z</time>
      </trkpt>
      <trkpt lat="44.09312" lon="2.2301">
        <ele>394.76</ele>
        <time>2014-03-18T12:39:50Z</time>
      </trkpt>
      <trkpt lat="44.09307" lon="2.23012">
        <ele>394.28</ele>
        <time>2014-03-18T12:39:54Z</time>
      </trkpt>
      <trkpt lat="44.09293" lon="2.23014">
        <ele>394.28</ele>
        <time>2014-03-18T12:40:06Z</time>
      </trkpt>
      <trkpt lat="44.09281" lon="2.23009">
        <ele>393.8</ele>
        <time>2014-03-18T12:40:19Z</time>
      </trkpt>
      <trkpt lat="44.09273" lon="2.22994">
        <ele>394.28</ele>
        <time>2014-03-18T12:40:34Z</time>
      </trkpt>
      <trkpt lat="44.09272" lon="2.22993">
        <ele>394.28</ele>
        <time>2014-03-18T12:40:37Z</time>
      </trkpt>
      <trkpt lat="44.09261" lon="2.22977">
        <ele>394.28</ele>
        <time>2014-03-18T12:40:54Z</time>
      </trkpt>
      <trkpt lat="44.09257" lon="2.22969">
        <ele>394.76</ele>
        <time>2014-03-18T12:41:03Z</time>
      </trkpt>
      <trkpt lat="44.09253" lon="2.22962">
        <ele>395.24</ele>
        <time>2014-03-18T12:41:10Z</time>
      </trkpt>
      <trkpt lat="44.09242" lon="2.22942">
        <ele>394.76</ele>
        <time>2014-03-18T12:41:28Z</time>
      </trkpt>
      <trkpt lat="44.0923" lon="2.22923">
        <ele>395.24</ele>
        <time>2014-03-18T12:41:46Z</time>
      </trkpt>
      <trkpt lat="44.09221" lon="2.22903">
        <ele>395.24</ele>
        <time>2014-03-18T12:42:02Z</time>
      </trkpt>
      <trkpt lat="44.09217" lon="2.22895">
        <ele>395.24</ele>
        <time>2014-03-18T12:42:09Z</time>
      </trkpt>
      <trkpt lat="44.09215" lon="2.22896">
        <ele>395.24</ele>
        <time>2014-03-18T12:42:11Z</time>
      </trkpt>
      <trkpt lat="44.09209" lon="2.22884">
        <ele>394.76</ele>
        <time>2014-03-18T12:42:24Z</time>
      </trkpt>
      <trkpt lat="44.09208" lon="2.22878">
        <ele>394.28</ele>
        <time>2014-03-18T12:42:29Z</time>
      </trkpt>
      <trkpt lat="44.09206" lon="2.22873">
        <ele>394.28</ele>
        <time>2014-03-18T12:42:33Z</time>
      </trkpt>
      <trkpt lat="44.09203" lon="2.22867">
        <ele>394.28</ele>
        <time>2014-03-18T12:42:37Z</time>
      </trkpt>
      <trkpt lat="44.0919" lon="2.22847">
        <ele>394.76</ele>
        <time>2014-03-18T12:42:54Z</time>
      </trkpt>
      <trkpt lat="44.09183" lon="2.22839">
        <ele>394.76</ele>
        <time>2014-03-18T12:43:03Z</time>
      </trkpt>
      <trkpt lat="44.09173" lon="2.22822">
        <ele>393.8</ele>
        <time>2014-03-18T12:43:20Z</time>
      </trkpt>
      <trkpt lat="44.09172" lon="2.22815">
        <ele>392.84</ele>
        <time>2014-03-18T12:43:32Z</time>
      </trkpt>
      <trkpt lat="44.09173" lon="2.22812">
        <ele>392.84</ele>
        <time>2014-03-18T12:43:50Z</time>
      </trkpt>
      <trkpt lat="44.09174" lon="2.22807">
        <ele>393.8</ele>
        <time>2014-03-18T12:44:02Z</time>
      </trkpt>
      <trkpt lat="44.09174" lon="2.22806">
        <ele>393.8</ele>
        <time>2014-03-18T12:44:24Z</time>
      </trkpt>
      <trkpt lat="44.09176" lon="2.22799">
        <ele>393.8</ele>
        <time>2014-03-18T12:44:37Z</time>
      </trkpt>
      <trkpt lat="44.09176" lon="2.22787">
        <ele>394.28</ele>
        <time>2014-03-18T12:44:51Z</time>
      </trkpt>
      <trkpt lat="44.09179" lon="2.22785">
        <ele>393.32</ele>
        <time>2014-03-18T12:45:15Z</time>
      </trkpt>
      <trkpt lat="44.0918" lon="2.22778">
        <ele>392.36</ele>
        <time>2014-03-18T12:45:22Z</time>
      </trkpt>
      <trkpt lat="44.09182" lon="2.22768">
        <ele>391.87</ele>
        <time>2014-03-18T12:45:29Z</time>
      </trkpt>
      <trkpt lat="44.09182" lon="2.22762">
        <ele>391.87</ele>
        <time>2014-03-18T12:45:34Z</time>
      </trkpt>
      <trkpt lat="44.09187" lon="2.22737">
        <ele>391.39</ele>
        <time>2014-03-18T12:45:51Z</time>
      </trkpt>
      <trkpt lat="44.09189" lon="2.22709">
        <ele>390.91</ele>
        <time>2014-03-18T12:46:09Z</time>
      </trkpt>
      <trkpt lat="44.09183" lon="2.22685">
        <ele>392.36</ele>
        <time>2014-03-18T12:46:27Z</time>
      </trkpt>
      <trkpt lat="44.09176" lon="2.22678">
        <ele>390.91</ele>
        <time>2014-03-18T12:46:41Z</time>
      </trkpt>
      <trkpt lat="44.09165" lon="2.22661">
        <ele>389.95</ele>
        <time>2014-03-18T12:46:57Z</time>
      </trkpt>
      <trkpt lat="44.09149" lon="2.2264">
        <ele>388.99</ele>
        <time>2014-03-18T12:47:16Z</time>
      </trkpt>
      <trkpt lat="44.09136" lon="2.22622">
        <ele>388.03</ele>
        <time>2014-03-18T12:47:32Z</time>
      </trkpt>
      <trkpt lat="44.09134" lon="2.2262">
        <ele>388.03</ele>
        <time>2014-03-18T12:47:34Z</time>
      </trkpt>
      <trkpt lat="44.0912" lon="2.22599">
        <ele>388.51</ele>
        <time>2014-03-18T12:47:51Z</time>
      </trkpt>
      <trkpt lat="44.09104" lon="2.22579">
        <ele>387.55</ele>
        <time>2014-03-18T12:48:09Z</time>
      </trkpt>
      <trkpt lat="44.09091" lon="2.22559">
        <ele>386.59</ele>
        <time>2014-03-18T12:48:26Z</time>
      </trkpt>
      <trkpt lat="44.09078" lon="2.22538">
        <ele>384.66</ele>
        <time>2014-03-18T12:48:42Z</time>
      </trkpt>
      <trkpt lat="44.09062" lon="2.22514">
        <ele>383.7</ele>
        <time>2014-03-18T12:49:02Z</time>
      </trkpt>
      <trkpt lat="44.09048" lon="2.22487">
        <ele>383.7</ele>
        <time>2014-03-18T12:49:22Z</time>
      </trkpt>
      <trkpt lat="44.09035" lon="2.22461">
        <ele>384.18</ele>
        <time>2014-03-18T12:49:41Z</time>
      </trkpt>
      <trkpt lat="44.09027" lon="2.22429">
        <ele>385.63</ele>
        <time>2014-03-18T12:50:01Z</time>
      </trkpt>
      <trkpt lat="44.09021" lon="2.22401">
        <ele>383.22</ele>
        <time>2014-03-18T12:50:19Z</time>
      </trkpt>
      <trkpt lat="44.09014" lon="2.22375">
        <ele>383.22</ele>
        <time>2014-03-18T12:50:36Z</time>
      </trkpt>
      <trkpt lat="44.09009" lon="2.22346">
        <ele>381.78</ele>
        <time>2014-03-18T12:50:54Z</time>
      </trkpt>
      <trkpt lat="44.09007" lon="2.22329">
        <ele>381.3</ele>
        <time>2014-03-18T12:51:08Z</time>
      </trkpt>
      <trkpt lat="44.09004" lon="2.22302">
        <ele>379.86</ele>
        <time>2014-03-18T12:51:26Z</time>
      </trkpt>
      <trkpt lat="44.09002" lon="2.22276">
        <ele>378.42</ele>
        <time>2014-03-18T12:51:42Z</time>
      </trkpt>
      <trkpt lat="44.09005" lon="2.22248">
        <ele>376.97</ele>
        <time>2014-03-18T12:52:00Z</time>
      </trkpt>
      <trkpt lat="44.09009" lon="2.22214">
        <ele>377.94</ele>
        <time>2014-03-18T12:52:20Z</time>
      </trkpt>
      <trkpt lat="44.09014" lon="2.22183">
        <ele>376.97</ele>
        <time>2014-03-18T12:52:39Z</time>
      </trkpt>
      <trkpt lat="44.09016" lon="2.22156">
        <ele>375.53</ele>
        <time>2014-03-18T12:52:56Z</time>
      </trkpt>
      <trkpt lat="44.09018" lon="2.22124">
        <ele>375.05</ele>
        <time>2014-03-18T12:53:16Z</time>
      </trkpt>
      <trkpt lat="44.09019" lon="2.22094">
        <ele>374.57</ele>
        <time>2014-03-18T12:53:35Z</time>
      </trkpt>
      <trkpt lat="44.09018" lon="2.22089">
        <ele>374.57</ele>
        <time>2014-03-18T12:53:38Z</time>
      </trkpt>
      <trkpt lat="44.09014" lon="2.22084">
        <ele>373.61</ele>
        <time>2014-03-18T12:53:54Z</time>
      </trkpt>
      <trkpt lat="44.09004" lon="2.22079">
        <ele>371.69</ele>
        <time>2014-03-18T12:54:06Z</time>
      </trkpt>
      <trkpt lat="44.08992" lon="2.22069">
        <ele>371.21</ele>
        <time>2014-03-18T12:54:19Z</time>
      </trkpt>
      <trkpt lat="44.08982" lon="2.22059">
        <ele>371.69</ele>
        <time>2014-03-18T12:54:31Z</time>
      </trkpt>
      <trkpt lat="44.08978" lon="2.22056">
        <ele>372.17</ele>
        <time>2014-03-18T12:54:35Z</time>
      </trkpt>
      <trkpt lat="44.08965" lon="2.22044">
        <ele>371.69</ele>
        <time>2014-03-18T12:54:49Z</time>
      </trkpt>
      <trkpt lat="44.08951" lon="2.22033">
        <ele>368.32</ele>
        <time>2014-03-18T12:55:04Z</time>
      </trkpt>
      <trkpt lat="44.08945" lon="2.22028">
        <ele>365.44</ele>
        <time>2014-03-18T12:55:14Z</time>
      </trkpt>
      <trkpt lat="44.08941" lon="2.22023">
        <ele>365.92</ele>
        <time>2014-03-18T12:55:26Z</time>
      </trkpt>
      <trkpt lat="44.08938" lon="2.22018">
        <ele>365.44</ele>
        <time>2014-03-18T12:55:31Z</time>
      </trkpt>
      <trkpt lat="44.08929" lon="2.22006">
        <ele>364</ele>
        <time>2014-03-18T12:55:44Z</time>
      </trkpt>
      <trkpt lat="44.0892" lon="2.21988">
        <ele>364.48</ele>
        <time>2014-03-18T12:55:57Z</time>
      </trkpt>
      <trkpt lat="44.08914" lon="2.21966">
        <ele>361.59</ele>
        <time>2014-03-18T12:56:12Z</time>
      </trkpt>
      <trkpt lat="44.0891" lon="2.21946">
        <ele>356.79</ele>
        <time>2014-03-18T12:56:27Z</time>
      </trkpt>
      <trkpt lat="44.08908" lon="2.21932">
        <ele>354.38</ele>
        <time>2014-03-18T12:56:38Z</time>
      </trkpt>
      <trkpt lat="44.08906" lon="2.21925">
        <ele>353.9</ele>
        <time>2014-03-18T12:56:42Z</time>
      </trkpt>
      <trkpt lat="44.089" lon="2.21914">
        <ele>351.98</ele>
        <time>2014-03-18T12:56:49Z</time>
      </trkpt>
      <trkpt lat="44.08896" lon="2.21901">
        <ele>348.13</ele>
        <time>2014-03-18T12:56:57Z</time>
      </trkpt>
      <trkpt lat="44.08892" lon="2.2189">
        <ele>345.73</ele>
        <time>2014-03-18T12:57:05Z</time>
      </trkpt>
      <trkpt lat="44.08885" lon="2.21876">
        <ele>338.04</ele>
        <time>2014-03-18T12:57:20Z</time>
      </trkpt>
      <trkpt lat="44.0888" lon="2.21866">
        <ele>335.64</ele>
        <time>2014-03-18T12:57:26Z</time>
      </trkpt>
      <trkpt lat="44.08874" lon="2.21849">
        <ele>332.75</ele>
        <time>2014-03-18T12:57:37Z</time>
      </trkpt>
      <trkpt lat="44.08867" lon="2.21827">
        <ele>330.83</ele>
        <time>2014-03-18T12:57:52Z</time>
      </trkpt>
      <trkpt lat="44.08864" lon="2.21812">
        <ele>329.39</ele>
        <time>2014-03-18T12:58:03Z</time>
      </trkpt>
      <trkpt lat="44.08863" lon="2.21811">
        <ele>329.39</ele>
        <time>2014-03-18T12:58:04Z</time>
      </trkpt>
      <trkpt lat="44.08862" lon="2.21798">
        <ele>329.39</ele>
        <time>2014-03-18T12:58:12Z</time>
      </trkpt>
      <trkpt lat="44.08859" lon="2.21786">
        <ele>326.99</ele>
        <time>2014-03-18T12:58:19Z</time>
      </trkpt>
      <trkpt lat="44.08853" lon="2.21773">
        <ele>327.47</ele>
        <time>2014-03-18T12:58:27Z</time>
      </trkpt>
      <trkpt lat="44.08853" lon="2.21766">
        <ele>327.95</ele>
        <time>2014-03-18T12:58:31Z</time>
      </trkpt>
      <trkpt lat="44.0885" lon="2.21757">
        <ele>328.43</ele>
        <time>2014-03-18T12:58:38Z</time>
      </trkpt>
      <trkpt lat="44.08851" lon="2.21747">
        <ele>329.39</ele>
        <time>2014-03-18T12:58:44Z</time>
      </trkpt>
      <trkpt lat="44.08845" lon="2.2173">
        <ele>328.91</ele>
        <time>2014-03-18T12:58:58Z</time>
      </trkpt>
      <trkpt lat="44.08843" lon="2.21728">
        <ele>328.43</ele>
        <time>2014-03-18T12:59:01Z</time>
      </trkpt>
      <trkpt lat="44.08845" lon="2.21717">
        <ele>330.35</ele>
        <time>2014-03-18T12:59:06Z</time>
      </trkpt>
      <trkpt lat="44.08843" lon="2.21704">
        <ele>330.83</ele>
        <time>2014-03-18T12:59:16Z</time>
      </trkpt>
      <trkpt lat="44.0884" lon="2.21688">
        <ele>329.87</ele>
        <time>2014-03-18T12:59:27Z</time>
      </trkpt>
      <trkpt lat="44.08845" lon="2.2167">
        <ele>338.04</ele>
        <time>2014-03-18T12:59:34Z</time>
      </trkpt>
      <trkpt lat="44.08846" lon="2.21655">
        <ele>344.29</ele>
        <time>2014-03-18T12:59:43Z</time>
      </trkpt>
      <trkpt lat="44.08839" lon="2.21634">
        <ele>344.77</ele>
        <time>2014-03-18T12:59:57Z</time>
      </trkpt>
      <trkpt lat="44.08835" lon="2.21626">
        <ele>344.77</ele>
        <time>2014-03-18T13:00:03Z</time>
      </trkpt>
      <trkpt lat="44.0883" lon="2.21603">
        <ele>343.33</ele>
        <time>2014-03-18T13:00:17Z</time>
      </trkpt>
      <trkpt lat="44.08826" lon="2.21582">
        <ele>341.41</ele>
        <time>2014-03-18T13:00:30Z</time>
      </trkpt>
      <trkpt lat="44.0882" lon="2.21565">
        <ele>340.92</ele>
        <time>2014-03-18T13:00:43Z</time>
      </trkpt>
      <trkpt lat="44.08813" lon="2.21544">
        <ele>340.92</ele>
        <time>2014-03-18T13:00:57Z</time>
      </trkpt>
      <trkpt lat="44.08811" lon="2.21536">
        <ele>339.96</ele>
        <time>2014-03-18T13:01:05Z</time>
      </trkpt>
      <trkpt lat="44.08809" lon="2.21529">
        <ele>339.48</ele>
        <time>2014-03-18T13:01:09Z</time>
      </trkpt>
      <trkpt lat="44.08807" lon="2.21525">
        <ele>338.52</ele>
        <time>2014-03-18T13:01:12Z</time>
      </trkpt>
      <trkpt lat="44.08807" lon="2.2152">
        <ele>338.04</ele>
        <time>2014-03-18T13:01:25Z</time>
      </trkpt>
      <trkpt lat="44.08805" lon="2.21509">
        <ele>335.64</ele>
        <time>2014-03-18T13:01:40Z</time>
      </trkpt>
      <trkpt lat="44.08805" lon="2.21504">
        <ele>336.12</ele>
        <time>2014-03-18T13:02:00Z</time>
      </trkpt>
      <trkpt lat="44.08805" lon="2.21492">
        <ele>334.68</ele>
        <time>2014-03-18T13:02:12Z</time>
      </trkpt>
      <trkpt lat="44.08807" lon="2.21473">
        <ele>331.31</ele>
        <time>2014-03-18T13:02:25Z</time>
      </trkpt>
      <trkpt lat="44.08808" lon="2.21467">
        <ele>329.87</ele>
        <time>2014-03-18T13:02:30Z</time>
      </trkpt>
      <trkpt lat="44.08809" lon="2.21462">
        <ele>329.39</ele>
        <time>2014-03-18T13:02:33Z</time>
      </trkpt>
      <trkpt lat="44.08811" lon="2.21446">
        <ele>327.95</ele>
        <time>2014-03-18T13:02:45Z</time>
      </trkpt>
      <trkpt lat="44.08813" lon="2.21442">
        <ele>327.95</ele>
        <time>2014-03-18T13:02:48Z</time>
      </trkpt>
      <trkpt lat="44.0882" lon="2.21427">
        <ele>325.54</ele>
        <time>2014-03-18T13:02:58Z</time>
      </trkpt>
      <trkpt lat="44.08826" lon="2.21412">
        <ele>323.62</ele>
        <time>2014-03-18T13:03:11Z</time>
      </trkpt>
      <trkpt lat="44.08827" lon="2.2141">
        <ele>323.14</ele>
        <time>2014-03-18T13:03:28Z</time>
      </trkpt>
      <trkpt lat="44.08828" lon="2.21412">
        <ele>322.66</ele>
        <time>2014-03-18T13:03:52Z</time>
      </trkpt>
      <trkpt lat="44.08829" lon="2.21412">
        <ele>322.18</ele>
        <time>2014-03-18T13:04:11Z</time>
      </trkpt>
      <trkpt lat="44.08831" lon="2.21412">
        <ele>322.18</ele>
        <time>2014-03-18T13:04:14Z</time>
      </trkpt>
      <trkpt lat="44.08838" lon="2.21414">
        <ele>321.22</ele>
        <time>2014-03-18T13:04:24Z</time>
      </trkpt>
      <trkpt lat="44.08851" lon="2.21417">
        <ele>319.3</ele>
        <time>2014-03-18T13:04:38Z</time>
      </trkpt>
      <trkpt lat="44.08854" lon="2.21417">
        <ele>318.33</ele>
        <time>2014-03-18T13:04:41Z</time>
      </trkpt>
      <trkpt lat="44.08861" lon="2.21419">
        <ele>317.37</ele>
        <time>2014-03-18T13:04:48Z</time>
      </trkpt>
      <trkpt lat="44.08872" lon="2.21428">
        <ele>316.41</ele>
        <time>2014-03-18T13:05:01Z</time>
      </trkpt>
      <trkpt lat="44.08874" lon="2.2143">
        <ele>316.41</ele>
        <time>2014-03-18T13:05:04Z</time>
      </trkpt>
      <trkpt lat="44.08878" lon="2.21433">
        <ele>316.41</ele>
        <time>2014-03-18T13:05:08Z</time>
      </trkpt>
      <trkpt lat="44.08886" lon="2.21441">
        <ele>315.93</ele>
        <time>2014-03-18T13:05:22Z</time>
      </trkpt>
      <trkpt lat="44.0889" lon="2.21442">
        <ele>314.97</ele>
        <time>2014-03-18T13:05:38Z</time>
      </trkpt>
      <trkpt lat="44.08893" lon="2.21445">
        <ele>315.45</ele>
        <time>2014-03-18T13:05:45Z</time>
      </trkpt>
      <trkpt lat="44.08903" lon="2.21452">
        <ele>316.89</ele>
        <time>2014-03-18T13:05:55Z</time>
      </trkpt>
      <trkpt lat="44.08916" lon="2.2147">
        <ele>315.93</ele>
        <time>2014-03-18T13:06:10Z</time>
      </trkpt>
      <trkpt lat="44.08921" lon="2.21479">
        <ele>314.01</ele>
        <time>2014-03-18T13:06:21Z</time>
      </trkpt>
      <trkpt lat="44.08921" lon="2.21481">
        <ele>314.49</ele>
        <time>2014-03-18T13:06:25Z</time>
      </trkpt>
      <trkpt lat="44.08924" lon="2.21485">
        <ele>314.01</ele>
        <time>2014-03-18T13:06:29Z</time>
      </trkpt>
      <trkpt lat="44.08927" lon="2.21492">
        <ele>314.49</ele>
        <time>2014-03-18T13:06:34Z</time>
      </trkpt>
      <trkpt lat="44.08921" lon="2.21502">
        <ele>313.53</ele>
        <time>2014-03-18T13:06:41Z</time>
      </trkpt>
      <trkpt lat="44.08921" lon="2.21505">
        <ele>313.53</ele>
        <time>2014-03-18T13:06:42Z</time>
      </trkpt>
      <trkpt lat="44.08929" lon="2.21518">
        <ele>314.01</ele>
        <time>2014-03-18T13:06:52Z</time>
      </trkpt>
      <trkpt lat="44.08936" lon="2.21541">
        <ele>314.01</ele>
        <time>2014-03-18T13:07:07Z</time>
      </trkpt>
      <trkpt lat="44.08945" lon="2.21547">
        <ele>314.01</ele>
        <time>2014-03-18T13:07:17Z</time>
      </trkpt>
      <trkpt lat="44.08961" lon="2.21544">
        <ele>314.01</ele>
        <time>2014-03-18T13:07:31Z</time>
      </trkpt>
      <trkpt lat="44.08976" lon="2.21543">
        <ele>315.45</ele>
        <time>2014-03-18T13:07:44Z</time>
      </trkpt>
      <trkpt lat="44.0898" lon="2.21543">
        <ele>314.49</ele>
        <time>2014-03-18T13:07:48Z</time>
      </trkpt>
      <trkpt lat="44.08983" lon="2.21546">
        <ele>314.01</ele>
        <time>2014-03-18T13:07:54Z</time>
      </trkpt>
      <trkpt lat="44.08985" lon="2.21538">
        <ele>314.01</ele>
        <time>2014-03-18T13:08:00Z</time>
      </trkpt>
      <trkpt lat="44.08985" lon="2.21513">
        <ele>314.49</ele>
        <time>2014-03-18T13:08:13Z</time>
      </trkpt>
      <trkpt lat="44.08984" lon="2.21486">
        <ele>312.57</ele>
        <time>2014-03-18T13:08:29Z</time>
      </trkpt>
      <trkpt lat="44.08984" lon="2.21484">
        <ele>312.57</ele>
        <time>2014-03-18T13:08:30Z</time>
      </trkpt>
      <trkpt lat="44.08984" lon="2.21476">
        <ele>310.64</ele>
        <time>2014-03-18T13:08:35Z</time>
      </trkpt>
      <trkpt lat="44.08983" lon="2.21455">
        <ele>306.8</ele>
        <time>2014-03-18T13:08:48Z</time>
      </trkpt>
      <trkpt lat="44.08981" lon="2.21447">
        <ele>304.88</ele>
        <time>2014-03-18T13:08:52Z</time>
      </trkpt>
      <trkpt lat="44.08982" lon="2.21419">
        <ele>295.74</ele>
        <time>2014-03-18T13:09:08Z</time>
      </trkpt>
      <trkpt lat="44.08983" lon="2.21401">
        <ele>289.49</ele>
        <time>2014-03-18T13:09:19Z</time>
      </trkpt>
      <trkpt lat="44.08982" lon="2.21393">
        <ele>288.53</ele>
        <time>2014-03-18T13:09:23Z</time>
      </trkpt>
      <trkpt lat="44.08975" lon="2.21369">
        <ele>286.61</ele>
        <time>2014-03-18T13:09:39Z</time>
      </trkpt>
      <trkpt lat="44.08974" lon="2.21361">
        <ele>285.65</ele>
        <time>2014-03-18T13:09:46Z</time>
      </trkpt>
      <trkpt lat="44.08967" lon="2.21346">
        <ele>287.09</ele>
        <time>2014-03-18T13:09:57Z</time>
      </trkpt>
      <trkpt lat="44.08951" lon="2.21331">
        <ele>292.86</ele>
        <time>2014-03-18T13:10:12Z</time>
      </trkpt>
      <trkpt lat="44.08938" lon="2.21317">
        <ele>300.07</ele>
        <time>2014-03-18T13:10:25Z</time>
      </trkpt>
      <trkpt lat="44.08932" lon="2.21311">
        <ele>301.51</ele>
        <time>2014-03-18T13:10:31Z</time>
      </trkpt>
      <trkpt lat="44.08921" lon="2.21295">
        <ele>299.59</ele>
        <time>2014-03-18T13:10:46Z</time>
      </trkpt>
      <trkpt lat="44.0892" lon="2.21295">
        <ele>299.59</ele>
        <time>2014-03-18T13:10:47Z</time>
      </trkpt>
      <trkpt lat="44.08917" lon="2.21292">
        <ele>299.59</ele>
        <time>2014-03-18T13:10:50Z</time>
      </trkpt>
      <trkpt lat="44.08904" lon="2.2128">
        <ele>300.55</ele>
        <time>2014-03-18T13:11:05Z</time>
      </trkpt>
      <trkpt lat="44.08897" lon="2.21272">
        <ele>299.59</ele>
        <time>2014-03-18T13:11:13Z</time>
      </trkpt>
      <trkpt lat="44.08889" lon="2.21256">
        <ele>300.55</ele>
        <time>2014-03-18T13:11:23Z</time>
      </trkpt>
      <trkpt lat="44.08887" lon="2.21248">
        <ele>301.99</ele>
        <time>2014-03-18T13:11:29Z</time>
      </trkpt>
      <trkpt lat="44.08886" lon="2.21244">
        <ele>302.95</ele>
        <time>2014-03-18T13:11:32Z</time>
      </trkpt>
      <trkpt lat="44.08886" lon="2.21238">
        <ele>303.43</ele>
        <time>2014-03-18T13:11:38Z</time>
      </trkpt>
      <trkpt lat="44.08888" lon="2.21221">
        <ele>304.88</ele>
        <time>2014-03-18T13:11:49Z</time>
      </trkpt>
      <trkpt lat="44.08893" lon="2.21207">
        <ele>306.8</ele>
        <time>2014-03-18T13:12:00Z</time>
      </trkpt>
      <trkpt lat="44.08898" lon="2.21192">
        <ele>307.28</ele>
        <time>2014-03-18T13:12:10Z</time>
      </trkpt>
      <trkpt lat="44.08899" lon="2.21189">
        <ele>307.28</ele>
        <time>2014-03-18T13:12:14Z</time>
      </trkpt>
      <trkpt lat="44.08906" lon="2.21169">
        <ele>312.57</ele>
        <time>2014-03-18T13:12:25Z</time>
      </trkpt>
      <trkpt lat="44.08906" lon="2.21167">
        <ele>312.57</ele>
        <time>2014-03-18T13:12:26Z</time>
      </trkpt>
      <trkpt lat="44.08908" lon="2.21158">
        <ele>313.05</ele>
        <time>2014-03-18T13:12:32Z</time>
      </trkpt>
      <trkpt lat="44.08908" lon="2.21154">
        <ele>312.57</ele>
        <time>2014-03-18T13:12:35Z</time>
      </trkpt>
      <trkpt lat="44.08912" lon="2.21142">
        <ele>311.12</ele>
        <time>2014-03-18T13:12:42Z</time>
      </trkpt>
      <trkpt lat="44.08916" lon="2.2113">
        <ele>310.64</ele>
        <time>2014-03-18T13:12:50Z</time>
      </trkpt>
      <trkpt lat="44.08921" lon="2.21108">
        <ele>312.09</ele>
        <time>2014-03-18T13:13:04Z</time>
      </trkpt>
      <trkpt lat="44.08925" lon="2.21092">
        <ele>311.12</ele>
        <time>2014-03-18T13:13:14Z</time>
      </trkpt>
      <trkpt lat="44.08932" lon="2.21071">
        <ele>311.6</ele>
        <time>2014-03-18T13:13:27Z</time>
      </trkpt>
      <trkpt lat="44.08931" lon="2.21061">
        <ele>312.57</ele>
        <time>2014-03-18T13:13:34Z</time>
      </trkpt>
      <trkpt lat="44.08932" lon="2.21058">
        <ele>313.53</ele>
        <time>2014-03-18T13:13:36Z</time>
      </trkpt>
      <trkpt lat="44.08926" lon="2.21047">
        <ele>314.97</ele>
        <time>2014-03-18T13:13:45Z</time>
      </trkpt>
      <trkpt lat="44.08924" lon="2.2104">
        <ele>315.45</ele>
        <time>2014-03-18T13:13:49Z</time>
      </trkpt>
      <trkpt lat="44.08922" lon="2.21032">
        <ele>315.45</ele>
        <time>2014-03-18T13:13:54Z</time>
      </trkpt>
      <trkpt lat="44.08918" lon="2.21009">
        <ele>314.01</ele>
        <time>2014-03-18T13:14:09Z</time>
      </trkpt>
      <trkpt lat="44.08916" lon="2.21006">
        <ele>314.49</ele>
        <time>2014-03-18T13:14:12Z</time>
      </trkpt>
      <trkpt lat="44.08914" lon="2.20998">
        <ele>315.45</ele>
        <time>2014-03-18T13:14:17Z</time>
      </trkpt>
      <trkpt lat="44.08906" lon="2.20974">
        <ele>313.53</ele>
        <time>2014-03-18T13:14:32Z</time>
      </trkpt>
      <trkpt lat="44.08902" lon="2.20966">
        <ele>313.53</ele>
        <time>2014-03-18T13:14:38Z</time>
      </trkpt>
      <trkpt lat="44.08892" lon="2.20951">
        <ele>313.53</ele>
        <time>2014-03-18T13:14:50Z</time>
      </trkpt>
      <trkpt lat="44.08881" lon="2.2094">
        <ele>313.05</ele>
        <time>2014-03-18T13:15:02Z</time>
      </trkpt>
      <trkpt lat="44.08874" lon="2.20933">
        <ele>311.6</ele>
        <time>2014-03-18T13:15:08Z</time>
      </trkpt>
      <trkpt lat="44.08863" lon="2.20924">
        <ele>310.64</ele>
        <time>2014-03-18T13:15:20Z</time>
      </trkpt>
      <trkpt lat="44.08858" lon="2.20919">
        <ele>309.68</ele>
        <time>2014-03-18T13:15:26Z</time>
      </trkpt>
      <trkpt lat="44.08852" lon="2.20916">
        <ele>309.2</ele>
        <time>2014-03-18T13:15:30Z</time>
      </trkpt>
      <trkpt lat="44.08843" lon="2.20912">
        <ele>309.2</ele>
        <time>2014-03-18T13:15:38Z</time>
      </trkpt>
      <trkpt lat="44.08825" lon="2.20912">
        <ele>307.76</ele>
        <time>2014-03-18T13:15:52Z</time>
      </trkpt>
      <trkpt lat="44.08823" lon="2.20913">
        <ele>308.24</ele>
        <time>2014-03-18T13:15:54Z</time>
      </trkpt>
      <trkpt lat="44.08806" lon="2.20918">
        <ele>308.72</ele>
        <time>2014-03-18T13:16:08Z</time>
      </trkpt>
      <trkpt lat="44.08799" lon="2.20922">
        <ele>308.24</ele>
        <time>2014-03-18T13:16:15Z</time>
      </trkpt>
      <trkpt lat="44.08785" lon="2.20929">
        <ele>308.24</ele>
        <time>2014-03-18T13:16:28Z</time>
      </trkpt>
      <trkpt lat="44.0877" lon="2.20941">
        <ele>307.76</ele>
        <time>2014-03-18T13:16:42Z</time>
      </trkpt>
      <trkpt lat="44.08768" lon="2.20943">
        <ele>308.24</ele>
        <time>2014-03-18T13:16:44Z</time>
      </trkpt>
      <trkpt lat="44.08764" lon="2.20944">
        <ele>308.72</ele>
        <time>2014-03-18T13:16:48Z</time>
      </trkpt>
      <trkpt lat="44.08754" lon="2.20951">
        <ele>306.8</ele>
        <time>2014-03-18T13:16:59Z</time>
      </trkpt>
      <trkpt lat="44.08744" lon="2.20955">
        <ele>307.76</ele>
        <time>2014-03-18T13:17:08Z</time>
      </trkpt>
      <trkpt lat="44.08737" lon="2.20954">
        <ele>307.28</ele>
        <time>2014-03-18T13:17:14Z</time>
      </trkpt>
      <trkpt lat="44.08731" lon="2.20947">
        <ele>306.8</ele>
        <time>2014-03-18T13:17:21Z</time>
      </trkpt>
      <trkpt lat="44.0872" lon="2.20923">
        <ele>306.8</ele>
        <time>2014-03-18T13:17:38Z</time>
      </trkpt>
      <trkpt lat="44.08716" lon="2.20899">
        <ele>307.76</ele>
        <time>2014-03-18T13:17:53Z</time>
      </trkpt>
      <trkpt lat="44.08716" lon="2.20895">
        <ele>307.76</ele>
        <time>2014-03-18T13:17:55Z</time>
      </trkpt>
      <trkpt lat="44.08722" lon="2.20874">
        <ele>308.24</ele>
        <time>2014-03-18T13:18:10Z</time>
      </trkpt>
      <trkpt lat="44.08725" lon="2.20867">
        <ele>307.76</ele>
        <time>2014-03-18T13:18:15Z</time>
      </trkpt>
      <trkpt lat="44.08728" lon="2.20859">
        <ele>306.8</ele>
        <time>2014-03-18T13:18:22Z</time>
      </trkpt>
      <trkpt lat="44.0873" lon="2.20848">
        <ele>306.8</ele>
        <time>2014-03-18T13:18:38Z</time>
      </trkpt>
      <trkpt lat="44.0873" lon="2.20845">
        <ele>308.72</ele>
        <time>2014-03-18T13:18:54Z</time>
      </trkpt>
      <trkpt lat="44.08727" lon="2.20831">
        <ele>309.2</ele>
        <time>2014-03-18T13:19:04Z</time>
      </trkpt>
      <trkpt lat="44.08733" lon="2.20815">
        <ele>307.28</ele>
        <time>2014-03-18T13:19:17Z</time>
      </trkpt>
      <trkpt lat="44.08733" lon="2.20814">
        <ele>307.28</ele>
        <time>2014-03-18T13:19:18Z</time>
      </trkpt>
      <trkpt lat="44.08734" lon="2.20808">
        <ele>307.28</ele>
        <time>2014-03-18T13:19:22Z</time>
      </trkpt>
      <trkpt lat="44.08738" lon="2.20788">
        <ele>308.72</ele>
        <time>2014-03-18T13:19:36Z</time>
      </trkpt>
      <trkpt lat="44.0874" lon="2.20766">
        <ele>309.2</ele>
        <time>2014-03-18T13:19:49Z</time>
      </trkpt>
      <trkpt lat="44.08738" lon="2.20755">
        <ele>310.16</ele>
        <time>2014-03-18T13:20:04Z</time>
      </trkpt>
      <trkpt lat="44.08738" lon="2.20754">
        <ele>310.16</ele>
        <time>2014-03-18T13:20:07Z</time>
      </trkpt>
      <trkpt lat="44.08738" lon="2.20751">
        <ele>309.68</ele>
        <time>2014-03-18T13:20:11Z</time>
      </trkpt>
      <trkpt lat="44.08736" lon="2.20742">
        <ele>308.72</ele>
        <time>2014-03-18T13:20:18Z</time>
      </trkpt>
      <trkpt lat="44.0873" lon="2.20725">
        <ele>308.24</ele>
        <time>2014-03-18T13:20:30Z</time>
      </trkpt>
      <trkpt lat="44.08729" lon="2.20721">
        <ele>309.2</ele>
        <time>2014-03-18T13:20:33Z</time>
      </trkpt>
      <trkpt lat="44.08726" lon="2.20713">
        <ele>310.16</ele>
        <time>2014-03-18T13:20:39Z</time>
      </trkpt>
      <trkpt lat="44.08721" lon="2.20701">
        <ele>310.16</ele>
        <time>2014-03-18T13:20:48Z</time>
      </trkpt>
      <trkpt lat="44.08719" lon="2.20698">
        <ele>309.68</ele>
        <time>2014-03-18T13:20:51Z</time>
      </trkpt>
      <trkpt lat="44.08717" lon="2.20694">
        <ele>309.2</ele>
        <time>2014-03-18T13:20:54Z</time>
      </trkpt>
      <trkpt lat="44.08713" lon="2.20686">
        <ele>309.2</ele>
        <time>2014-03-18T13:21:00Z</time>
      </trkpt>
      <trkpt lat="44.08712" lon="2.20682">
        <ele>309.68</ele>
        <time>2014-03-18T13:21:03Z</time>
      </trkpt>
      <trkpt lat="44.08706" lon="2.20667">
        <ele>312.57</ele>
        <time>2014-03-18T13:21:17Z</time>
      </trkpt>
      <trkpt lat="44.08703" lon="2.20657">
        <ele>313.53</ele>
        <time>2014-03-18T13:21:25Z</time>
      </trkpt>
      <trkpt lat="44.08698" lon="2.20643">
        <ele>311.6</ele>
        <time>2014-03-18T13:21:36Z</time>
      </trkpt>
      <trkpt lat="44.08697" lon="2.2064">
        <ele>312.09</ele>
        <time>2014-03-18T13:21:38Z</time>
      </trkpt>
      <trkpt lat="44.08696" lon="2.20632">
        <ele>313.53</ele>
        <time>2014-03-18T13:21:43Z</time>
      </trkpt>
      <trkpt lat="44.08698" lon="2.20623">
        <ele>311.12</ele>
        <time>2014-03-18T13:21:47Z</time>
      </trkpt>
      <trkpt lat="44.08693" lon="2.20611">
        <ele>312.57</ele>
        <time>2014-03-18T13:21:59Z</time>
      </trkpt>
      <trkpt lat="44.08691" lon="2.20603">
        <ele>313.53</ele>
        <time>2014-03-18T13:22:06Z</time>
      </trkpt>
      <trkpt lat="44.0868" lon="2.20592">
        <ele>314.97</ele>
        <time>2014-03-18T13:22:17Z</time>
      </trkpt>
      <trkpt lat="44.08677" lon="2.20589">
        <ele>315.45</ele>
        <time>2014-03-18T13:22:21Z</time>
      </trkpt>
      <trkpt lat="44.08674" lon="2.20584">
        <ele>314.97</ele>
        <time>2014-03-18T13:22:25Z</time>
      </trkpt>
      <trkpt lat="44.0867" lon="2.20575">
        <ele>313.53</ele>
        <time>2014-03-18T13:22:33Z</time>
      </trkpt>
      <trkpt lat="44.08666" lon="2.20557">
        <ele>311.12</ele>
        <time>2014-03-18T13:22:45Z</time>
      </trkpt>
      <trkpt lat="44.08661" lon="2.20536">
        <ele>308.24</ele>
        <time>2014-03-18T13:22:59Z</time>
      </trkpt>
      <trkpt lat="44.08653" lon="2.20518">
        <ele>304.39</ele>
        <time>2014-03-18T13:23:11Z</time>
      </trkpt>
      <trkpt lat="44.08652" lon="2.20515">
        <ele>303.43</ele>
        <time>2014-03-18T13:23:13Z</time>
      </trkpt>
      <trkpt lat="44.08647" lon="2.20494">
        <ele>296.7</ele>
        <time>2014-03-18T13:23:25Z</time>
      </trkpt>
      <trkpt lat="44.08645" lon="2.20491">
        <ele>295.26</ele>
        <time>2014-03-18T13:23:27Z</time>
      </trkpt>
      <trkpt lat="44.08643" lon="2.20486">
        <ele>295.26</ele>
        <time>2014-03-18T13:23:31Z</time>
      </trkpt>
      <trkpt lat="44.08639" lon="2.20477">
        <ele>293.82</ele>
        <time>2014-03-18T13:23:38Z</time>
      </trkpt>
      <trkpt lat="44.08633" lon="2.20465">
        <ele>292.86</ele>
        <time>2014-03-18T13:23:47Z</time>
      </trkpt>
      <trkpt lat="44.08632" lon="2.20459">
        <ele>292.38</ele>
        <time>2014-03-18T13:23:51Z</time>
      </trkpt>
      <trkpt lat="44.08619" lon="2.20447">
        <ele>288.05</ele>
        <time>2014-03-18T13:24:03Z</time>
      </trkpt>
      <trkpt lat="44.08611" lon="2.20436">
        <ele>286.13</ele>
        <time>2014-03-18T13:24:11Z</time>
      </trkpt>
      <trkpt lat="44.08597" lon="2.20419">
        <ele>281.8</ele>
        <time>2014-03-18T13:24:27Z</time>
      </trkpt>
      <trkpt lat="44.08588" lon="2.20403">
        <ele>282.77</ele>
        <time>2014-03-18T13:24:39Z</time>
      </trkpt>
      <trkpt lat="44.08584" lon="2.20398">
        <ele>282.28</ele>
        <time>2014-03-18T13:24:44Z</time>
      </trkpt>
      <trkpt lat="44.08576" lon="2.20383">
        <ele>283.25</ele>
        <time>2014-03-18T13:24:59Z</time>
      </trkpt>
      <trkpt lat="44.08569" lon="2.20378">
        <ele>282.77</ele>
        <time>2014-03-18T13:25:11Z</time>
      </trkpt>
      <trkpt lat="44.08566" lon="2.20385">
        <ele>283.25</ele>
        <time>2014-03-18T13:25:18Z</time>
      </trkpt>
      <trkpt lat="44.08564" lon="2.20385">
        <ele>283.25</ele>
        <time>2014-03-18T13:25:20Z</time>
      </trkpt>
      <trkpt lat="44.0856" lon="2.20384">
        <ele>283.73</ele>
        <time>2014-03-18T13:25:23Z</time>
      </trkpt>
      <trkpt lat="44.08553" lon="2.20382">
        <ele>284.21</ele>
        <time>2014-03-18T13:25:30Z</time>
      </trkpt>
      <trkpt lat="44.08548" lon="2.20379">
        <ele>283.73</ele>
        <time>2014-03-18T13:25:33Z</time>
      </trkpt>
      <trkpt lat="44.08535" lon="2.20373">
        <ele>284.21</ele>
        <time>2014-03-18T13:25:46Z</time>
      </trkpt>
      <trkpt lat="44.08527" lon="2.20369">
        <ele>285.65</ele>
        <time>2014-03-18T13:25:53Z</time>
      </trkpt>
      <trkpt lat="44.08525" lon="2.20369">
        <ele>285.65</ele>
        <time>2014-03-18T13:25:55Z</time>
      </trkpt>
      <trkpt lat="44.08519" lon="2.20369">
        <ele>286.13</ele>
        <time>2014-03-18T13:26:00Z</time>
      </trkpt>
      <trkpt lat="44.08502" lon="2.2036">
        <ele>289.49</ele>
        <time>2014-03-18T13:26:20Z</time>
      </trkpt>
      <trkpt lat="44.08492" lon="2.20364">
        <ele>295.26</ele>
        <time>2014-03-18T13:26:36Z</time>
      </trkpt>
      <trkpt lat="44.08489" lon="2.20363">
        <ele>297.18</ele>
        <time>2014-03-18T13:26:39Z</time>
      </trkpt>
      <trkpt lat="44.08483" lon="2.2036">
        <ele>298.63</ele>
        <time>2014-03-18T13:26:45Z</time>
      </trkpt>
      <trkpt lat="44.08475" lon="2.20354">
        <ele>298.63</ele>
        <time>2014-03-18T13:26:52Z</time>
      </trkpt>
      <trkpt lat="44.08474" lon="2.2035">
        <ele>297.18</ele>
        <time>2014-03-18T13:26:55Z</time>
      </trkpt>
      <trkpt lat="44.0847" lon="2.20336">
        <ele>296.22</ele>
        <time>2014-03-18T13:27:03Z</time>
      </trkpt>
      <trkpt lat="44.08463" lon="2.20318">
        <ele>296.22</ele>
        <time>2014-03-18T13:27:15Z</time>
      </trkpt>
      <trkpt lat="44.08461" lon="2.20315">
        <ele>297.67</ele>
        <time>2014-03-18T13:27:18Z</time>
      </trkpt>
      <trkpt lat="44.08455" lon="2.20299">
        <ele>301.51</ele>
        <time>2014-03-18T13:27:31Z</time>
      </trkpt>
      <trkpt lat="44.08452" lon="2.20295">
        <ele>301.99</ele>
        <time>2014-03-18T13:27:34Z</time>
      </trkpt>
      <trkpt lat="44.08442" lon="2.20277">
        <ele>300.55</ele>
        <time>2014-03-18T13:27:47Z</time>
      </trkpt>
      <trkpt lat="44.08431" lon="2.2026">
        <ele>297.67</ele>
        <time>2014-03-18T13:28:01Z</time>
      </trkpt>
      <trkpt lat="44.08427" lon="2.20256">
        <ele>297.18</ele>
        <time>2014-03-18T13:28:16Z</time>
      </trkpt>
      <trkpt lat="44.08424" lon="2.20249">
        <ele>298.15</ele>
        <time>2014-03-18T13:28:28Z</time>
      </trkpt>
      <trkpt lat="44.08414" lon="2.20229">
        <ele>299.11</ele>
        <time>2014-03-18T13:28:42Z</time>
      </trkpt>
      <trkpt lat="44.0842" lon="2.20222">
        <ele>295.74</ele>
        <time>2014-03-18T13:28:53Z</time>
      </trkpt>
      <trkpt lat="44.08424" lon="2.20221">
        <ele>293.34</ele>
        <time>2014-03-18T13:28:57Z</time>
      </trkpt>
      <trkpt lat="44.08436" lon="2.20215">
        <ele>289.97</ele>
        <time>2014-03-18T13:29:09Z</time>
      </trkpt>
      <trkpt lat="44.0845" lon="2.20215">
        <ele>288.05</ele>
        <time>2014-03-18T13:29:23Z</time>
      </trkpt>
      <trkpt lat="44.08459" lon="2.20214">
        <ele>288.53</ele>
        <time>2014-03-18T13:29:33Z</time>
      </trkpt>
      <trkpt lat="44.08465" lon="2.20217">
        <ele>289.97</ele>
        <time>2014-03-18T13:29:47Z</time>
      </trkpt>
      <trkpt lat="44.08466" lon="2.20216">
        <ele>289.97</ele>
        <time>2014-03-18T13:29:57Z</time>
      </trkpt>
      <trkpt lat="44.08474" lon="2.20218">
        <ele>291.42</ele>
        <time>2014-03-18T13:30:06Z</time>
      </trkpt>
      <trkpt lat="44.08476" lon="2.20218">
        <ele>291.42</ele>
        <time>2014-03-18T13:30:08Z</time>
      </trkpt>
      <trkpt lat="44.08491" lon="2.2022">
        <ele>292.86</ele>
        <time>2014-03-18T13:30:20Z</time>
      </trkpt>
      <trkpt lat="44.08512" lon="2.20226">
        <ele>297.67</ele>
        <time>2014-03-18T13:30:37Z</time>
      </trkpt>
      <trkpt lat="44.08523" lon="2.20233">
        <ele>301.99</ele>
        <time>2014-03-18T13:30:55Z</time>
      </trkpt>
      <trkpt lat="44.0853" lon="2.20237">
        <ele>302.95</ele>
        <time>2014-03-18T13:31:07Z</time>
      </trkpt>
      <trkpt lat="44.08542" lon="2.20243">
        <ele>302.95</ele>
        <time>2014-03-18T13:31:21Z</time>
      </trkpt>
      <trkpt lat="44.08554" lon="2.20249">
        <ele>301.99</ele>
        <time>2014-03-18T13:31:36Z</time>
      </trkpt>
      <trkpt lat="44.08561" lon="2.20259">
        <ele>304.39</ele>
        <time>2014-03-18T13:31:52Z</time>
      </trkpt>
      <trkpt lat="44.08562" lon="2.20261">
        <ele>304.39</ele>
        <time>2014-03-18T13:31:54Z</time>
      </trkpt>
      <trkpt lat="44.08571" lon="2.20276">
        <ele>306.8</ele>
        <time>2014-03-18T13:32:09Z</time>
      </trkpt>
      <trkpt lat="44.08576" lon="2.20286">
        <ele>310.16</ele>
        <time>2014-03-18T13:32:21Z</time>
      </trkpt>
      <trkpt lat="44.08582" lon="2.20294">
        <ele>312.09</ele>
        <time>2014-03-18T13:32:33Z</time>
      </trkpt>
      <trkpt lat="44.0859" lon="2.20303">
        <ele>313.05</ele>
        <time>2014-03-18T13:32:49Z</time>
      </trkpt>
      <trkpt lat="44.08587" lon="2.20297">
        <ele>314.49</ele>
        <time>2014-03-18T13:32:59Z</time>
      </trkpt>
      <trkpt lat="44.08581" lon="2.20282">
        <ele>318.33</ele>
        <time>2014-03-18T13:33:11Z</time>
      </trkpt>
      <trkpt lat="44.0858" lon="2.20277">
        <ele>319.3</ele>
        <time>2014-03-18T13:33:15Z</time>
      </trkpt>
      <trkpt lat="44.08577" lon="2.20268">
        <ele>321.7</ele>
        <time>2014-03-18T13:33:24Z</time>
      </trkpt>
      <trkpt lat="44.08574" lon="2.20253">
        <ele>323.62</ele>
        <time>2014-03-18T13:33:38Z</time>
      </trkpt>
      <trkpt lat="44.0857" lon="2.20236">
        <ele>326.02</ele>
        <time>2014-03-18T13:33:53Z</time>
      </trkpt>
      <trkpt lat="44.08568" lon="2.20234">
        <ele>326.5</ele>
        <time>2014-03-18T13:33:56Z</time>
      </trkpt>
      <trkpt lat="44.08559" lon="2.20223">
        <ele>331.31</ele>
        <time>2014-03-18T13:34:10Z</time>
      </trkpt>
      <trkpt lat="44.0855" lon="2.20207">
        <ele>333.71</ele>
        <time>2014-03-18T13:34:27Z</time>
      </trkpt>
      <trkpt lat="44.08547" lon="2.20198">
        <ele>333.71</ele>
        <time>2014-03-18T13:34:36Z</time>
      </trkpt>
      <trkpt lat="44.0854" lon="2.20184">
        <ele>333.71</ele>
        <time>2014-03-18T13:34:51Z</time>
      </trkpt>
      <trkpt lat="44.08535" lon="2.20172">
        <ele>334.68</ele>
        <time>2014-03-18T13:35:05Z</time>
      </trkpt>
      <trkpt lat="44.08536" lon="2.20156">
        <ele>335.16</ele>
        <time>2014-03-18T13:35:19Z</time>
      </trkpt>
      <trkpt lat="44.08542" lon="2.20142">
        <ele>333.71</ele>
        <time>2014-03-18T13:35:36Z</time>
      </trkpt>
      <trkpt lat="44.08552" lon="2.20135">
        <ele>334.2</ele>
        <time>2014-03-18T13:35:52Z</time>
      </trkpt>
      <trkpt lat="44.0856" lon="2.20133">
        <ele>334.68</ele>
        <time>2014-03-18T13:36:06Z</time>
      </trkpt>
      <trkpt lat="44.08565" lon="2.20135">
        <ele>336.6</ele>
        <time>2014-03-18T13:36:19Z</time>
      </trkpt>
      <trkpt lat="44.08569" lon="2.20133">
        <ele>337.56</ele>
        <time>2014-03-18T13:36:30Z</time>
      </trkpt>
      <trkpt lat="44.08575" lon="2.20131">
        <ele>338.04</ele>
        <time>2014-03-18T13:36:40Z</time>
      </trkpt>
      <trkpt lat="44.08578" lon="2.20129">
        <ele>339</ele>
        <time>2014-03-18T13:36:42Z</time>
      </trkpt>
      <trkpt lat="44.08581" lon="2.20126">
        <ele>339.48</ele>
        <time>2014-03-18T13:36:46Z</time>
      </trkpt>
      <trkpt lat="44.08583" lon="2.20125">
        <ele>339.96</ele>
        <time>2014-03-18T13:36:48Z</time>
      </trkpt>
      <trkpt lat="44.08585" lon="2.20124">
        <ele>340.92</ele>
        <time>2014-03-18T13:36:50Z</time>
      </trkpt>
      <trkpt lat="44.0859" lon="2.20123">
        <ele>341.41</ele>
        <time>2014-03-18T13:36:56Z</time>
      </trkpt>
      <trkpt lat="44.08597" lon="2.20126">
        <ele>342.37</ele>
        <time>2014-03-18T13:37:09Z</time>
      </trkpt>
      <trkpt lat="44.08601" lon="2.20127">
        <ele>341.89</ele>
        <time>2014-03-18T13:37:14Z</time>
      </trkpt>
      <trkpt lat="44.08608" lon="2.20134">
        <ele>340.92</ele>
        <time>2014-03-18T13:37:28Z</time>
      </trkpt>
      <trkpt lat="44.08615" lon="2.20139">
        <ele>343.81</ele>
        <time>2014-03-18T13:37:42Z</time>
      </trkpt>
      <trkpt lat="44.08618" lon="2.20141">
        <ele>344.29</ele>
        <time>2014-03-18T13:37:47Z</time>
      </trkpt>
      <trkpt lat="44.08626" lon="2.20143">
        <ele>345.25</ele>
        <time>2014-03-18T13:37:58Z</time>
      </trkpt>
      <trkpt lat="44.08634" lon="2.20148">
        <ele>344.77</ele>
        <time>2014-03-18T13:38:08Z</time>
      </trkpt>
      <trkpt lat="44.08639" lon="2.2016">
        <ele>347.17</ele>
        <time>2014-03-18T13:38:21Z</time>
      </trkpt>
      <trkpt lat="44.08637" lon="2.20162">
        <ele>349.1</ele>
        <time>2014-03-18T13:38:26Z</time>
      </trkpt>
      <trkpt lat="44.08636" lon="2.20177">
        <ele>350.06</ele>
        <time>2014-03-18T13:38:39Z</time>
      </trkpt>
      <trkpt lat="44.08636" lon="2.20188">
        <ele>350.54</ele>
        <time>2014-03-18T13:38:51Z</time>
      </trkpt>
      <trkpt lat="44.08634" lon="2.20189">
        <ele>352.94</ele>
        <time>2014-03-18T13:39:09Z</time>
      </trkpt>
      <trkpt lat="44.08635" lon="2.20196">
        <ele>351.98</ele>
        <time>2014-03-18T13:39:16Z</time>
      </trkpt>
      <trkpt lat="44.08639" lon="2.20211">
        <ele>353.42</ele>
        <time>2014-03-18T13:39:28Z</time>
      </trkpt>
      <trkpt lat="44.08641" lon="2.2022">
        <ele>353.9</ele>
        <time>2014-03-18T13:39:41Z</time>
      </trkpt>
      <trkpt lat="44.08643" lon="2.20233">
        <ele>354.86</ele>
        <time>2014-03-18T13:39:53Z</time>
      </trkpt>
      <trkpt lat="44.08643" lon="2.20244">
        <ele>355.83</ele>
        <time>2014-03-18T13:40:05Z</time>
      </trkpt>
      <trkpt lat="44.08646" lon="2.20264">
        <ele>353.42</ele>
        <time>2014-03-18T13:40:17Z</time>
      </trkpt>
      <trkpt lat="44.08646" lon="2.20266">
        <ele>352.94</ele>
        <time>2014-03-18T13:40:19Z</time>
      </trkpt>
      <trkpt lat="44.08647" lon="2.20278">
        <ele>349.58</ele>
        <time>2014-03-18T13:40:27Z</time>
      </trkpt>
      <trkpt lat="44.0865" lon="2.20287">
        <ele>349.1</ele>
        <time>2014-03-18T13:40:32Z</time>
      </trkpt>
      <trkpt lat="44.08651" lon="2.20292">
        <ele>349.1</ele>
        <time>2014-03-18T13:40:35Z</time>
      </trkpt>
      <trkpt lat="44.08651" lon="2.20311">
        <ele>350.54</ele>
        <time>2014-03-18T13:40:49Z</time>
      </trkpt>
      <trkpt lat="44.08652" lon="2.20316">
        <ele>350.54</ele>
        <time>2014-03-18T13:40:54Z</time>
      </trkpt>
      <trkpt lat="44.08664" lon="2.2033">
        <ele>349.58</ele>
        <time>2014-03-18T13:41:09Z</time>
      </trkpt>
      <trkpt lat="44.08673" lon="2.20334">
        <ele>351.98</ele>
        <time>2014-03-18T13:41:21Z</time>
      </trkpt>
      <trkpt lat="44.08673" lon="2.20334">
        <ele>351.98</ele>
        <time>2014-03-18T13:41:24Z</time>
      </trkpt>
      <trkpt lat="44.0868" lon="2.20333">
        <ele>353.9</ele>
        <time>2014-03-18T13:41:32Z</time>
      </trkpt>
      <trkpt lat="44.0869" lon="2.20335">
        <ele>353.42</ele>
        <time>2014-03-18T13:41:44Z</time>
      </trkpt>
      <trkpt lat="44.087" lon="2.20333">
        <ele>354.38</ele>
        <time>2014-03-18T13:41:56Z</time>
      </trkpt>
      <trkpt lat="44.08702" lon="2.20332">
        <ele>354.86</ele>
        <time>2014-03-18T13:41:58Z</time>
      </trkpt>
      <trkpt lat="44.08715" lon="2.20325">
        <ele>356.79</ele>
        <time>2014-03-18T13:42:12Z</time>
      </trkpt>
      <trkpt lat="44.08717" lon="2.20324">
        <ele>357.27</ele>
        <time>2014-03-18T13:42:15Z</time>
      </trkpt>
      <trkpt lat="44.08729" lon="2.20314">
        <ele>357.27</ele>
        <time>2014-03-18T13:42:28Z</time>
      </trkpt>
      <trkpt lat="44.08733" lon="2.20309">
        <ele>355.83</ele>
        <time>2014-03-18T13:42:33Z</time>
      </trkpt>
      <trkpt lat="44.08738" lon="2.20305">
        <ele>355.83</ele>
        <time>2014-03-18T13:42:38Z</time>
      </trkpt>
      <trkpt lat="44.08747" lon="2.20306">
        <ele>356.79</ele>
        <time>2014-03-18T13:42:48Z</time>
      </trkpt>
      <trkpt lat="44.08754" lon="2.20306">
        <ele>356.79</ele>
        <time>2014-03-18T13:42:55Z</time>
      </trkpt>
      <trkpt lat="44.0876" lon="2.20304">
        <ele>357.75</ele>
        <time>2014-03-18T13:43:00Z</time>
      </trkpt>
      <trkpt lat="44.08765" lon="2.203">
        <ele>358.71</ele>
        <time>2014-03-18T13:43:04Z</time>
      </trkpt>
      <trkpt lat="44.08775" lon="2.20278">
        <ele>362.07</ele>
        <time>2014-03-18T13:43:20Z</time>
      </trkpt>
      <trkpt lat="44.08778" lon="2.20272">
        <ele>362.07</ele>
        <time>2014-03-18T13:43:26Z</time>
      </trkpt>
      <trkpt lat="44.08779" lon="2.20268">
        <ele>361.59</ele>
        <time>2014-03-18T13:43:29Z</time>
      </trkpt>
      <trkpt lat="44.08785" lon="2.20255">
        <ele>360.63</ele>
        <time>2014-03-18T13:43:40Z</time>
      </trkpt>
      <trkpt lat="44.08794" lon="2.20236">
        <ele>359.19</ele>
        <time>2014-03-18T13:43:56Z</time>
      </trkpt>
      <trkpt lat="44.08801" lon="2.20219">
        <ele>359.19</ele>
        <time>2014-03-18T13:44:09Z</time>
      </trkpt>
    </trkseg>
  </trk>
</gpx>